[[{"header":{"parameterUnit":"m.s-1","parameterCategory":1,"la1":31.0,"la2":29.5877,"lo1":-88.7671,"lo2":-86.6584,"dy":0.0162,"dx":0.0185,"nx":115,"ny":88,"refTime":"2023-03-01T18:00:00:Z","depth":0,"parameterNumber":2,"parameterNumberName":"U-component_of_WINDS"},"data":[0.0,0.0,0.0,0.0,0.0,0.0,0.0,0.0,0.0,0.0,0.0,0.0,0.0,0.0,0.0,0.0,0.0,0.0,0.0,0.0,0.0,0.0,0.0,0.0,0.0,0.0,0.0,0.0,0.0,0.0,0.0,0.0,0.0,0.0,0.0,0.0,0.0,0.0,0.0,0.0,0.0,0.0,0.0,0.0,0.0,0.0,0.0,0.0,0.0,0.0,0.0,0.0,0.0,0.0,0.0,0.0,0.0,0.0,0.0,0.0,0.0,0.0,0.0,0.0,0.0,0.0,0.0,0.0,0.0,0.0,0.0,0.0,0.0,0.0,0.0,0.0,0.0,0.0,0.0,0.0,0.0,0.0,0.0,0.0,0.0,0.0,0.0,0.0,0.0,0.0,0.0,0.0,0.0,0.0,0.0,0.0,0.0,0.0,0.0,0.0,0.0,0.0,0.0,0.0,0.0,0.0,0.0,0.0,0.0,0.0,0.0,0.0,0.0,0.0,0.0,0.0,0.0,0.0,0.0,0.0,0.0,0.0,0.0,0.0,0.0,0.0,0.0,0.0,0.0,0.0,0.0,0.0,0.0,0.0,0.0,0.0,0.0,0.0,0.0,0.0,0.0,0.0,0.0,0.0,0.0,0.0,0.0,0.0,0.0,0.0,0.0,0.0,0.0,0.0,0.0,0.0,0.0,0.0,0.0,0.0,0.0,0.0,0.0,0.0,0.0,0.0,0.0,0.0,0.0,0.0,0.0,0.0,0.0,0.0,0.0,0.0,0.0,0.0,0.0,0.0,0.0,0.0,0.0,0.0,0.0,0.0,0.0,0.0,0.0,0.0,0.0,0.0,0.0,0.0,0.0,0.0,0.0,0.0,0.0,0.0,0.0,0.0,0.0,0.0,0.0,0.0,0.0,0.0,0.0,0.0,0.0,0.0,0.0,0.0,0.0,0.0,0.0,0.0,0.0,0.0,0.0,0.0,0.0,0.0,0.0,0.0,0.0,0.0,0.0,0.0,0.0,0.0,0.0,0.0,0.0,0.0,0.0,0.0,0.0,0.0,0.0,0.0,0.0,0.0,0.0,0.0,0.0,0.0,0.0,0.0,0.0,0.0,0.0,0.0,0.0,0.0,0.0,0.0,0.0,0.0,0.0,0.0,0.0,0.0,0.0,0.0,0.0,0.0,0.0,0.0,0.0,0.0,0.0,0.0,0.0,0.0,0.0,0.0,0.0,0.0,0.0,0.0,0.0,0.0,0.0,0.0,0.0,0.0,0.0,0.0,0.0,0.0,0.0,0.0,0.0,0.0,0.0,0.0,0.0,0.0,0.0,0.0,0.0,0.0,0.0,0.0,0.0,0.0,0.0,0.0,0.0,0.0,0.0,0.0,0.0,0.0,0.0,0.0,0.0,0.0,0.0,0.0,0.0,0.0,0.0,0.0,0.0,0.0,0.0,0.0,0.0,0.0,0.0,0.0,0.0,0.0,0.0,0.0,0.0,0.0,0.0,0.0,0.0,0.0,0.0,0.0,0.0,0.0,0.0,0.0,0.0,0.0,0.0,0.0,0.0,0.0,0.0,0.0,0.0,0.0,0.0,0.0,0.0,0.0,0.0,0.0,0.0,0.0,0.0,0.0,0.0,0.0,0.0,0.0,0.0,0.0,0.0,0.0,0.0,0.0,0.0,0.0,0.0,0.0,0.0,0.0,0.0,0.0,0.0,0.0,0.0,0.0,0.0,0.0,0.0,0.0,0.0,0.0,0.0,0.0,0.0,0.0,0.0,0.0,0.0,0.0,0.0,0.0,0.0,0.0,0.0,0.0,0.0,0.0,0.0,0.0,0.0,0.0,0.0,0.0,0.0,0.0,0.0,0.0,0.0,0.0,0.0,0.0,0.0,0.0,0.0,0.0,0.0,0.0,0.0,0.0,0.0,0.0,0.0,0.0,0.0,0.0,0.0,0.0,0.0,0.0,0.0,0.0,0.0,0.0,0.0,0.0,0.0,0.0,0.0,0.0,0.0,0.0,0.0,0.0,0.0,0.0,0.0,0.0,0.0,0.0,0.0,0.0,0.0,0.0,0.0,0.0,0.0,0.0,0.0,0.0,0.0,0.0,0.0,0.0,0.0,0.0,0.0,0.0,0.0,0.0,0.0,0.0,0.0,0.0,0.0,0.0,0.0,0.0,0.0,0.0,0.0,0.0,0.0,0.0,0.0,0.0,0.0,0.0,0.0,0.0,0.0,0.0,0.0,0.0,0.0,0.0,0.0,0.0,0.0,0.0,0.0,0.0,0.0,0.0,0.0,0.0,0.0,0.0,0.0,0.0,0.0,0.0,0.0,0.0,0.0,0.0,0.0,0.0,0.0,0.0,0.0,0.0,0.0,0.0,0.0,0.0,0.0,0.0,0.0,0.0,0.0,0.0,0.0,0.0,0.0,0.0,0.0,0.0,0.0,0.0,0.0,0.0,0.0,0.0,0.0,0.0,0.0,0.0,0.0,0.0,0.0,0.0,0.0,0.0,0.0,0.0,0.0,0.0,0.0,0.0,0.0,0.0,0.0,0.0,0.0,0.0,0.0,0.0,0.0,0.0,0.0,0.0,0.0,0.0,0.0,0.0,0.0,0.0,0.0,0.0,0.0,0.0,0.0,0.0,0.0,0.0,0.0,0.0,0.0,0.0,0.0,0.0,0.0,0.0,0.0,0.0,0.0,0.0,0.0,0.0,0.0,0.0,0.0,0.0,0.0,0.0,0.0,0.0,0.0,0.0,0.0,0.0,0.0,0.0,0.0,0.0,0.0,0.0,0.0,0.0,0.0,0.0,0.0,0.0,0.0,0.0,0.0,0.0,0.0,0.0,0.0,0.0,0.0,0.0,0.0,0.0,0.0,0.0,0.0,0.0,0.0,0.0,0.0,0.0,0.0,0.0,0.0,0.0,0.0,0.0,0.0,0.0,0.0,0.0,0.0,0.0,0.0,0.0,0.0,0.0,0.0,0.0,0.0,0.0,0.0,0.0,0.0,0.0,0.0,0.0,0.0,0.0,0.0,0.0,0.0,0.0,0.0,0.0,0.0,0.0,0.0,0.0,0.0,0.0,0.0,0.0,0.0,0.0,0.0,0.0,0.0,0.0,0.0,0.0,0.0,0.0,0.0,0.0,0.0,0.0,0.0,0.0,0.0,0.0,0.0,0.0,0.0,0.0,0.0,0.0,0.0,0.0,0.0,0.0,0.0,0.0,0.0,0.0,0.0,0.0,0.0,0.0,0.0,0.0,0.0,0.0,0.0,0.0,0.0,0.0,0.0,0.0,0.0,0.0,0.0,0.0,0.0,0.0,0.0,0.0,0.0,0.0,0.0,0.0,0.0,0.0,0.0,0.0,0.0,0.0,0.0,0.0,0.0,0.0,0.0,0.0,0.0,0.0,0.0,0.0,0.0,0.0,0.0,0.0,0.0,0.0,0.0,0.0,0.0,0.0,0.0,0.0,0.0,0.0,0.0,0.0,0.0,0.0,0.0,0.0,0.0,0.0,0.0,0.0,0.0,0.0,0.0,0.0,0.0,0.0,0.0,0.0,0.0,0.0,0.0,0.0,0.0,0.0,0.0,0.0,0.0,0.0,0.0,0.0,0.0,0.0,0.0,0.0,0.0,0.0,0.0,0.0,0.0,0.0,0.0,0.0,0.0,0.0,0.0,0.0,0.0,0.0,0.0,0.0,0.0,0.0,0.0,0.0,0.0,0.0,0.0,0.0,0.0,0.0,0.0,0.0,0.0,0.0,0.0,0.0,0.0,0.0,0.0,0.0,0.0,0.0,0.0,0.0,0.0,0.0,0.0,0.0,0.0,0.0,0.0,0.0,0.0,0.0,0.0,0.0,0.0,0.0,0.0,0.0,0.0,0.0,0.0,0.0,0.0,0.0,0.0,0.0,0.0,0.0,0.0,0.0,0.0,0.0,0.0,0.0,0.0,0.0,0.0,0.0,0.0,0.0,0.0,0.0,0.0,0.0,0.0,0.0,0.0,0.0,0.0,0.0,0.0,0.0,0.0,0.0,0.0,0.0,0.0,0.0,0.0,0.0,0.0,0.0,0.0,0.0,0.0,0.0,0.0,0.0,0.0,0.0,0.0,0.0,0.0,0.0,0.0,0.0,0.0,0.0,0.0,0.0,0.0,0.0,0.0,0.0,0.0,0.0,0.0,0.0,0.0,0.0,0.0,0.0,0.0,0.0,0.0,0.0,0.0,0.0,0.0,0.0,0.0,0.0,0.0,0.0,1.647,0.0,0.0,0.0,0.0,0.0,0.0,0.0,0.0,0.0,0.0,0.0,0.0,0.0,0.0,0.0,0.0,0.0,0.0,0.0,0.0,0.0,0.0,0.0,0.0,0.0,0.0,0.0,0.0,0.0,0.0,0.0,0.0,0.0,0.0,0.0,0.0,0.0,0.0,0.0,0.0,0.0,0.0,0.0,0.0,0.0,0.0,0.0,0.0,0.0,0.0,0.0,0.0,0.0,0.0,0.0,0.0,0.0,0.0,0.0,0.0,0.0,0.0,0.0,0.0,0.0,0.0,0.0,0.0,0.0,0.0,0.0,0.0,0.0,0.0,0.0,0.0,0.0,0.0,0.0,0.0,0.0,0.0,0.0,0.0,0.0,0.0,0.0,0.0,0.0,0.0,0.0,0.0,0.0,0.0,0.0,0.0,0.0,0.0,0.0,0.0,0.0,0.0,0.0,0.0,0.0,0.0,0.0,0.0,0.0,0.0,1.753,1.7472,1.7238,1.7,1.6788,0.0,0.0,0.0,0.0,0.0,0.0,0.0,0.0,0.0,0.0,0.0,0.0,0.0,0.0,0.0,0.0,0.0,0.0,0.0,0.0,0.0,0.0,0.0,0.0,0.0,0.0,0.0,0.0,0.0,0.0,0.0,0.0,0.0,0.0,0.0,0.0,0.0,0.0,0.0,0.0,0.0,0.0,0.0,0.0,0.0,0.0,0.0,0.0,0.0,0.0,0.0,0.0,0.0,0.0,0.0,0.0,0.0,0.0,0.0,0.0,0.0,0.0,0.0,0.0,0.0,0.0,0.0,0.0,0.0,0.0,0.0,0.0,0.0,0.0,0.0,0.0,0.0,0.0,0.0,0.0,0.0,0.0,0.0,0.0,0.0,0.0,0.0,0.0,0.0,0.0,0.0,0.0,0.0,0.0,0.0,0.0,0.0,0.0,0.0,0.0,0.0,0.0,0.0,0.0,0.0,0.0,0.0,0.0,0.0,0.0,0.0,0.0,1.7192,1.6809,1.6397,0.0,0.0,0.0,0.0,0.0,0.0,0.0,0.0,0.0,0.0,0.0,0.0,0.0,0.0,0.0,0.0,0.0,0.0,0.0,0.0,0.0,0.0,0.0,0.0,0.0,0.0,0.0,0.0,0.0,0.0,0.0,0.0,0.0,0.0,0.0,0.0,0.0,0.0,0.0,0.0,0.0,0.0,0.0,0.0,0.0,0.0,0.0,0.0,0.0,0.0,0.0,0.0,0.0,0.0,0.0,0.0,0.0,0.0,0.0,0.0,0.0,0.0,0.0,0.0,0.0,0.0,0.0,0.0,0.0,0.0,0.0,0.0,0.0,0.0,0.0,0.0,0.0,0.0,0.0,0.0,0.0,0.0,0.0,0.0,0.0,0.0,0.0,0.0,0.0,0.0,0.0,0.0,0.0,0.0,0.0,0.0,0.0,0.0,0.0,0.0,0.0,0.0,0.0,0.0,0.0,0.0,0.0,0.0,0.0,0.0,1.5897,1.5415,1.5218,0.0,1.4356,0.0,0.0,0.0,0.0,0.0,0.0,0.0,0.0,0.0,0.0,0.0,0.0,0.0,0.0,0.0,0.0,0.0,0.0,0.0,0.0,0.0,0.0,0.0,0.0,0.0,0.0,0.0,0.0,0.0,0.0,0.0,0.0,0.0,0.0,0.0,0.0,0.0,0.0,0.0,0.0,0.0,0.0,0.0,0.0,0.0,0.0,0.0,0.0,0.0,0.0,0.0,0.0,0.0,0.0,0.0,0.0,0.0,0.0,0.0,0.0,0.0,0.0,0.0,0.0,0.0,0.0,0.0,0.0,0.0,0.0,0.0,0.0,0.0,0.0,0.0,0.0,0.0,0.0,0.0,0.0,0.0,0.0,0.0,0.0,0.0,0.0,0.0,0.0,0.0,0.0,0.0,0.0,0.0,0.0,0.0,0.0,0.0,0.0,0.0,0.0,0.0,0.0,0.0,0.0,0.0,0.0,0.0,0.0,0.0,0.0,1.611,1.5504,1.4791,1.3865,0.0,0.0,0.0,0.0,0.0,0.0,0.0,0.0,0.0,0.0,0.0,0.0,0.0,0.0,0.0,0.0,0.0,0.0,0.0,0.0,0.0,0.0,0.0,0.0,0.0,0.0,0.0,0.0,0.0,0.0,0.0,0.0,0.0,0.0,0.0,0.0,0.0,0.0,0.0,0.0,0.0,0.0,0.0,0.0,0.0,0.0,0.0,0.0,0.0,0.0,0.0,0.0,0.0,0.0,0.0,0.0,0.0,0.0,0.0,0.0,0.0,0.0,0.0,0.0,0.0,0.0,0.0,0.0,0.0,0.0,0.0,0.0,0.0,0.0,0.0,0.0,0.0,0.0,0.0,0.0,0.0,0.0,0.0,0.0,0.0,0.0,0.0,0.0,0.0,0.0,0.0,0.0,0.0,0.0,0.0,0.0,0.0,0.0,0.0,0.0,0.0,0.0,0.0,0.0,0.0,0.0,0.0,0.0,0.0,0.0,1.5539,1.5377,1.4451,1.3605,1.2594,1.1338,0.0,0.0,0.0,0.0,0.0,0.0,0.0,0.0,0.0,0.0,0.0,0.0,0.0,0.0,0.0,0.0,0.0,0.0,0.0,0.0,0.0,0.0,0.0,0.0,0.0,0.0,0.0,0.0,0.0,0.0,0.0,0.0,0.0,0.0,0.0,0.0,0.0,0.0,0.0,0.0,0.0,0.0,0.0,0.0,0.0,0.0,0.0,0.0,0.0,0.0,0.0,0.0,0.0,0.0,0.0,0.0,0.0,0.0,0.0,0.0,0.0,0.0,0.0,0.0,0.0,0.0,0.0,0.0,0.0,0.0,0.0,0.0,0.0,0.0,0.0,0.0,0.0,0.0,0.0,0.0,0.0,0.0,0.0,0.0,0.0,0.0,0.0,0.0,0.0,0.0,0.0,0.0,0.0,0.0,0.0,0.0,0.0,0.0,0.0,0.0,0.0,0.0,0.0,0.0,0.0,0.0,0.0,0.0,1.2609,1.3248,1.2791,1.1005,1.0923,1.0687,0.0,0.0,0.0,0.0,0.0,0.0,0.0,0.0,0.0,0.0,0.0,0.0,0.0,0.0,0.0,0.0,0.0,0.0,0.0,0.0,0.0,0.0,0.0,0.0,0.0,0.0,0.0,0.0,0.0,0.0,0.0,0.0,0.0,0.0,0.0,0.0,0.0,0.0,0.0,0.0,0.0,0.0,0.0,0.0,0.0,0.0,0.0,0.0,0.0,0.0,0.0,0.0,0.0,0.0,0.0,0.0,0.0,0.0,0.0,0.0,0.0,0.0,0.0,0.0,0.0,0.0,0.0,0.0,0.0,0.0,0.0,0.0,0.0,0.0,0.0,0.0,0.0,0.0,0.0,0.0,0.0,0.0,0.0,0.0,0.0,0.0,0.0,0.0,0.0,0.0,0.0,0.0,0.0,0.0,0.0,0.0,0.0,0.0,0.0,0.0,0.0,0.0,0.0,0.0,0.0,0.0,0.0,0.0,0.0,1.1977,1.1434,1.0428,0.8996,0.886,0.8515,0.0,0.0,0.0,0.0,0.0,0.0,0.0,0.0,0.0,0.0,0.0,0.0,0.0,0.0,0.0,0.0,0.0,0.0,0.0,0.0,0.0,0.0,0.0,0.0,0.0,0.0,0.0,0.0,0.0,0.0,0.0,0.0,0.0,0.0,0.0,0.0,0.0,0.0,0.0,0.0,0.0,0.0,0.0,0.0,0.0,0.0,0.0,0.0,0.0,0.0,0.0,0.0,0.0,0.0,0.0,0.0,0.0,0.0,0.0,0.0,0.0,0.0,0.0,0.0,0.0,0.0,0.0,0.0,0.0,0.0,0.0,0.0,0.0,0.0,0.0,0.0,0.0,0.0,0.0,0.0,0.0,0.0,0.0,0.0,0.0,0.0,0.0,0.0,0.0,0.0,0.0,0.0,0.0,0.0,0.0,0.0,0.0,0.0,0.0,0.0,0.0,0.0,0.0,0.0,0.0,0.0,0.0,0.0,0.0,1.0136,0.0,0.7442,0.6679,0.6561,0.6255,0.0,0.0,0.0,0.0,0.0,0.0,0.0,0.0,0.0,0.0,0.0,0.0,0.0,0.0,0.0,0.0,0.0,0.0,0.0,0.0,0.0,0.0,0.0,0.0,0.0,0.0,0.0,0.0,0.0,0.0,0.0,0.0,0.0,0.0,0.0,0.0,0.0,0.0,0.0,0.0,0.0,0.0,0.0,0.0,0.0,0.0,0.0,0.0,0.0,0.0,0.0,0.0,0.0,0.0,0.0,0.0,0.0,0.0,0.0,0.0,0.0,0.0,0.0,0.0,0.0,0.0,0.0,0.0,0.0,0.0,0.0,0.0,0.0,0.0,0.0,0.0,0.0,0.0,0.0,0.0,0.0,0.0,0.0,0.0,0.0,0.0,0.0,0.0,0.0,0.0,0.0,0.0,0.0,0.0,0.0,0.0,0.0,0.0,0.0,0.0,0.0,0.0,0.0,0.0,0.0,0.0,0.0,0.0,0.8716,0.6876,0.4904,0.3999,0.3987,0.4072,0.4014,0.0,0.0,0.0,0.0,0.0,0.0,0.0,0.0,0.0,0.0,0.0,0.0,0.0,0.0,0.0,0.0,0.0,0.0,0.0,0.0,0.0,0.0,0.0,0.0,0.0,0.0,0.0,0.0,0.0,0.0,0.0,0.0,0.0,0.0,0.0,0.0,0.0,0.0,0.0,0.0,0.0,0.0,0.0,0.0,0.0,0.0,0.0,0.0,0.0,0.0,0.0,0.0,0.0,0.0,0.0,0.0,0.0,0.0,0.0,0.0,0.0,0.0,0.0,0.0,0.0,0.0,0.0,0.0,0.0,0.0,0.0,0.0,0.0,0.0,0.0,0.0,0.0,0.0,0.0,0.0,0.0,0.0,0.0,0.0,0.0,0.0,0.0,0.0,0.0,0.0,0.0,0.0,0.0,0.0,0.0,0.0,0.0,0.0,0.0,0.0,0.0,0.0,0.0,0.0,0.0,0.0,0.0,0.0,0.0,0.5458,0.3681,0.3092,0.368,0.2994,0.2658,0.0,0.0,0.0,0.0,0.0,0.0,0.0,0.0,0.0,0.0,0.0,0.0,0.0,0.0,0.0,0.0,0.0,0.0,0.0,0.0,0.0,0.0,0.0,0.0,0.0,0.0,0.0,0.0,0.0,0.0,0.0,0.0,0.0,0.0,0.0,0.0,0.0,0.0,0.0,0.0,0.0,0.0,0.0,0.0,0.0,0.0,0.0,0.0,0.0,0.0,0.0,0.0,0.0,0.0,0.0,0.0,0.0,0.0,0.0,0.0,0.0,0.0,0.0,0.0,0.0,0.0,0.0,0.0,0.0,0.0,0.0,0.0,0.0,0.0,0.0,0.0,0.0,0.0,0.0,0.0,0.0,0.0,0.0,0.0,0.0,0.0,0.0,0.0,0.0,0.0,0.0,0.0,0.0,0.0,0.0,0.0,0.0,0.0,0.0,0.0,0.0,0.0,0.0,0.0,0.0,0.0,0.0,0.0,0.0,0.2471,0.0955,0.0676,0.1762,0.0849,0.0507,0.0836,0.0,0.0,0.0,0.0,0.0,0.0,0.0,0.0,0.0,0.0,0.0,0.0,0.0,0.0,0.0,0.0,0.0,0.0,0.0,0.0,0.0,0.0,0.0,0.0,0.0,0.0,0.0,0.0,0.0,0.0,0.0,0.0,0.0,0.0,0.0,0.0,0.0,0.0,0.0,0.0,0.0,0.0,0.0,0.0,0.0,0.0,0.0,0.0,0.0,0.0,0.0,0.0,0.0,0.0,0.0,0.0,0.0,0.0,0.0,0.0,0.0,0.0,0.0,0.0,0.0,0.0,0.0,0.0,0.0,0.0,0.0,0.0,0.0,0.0,0.0,0.0,0.0,0.0,0.0,0.0,0.0,0.0,0.0,0.0,0.0,0.0,0.0,0.0,0.0,0.0,0.0,0.0,0.0,0.0,0.0,0.0,0.0,0.0,0.0,0.0,0.0,0.0,0.0,0.0,0.0,0.0,0.0,0.0,-0.1641,-0.2943,-0.2949,-0.147,-0.2052,-0.2139,0.0,0.0,0.0,0.0,0.0,0.0,0.0,0.0,0.0,0.0,0.0,0.0,0.0,0.0,0.0,0.0,0.0,0.0,0.0,0.0,0.0,0.0,0.0,0.0,0.0,0.0,0.0,0.0,0.0,0.0,0.0,0.0,0.0,0.0,0.0,0.0,0.0,0.0,0.0,0.0,0.0,0.0,0.0,0.0,0.0,0.0,0.0,0.0,0.0,0.0,0.0,0.0,0.0,0.0,0.0,0.0,0.0,0.0,0.0,0.0,0.0,0.0,0.0,0.0,0.0,0.0,0.0,0.0,0.0,0.0,0.0,0.0,0.0,0.0,0.0,0.0,0.0,0.0,0.0,0.0,0.0,0.0,0.0,0.0,0.0,0.0,0.0,0.0,0.0,0.0,0.0,0.0,0.0,0.0,0.0,0.0,0.0,0.0,0.0,0.0,0.0,0.0,0.0,0.0,0.0,0.0,0.0,0.0,0.0,-0.4583,-0.5424,-0.4928,-0.3084,-0.3019,-0.2917,0.0,0.0,0.0,0.0,0.0,0.0,0.0,0.0,0.0,0.0,0.0,0.0,0.0,0.0,0.0,0.0,0.0,0.0,0.0,0.0,0.0,0.0,0.0,0.0,0.0,0.0,0.0,0.0,0.0,0.0,0.0,0.0,0.0,0.0,0.0,0.0,0.0,0.0,0.0,0.0,0.0,0.0,0.0,0.0,0.0,0.0,0.0,0.0,0.0,0.0,0.0,0.0,0.0,0.0,0.0,0.0,0.0,0.0,0.0,0.0,0.0,0.0,0.0,0.0,0.0,0.0,0.0,0.0,0.0,0.0,0.0,0.0,0.0,0.0,0.0,0.0,0.0,0.0,0.0,0.0,0.0,0.0,0.0,0.0,0.0,0.0,0.0,0.0,0.0,0.0,0.0,0.0,0.0,0.0,0.0,0.0,0.0,0.0,0.0,0.0,0.0,0.0,0.0,0.0,0.0,0.0,0.0,0.0,-0.5161,-0.6544,-0.6875,-0.6662,-0.5859,-0.5023,-0.4499,0.0,0.0,0.0,0.0,0.0,0.0,0.0,0.0,0.0,0.0,0.0,0.0,0.0,0.0,0.0,0.0,0.0,0.0,0.0,0.0,0.0,0.0,0.0,0.0,0.0,0.0,0.0,0.0,0.0,0.0,0.0,0.0,0.0,0.0,0.0,0.0,0.0,0.0,0.0,0.0,0.0,0.0,0.0,0.0,0.0,0.0,0.0,0.0,0.0,0.0,0.0,0.0,0.0,0.0,0.0,0.0,0.0,0.0,0.0,0.0,0.0,0.0,0.0,0.0,0.0,0.0,0.0,0.0,0.0,0.0,0.0,0.0,0.0,0.0,0.0,0.0,0.0,0.0,0.0,0.0,0.0,0.0,0.0,0.0,0.0,0.0,0.0,0.0,0.0,0.0,0.0,0.0,0.0,0.0,0.0,0.0,0.0,0.0,0.0,0.0,0.0,0.0,0.0,0.0,0.0,0.0,0.0,0.0,-0.6733,-0.7736,-0.7812,-0.8185,-0.8845,-0.7426,-0.6345,0.0,0.0,0.0,0.0,0.0,0.0,0.0,0.0,0.0,0.0,0.0,0.0,0.0,0.0,0.0,0.0,0.0,0.0,0.0,0.0,0.0,0.0,0.0,0.0,0.0,0.0,0.0,0.0,0.0,0.0,0.0,0.0,0.0,0.0,0.0,0.0,0.0,0.0,0.0,0.0,0.0,0.0,0.0,0.0,0.0,0.0,0.0,0.0,0.0,0.0,0.0,0.0,0.0,0.0,0.0,0.0,0.0,0.0,0.0,0.0,0.0,0.0,0.0,0.0,0.0,0.0,0.0,0.0,0.0,0.0,0.0,0.0,0.0,0.0,0.0,0.0,0.0,0.0,0.0,0.0,0.0,0.0,0.0,0.0,0.0,0.0,0.0,0.0,0.0,0.0,0.0,0.0,0.0,0.0,0.0,0.0,0.0,0.0,0.0,0.0,0.0,0.0,0.0,0.0,0.0,0.0,0.0,0.0,-0.7922,-0.8168,-0.8943,-0.9319,-0.9259,-0.7876,-0.6965,0.0,0.0,0.0,0.0,0.0,0.0,0.0,0.0,0.0,0.0,0.0,0.0,0.0,0.0,0.0,0.0,0.0,0.0,0.0,0.0,0.0,0.0,0.0,0.0,0.0,0.0,0.0,0.0,0.0,0.0,0.0,0.0,0.0,0.0,0.0,0.0,0.0,0.0,0.0,0.0,0.0,0.0,0.0,0.0,0.0,0.0,0.0,0.0,0.5378,0.0,0.0,0.0,0.0,0.0,0.0,0.0,0.0,0.0,0.0,0.0,0.0,0.0,0.0,0.0,0.0,0.0,0.0,0.0,0.0,0.0,0.0,0.0,0.0,0.0,0.0,0.0,0.0,0.0,0.0,0.0,0.0,0.0,0.0,0.0,0.0,0.0,0.0,0.0,0.0,0.0,0.0,0.0,0.0,0.0,0.0,0.0,0.0,0.0,0.0,0.0,0.0,0.0,0.0,0.0,0.0,0.0,0.0,0.0,-0.917,-0.9321,-1.0045,-1.0331,-0.9995,-0.8877,-0.8021,0.0,0.0,0.0,0.0,0.0,0.0,0.0,0.0,0.0,0.0,0.0,0.0,0.0,0.0,0.0,0.0,0.0,0.0,0.0,0.0,0.0,0.0,0.0,0.0,0.0,0.0,0.0,0.0,0.0,0.0,0.0,0.0,0.0,0.0,0.0,0.0,0.0,0.0,0.0,0.0,0.0,0.0,0.0,0.0,0.0,0.0,0.0,0.0,0.0,0.0,0.0,0.0,0.0,0.0,0.0,0.0,0.0,0.0,0.0,0.0,0.0,0.0,0.0,0.0,0.0,0.0,0.0,0.0,0.0,0.0,0.0,0.0,0.0,0.0,0.0,0.0,0.0,0.0,0.0,0.0,0.0,0.0,0.0,0.0,0.0,0.0,0.0,0.0,0.0,0.0,0.0,0.0,0.0,0.0,0.0,0.0,0.0,0.0,0.0,0.0,0.0,0.0,0.0,0.0,0.0,0.0,0.0,-0.8837,-1.0217,-1.0469,-1.0994,-1.1135,-1.0797,-0.9968,-0.9164,-0.848,0.0,0.0,0.0,0.0,0.0,0.0,0.0,0.0,0.0,0.0,0.0,0.0,0.0,0.0,0.0,0.0,0.0,0.0,0.0,0.0,0.0,0.0,0.0,0.0,0.0,0.0,0.0,0.0,0.0,0.0,0.0,0.0,0.0,0.0,0.0,0.0,0.0,0.0,0.798,0.7018,0.0,0.0,0.0,0.0,0.0,0.0,0.0,0.0,0.0903,0.0,0.0,0.0,0.0,0.0,0.0,0.0,0.0,0.0,0.0,0.0,0.0,0.0,0.0,0.0,0.0,0.0,0.0,0.0,0.0,0.0,0.0,0.0,0.0,0.0,0.0,0.0,0.0,0.0,0.0,0.0,0.0,0.0,0.0,0.0,0.0,0.0,0.0,0.0,0.0,0.0,0.0,0.0,0.0,0.0,0.0,0.0,0.0,0.0,0.0,0.0,0.0,0.0,0.0,0.0,0.0,-0.7413,-0.95,-1.0601,-1.0762,-1.1416,-1.1617,-1.1206,-1.0638,-0.9959,-0.9298,0.0,0.0,0.0,0.0,0.0,0.0,0.0,0.0,0.0,0.0,0.0,0.0,0.0,0.0,0.0,0.0,0.0,0.0,0.0,0.0,0.0,0.0,0.0,0.0,0.0,0.0,0.0,0.0,0.0,0.0,0.0,0.0,0.0,0.0,0.0,0.0,0.0,0.0,0.0,0.4532,0.3466,0.0,0.0,0.0,0.0,0.0,0.0,0.0,0.0,-0.1431,0.0,0.0,0.0,0.0,0.0,0.0,0.0,0.0,0.0,0.0,0.0,0.0,0.0,0.0,0.0,0.0,0.0,0.0,0.0,0.0,0.0,0.0,0.0,0.0,0.0,0.0,0.0,0.0,0.0,0.0,0.0,0.0,0.0,0.0,0.0,0.0,0.0,0.0,0.0,0.0,0.0,0.0,0.0,0.0,0.0,0.0,0.0,0.0,0.0,0.0,0.0,0.0,0.0,0.0,0.0,-0.7553,-0.9835,-1.0972,-1.0828,-1.1668,-1.1931,-1.1442,-1.1163,-1.0561,0.0,0.0,0.0,0.0,0.0,0.0,0.0,0.0,0.0,0.0,0.0,0.0,0.0,0.0,0.0,0.0,0.0,0.0,0.0,0.0,0.0,0.0,0.0,0.0,0.0,0.0,0.0,0.0,0.0,0.0,0.0,0.0,0.0,0.0,0.0,0.0,0.0,0.0,0.0,0.0,0.2811,0.1843,0.1015,0.0,0.0,0.0,0.0,0.0,0.0,-0.2159,-0.2413,0.0,0.0,0.0,0.0,0.0,0.0,0.0,0.0,0.0,0.0,0.0,0.0,0.0,0.0,0.0,0.0,0.0,0.0,0.0,0.0,0.0,0.0,0.0,0.0,0.0,0.0,0.0,0.0,0.0,0.0,0.0,0.0,0.0,0.0,0.0,0.0,0.0,0.0,0.0,0.0,0.0,0.0,0.0,0.0,0.0,0.0,0.0,0.0,0.0,0.0,0.0,0.0,0.0,0.0,0.0,-0.7566,-1.0034,-1.1168,-1.0968,-1.1865,-1.2063,-1.156,-1.1469,-1.0859,0.0,0.0,0.0,0.0,0.0,0.0,0.0,0.0,0.0,0.0,0.0,0.0,0.0,0.0,0.0,0.0,0.0,0.0,0.0,0.0,0.0,0.0,0.0,0.0,0.0,0.0,0.0,0.0,0.0,0.0,0.0,0.0,0.0,0.0,0.0,0.0,0.0,0.0,0.0,0.0,0.0,0.0298,-0.0926,-0.1482,0.0,0.0,0.0,0.0,-0.3425,-0.3361,0.0,0.0,0.0,0.0,0.0,0.0,0.0,0.0,0.0,0.0,0.0,0.0,0.0,0.0,0.0,0.0,0.0,0.0,0.0,0.0,0.0,0.0,0.0,0.0,0.0,0.0,0.0,0.0,0.0,0.0,0.0,0.0,0.0,0.0,0.0,0.0,0.0,0.0,0.0,0.0,0.0,0.0,0.0,0.0,0.0,0.0,0.0,0.0,0.0,0.0,0.0,0.0,0.0,0.0,0.0,0.0,-0.831,-1.0019,-1.0995,-1.127,-1.1744,-1.1964,-1.1802,-1.1296,-1.0697,0.0,0.0,0.0,0.0,0.0,0.0,0.0,0.0,0.0,0.0,0.0,0.0,0.0,0.0,0.0,0.0,0.0,0.0,0.0,0.0,0.0,0.0,0.0,0.0,0.0,0.0,0.0,0.0,0.0,0.0,0.0,0.0,0.0,0.0,0.0,0.0,0.0,0.0,0.0,0.0,0.0,-0.1543,-0.1654,-0.2748,-0.3564,0.0,0.0,-0.4864,-0.4942,-0.515,0.0,0.0,0.0,0.0,0.0,0.0,0.0,0.0,0.0,0.0,0.0,0.0,0.0,0.0,0.0,0.0,0.0,0.0,0.0,0.0,0.0,0.0,0.0,0.0,0.0,0.0,0.0,0.0,0.0,0.0,0.0,0.0,0.0,0.0,0.0,0.0,0.0,0.0,0.0,0.0,0.0,0.0,0.0,0.0,0.0,0.0,0.0,0.0,0.0,0.0,0.0,0.0,0.0,0.0,0.0,-0.7527,-0.8754,-0.9781,-1.0504,-1.0911,-1.138,-1.1553,-1.1498,-1.1553,-1.1124,0.0,0.0,0.0,0.0,0.0,0.0,0.0,0.0,0.0,0.0,0.0,0.0,0.0,0.0,0.0,0.0,0.0,0.0,0.0,0.0,0.0,0.0,0.0,0.0,0.0,0.0,0.0,0.0,0.0,0.0,0.0,0.0,0.0,0.0,0.0,0.0,0.0,0.0,0.0,0.0,0.0,0.0,-0.3209,-0.4159,0.0,0.0,0.0,-0.5721,-0.6029,0.0,0.0,0.0,0.0,0.0,0.0,0.0,0.0,0.0,0.0,0.0,0.0,0.0,0.0,0.0,0.0,0.0,0.0,0.0,0.0,0.0,0.0,0.0,0.0,0.0,0.0,0.0,0.0,0.0,0.0,0.0,0.0,0.0,0.0,0.0,0.0,0.0,0.0,0.0,0.0,0.0,0.0,0.0,0.0,0.0,0.0,0.0,0.0,0.0,0.0,0.0,0.0,0.0,0.0,0.0,0.0,0.0,-0.9034,-0.974,-1.0238,-1.0624,-1.087,-1.1052,-1.1115,-1.1428,0.0,0.0,0.0,0.0,0.0,0.0,0.0,0.0,0.0,0.0,0.0,0.0,0.0,0.0,0.0,0.0,0.0,0.0,0.0,0.0,0.0,0.0,0.0,0.0,0.0,0.0,0.0,0.2448,0.0,0.0,0.0,0.0,0.0,0.0,0.0,0.0,0.0,0.0,0.0,0.0,0.0,0.0,-0.4181,-0.4475,-0.5338,-0.5932,0.0,0.0,-0.6721,-0.7171,-0.7138,-0.7038,0.0,0.0,0.0,0.0,0.0,0.0,0.0,0.0,0.0,0.0,0.0,0.0,0.0,0.0,0.0,0.0,0.0,0.0,0.0,0.0,0.0,0.0,0.0,0.0,0.0,0.0,0.0,0.0,0.0,0.0,0.0,0.0,0.0,0.0,0.0,0.0,0.0,0.0,0.0,0.0,0.0,0.0,0.0,0.0,0.0,0.0,0.0,0.0,0.0,0.0,0.0,0.0,0.0,0.0,-0.8093,-0.9239,-0.9938,-1.0371,-1.0561,-1.0428,-1.0434,-1.0624,-1.0491,-1.0219,0.0,0.0,0.0,0.0,0.0,0.0,0.0,0.0,0.0,0.0,0.0,0.0,0.0,0.0,0.0,0.0,0.0,0.0,0.0,0.0,0.0,0.0,0.0,0.0,0.0,0.0,0.0,0.0,0.0,0.0,0.0,0.0,0.0,0.0,0.0,0.0,0.0,0.0,0.0,0.0,0.0,-0.5011,-0.502,-0.6071,-0.6924,0.0,-0.7746,-0.8174,-0.8623,-0.8634,-0.8533,-0.8163,0.0,0.0,0.0,0.0,0.0,0.0,0.0,0.0,0.0,0.0,0.0,0.0,0.0,0.0,0.0,0.0,0.0,0.0,0.0,0.0,0.0,0.0,0.0,0.0,0.0,0.0,0.0,0.0,0.0,0.0,0.0,0.0,0.0,0.0,0.0,0.0,0.0,0.0,0.0,0.0,0.0,0.0,0.0,0.0,0.0,0.0,0.0,0.0,0.0,0.0,0.0,0.0,0.0,-0.8072,-0.9314,-0.9849,-1.0244,-1.0384,-1.0244,-1.0174,-1.0244,-1.0174,-0.9931,0.0,0.0,0.0,0.0,0.0,0.0,0.0,0.0,0.0,0.0,0.0,0.0,0.0,0.0,0.0,0.0,0.0,0.0,0.0,0.0,0.0,0.0,0.0,0.0,0.0,0.0,0.0,0.0,0.1909,0.1551,0.1074,0.0,0.0,0.0,0.0,0.0,0.0,0.0,0.0,0.0,0.0,-0.5248,-0.5226,-0.6356,0.0,0.0,-0.8132,-0.8576,-0.8464,-0.8717,-0.8835,-0.8247,-0.8053,0.0,0.0,0.0,0.0,0.0,0.0,0.0,0.0,0.0,0.0,0.0,0.0,0.0,0.0,0.0,0.0,0.0,0.0,0.0,0.0,0.0,0.0,0.0,0.0,0.0,0.0,0.0,0.0,0.0,0.0,0.0,0.0,0.0,0.0,0.0,0.0,0.0,0.0,0.0,0.0,0.0,0.0,0.0,0.0,0.0,0.0,0.0,0.0,0.0,0.0,0.0,0.0,-0.8287,-0.9467,-0.9945,-1.0289,-1.0387,-1.0168,-0.9989,-0.9989,-0.9983,-0.98,0.0,0.0,0.0,0.0,0.0,0.0,0.0,0.0,0.0,0.0,0.0,0.0,0.0,0.0,0.0,0.0,0.0,0.0,0.0,0.0,0.0,0.0,0.0,0.0,0.0,0.0,0.0,0.0,0.1139,0.0765,0.026,0.0,0.0,0.0,0.0,0.0,0.0,0.0,0.0,0.0,0.0,-0.5446,-0.5435,-0.6572,-0.7483,-0.754,-0.8257,-0.8663,-0.8501,-0.877,-0.884,-0.8371,0.0,0.0,0.0,0.0,0.0,0.0,0.0,0.0,0.0,0.0,0.0,0.0,0.0,0.0,0.0,0.0,0.0,0.0,0.0,0.0,0.0,0.0,0.0,0.0,0.0,0.0,0.0,-0.3986,0.0,0.0,-0.4039,0.0,0.0,0.0,0.0,0.0,0.0,0.0,0.0,0.0,0.0,0.0,0.0,0.0,0.0,0.0,0.0,0.0,0.0,0.0,0.0,0.0,0.0,-0.8634,-0.9959,-1.0316,-1.0637,-1.0633,-1.0251,-0.9983,-0.9983,-0.9862,-0.968,-0.9346,0.0,0.0,0.0,0.0,0.0,0.0,0.0,0.0,0.0,0.0,0.0,0.0,0.0,0.0,0.0,0.0,0.0,0.0,0.0,0.0,0.0,0.0,0.0,0.0,0.0,0.0,0.1069,0.0603,0.0268,0.0,0.0,0.0,0.0,0.0,0.0,0.0,0.0,0.0,-0.4118,-0.5148,-0.573,-0.5579,-0.6679,-0.7494,-0.7657,-0.8127,-0.8598,-0.8905,-0.8857,-0.8727,0.0,0.0,0.0,0.0,0.0,0.0,0.0,0.0,0.0,0.0,0.0,0.0,0.0,0.0,0.0,0.0,0.0,0.0,0.0,0.0,0.0,0.0,0.0,0.0,0.0,0.0,0.0,-0.5714,-0.5719,0.0,0.0,0.0,0.0,0.0,0.0,0.0,0.0,0.0,0.0,0.0,-0.4349,-0.4631,0.0,0.0,0.0,0.0,0.0,0.0,0.0,0.0,0.0,0.0,0.0,0.0,-0.8742,-0.9568,-1.0073,-1.0343,-1.0355,-0.9906,-0.9676,-0.967,-0.9612,-0.9231,-0.8415,0.0,0.0,0.0,0.0,0.0,0.0,0.0,0.0,0.0,0.0,0.0,0.0,0.0,0.0,0.0,0.0,0.0,0.0,0.0,0.0,0.0,0.0,0.0,0.0,0.0,0.0665,0.0,0.0,0.0,0.0,0.0,0.0,0.0,0.0,0.0,0.0,0.0,-0.3513,-0.3895,-0.4421,-0.4737,-0.4754,-0.5937,-0.6887,0.0,0.0,0.0,0.0,0.0,0.0,0.0,0.0,0.0,0.0,0.0,0.0,0.0,0.0,-0.5053,-0.4434,-0.3564,-0.2913,-0.2696,0.0,0.0,0.0,0.0,0.0,0.0,0.0,0.0,0.0,0.0,0.0,0.0,0.0,0.0,-0.6587,-0.6468,-0.6089,0.0,0.0,0.0,0.0,0.0,0.0,0.0,0.0,-0.4843,-0.485,-0.4854,-0.5085,-0.5294,0.0,-0.542,-0.5369,0.0,0.0,0.0,0.0,0.0,0.0,0.0,0.0,-0.8678,-0.928,-0.9928,-1.0135,-0.9923,-0.9557,-0.9215,-0.8888,-0.8765,-0.8366,-0.7643,-0.7649,-0.7506,0.0,0.0,0.0,0.0,0.0,0.0,0.0,0.0,0.0,0.0,0.0,0.0,0.0,0.0,0.0,0.0,0.0,0.0,0.0,0.0,0.0,0.0,0.0,-0.0273,0.0,0.0,0.0,0.0,0.0,0.0,0.0,0.0,0.0,-0.2475,-0.3256,-0.3826,-0.3921,-0.4239,-0.4417,-0.4522,0.0,0.0,0.0,0.0,0.0,0.0,0.0,-0.8851,-0.8801,-0.8497,-0.8174,-0.7955,-0.7671,-0.7318,-0.7064,0.0,0.0,-0.4858,-0.3806,-0.2989,-0.3064,-0.2652,-0.2288,-0.2251,-0.2424,-0.2667,0.0,0.0,0.0,0.0,0.0,0.0,0.0,0.0,-0.6597,-0.6651,0.0,-0.6163,0.0,0.0,0.0,0.0,-0.4772,-0.4866,0.0,0.0,-0.5164,-0.5297,-0.5434,-0.5638,-0.5776,-0.5907,-0.5776,-0.5776,-0.5895,-0.5555,0.0,0.0,0.0,0.0,0.0,0.0,-0.8671,-0.9141,-0.9926,-1.0049,-0.9408,-0.9124,-0.856,-0.7772,-0.7391,-0.7199,-0.7204,-0.718,-0.6918,-0.6442,-0.6197,0.0,0.0,0.0,0.0,0.0,0.0,0.0,0.0,0.0,0.0,0.0,0.0,0.0,0.0,0.0,0.0,0.0,0.0,0.0,0.0,-0.1613,0.0,0.0,0.0,0.0,0.0,0.0,0.0,0.0,0.0,-0.2923,-0.3295,-0.3575,-0.3819,-0.4239,0.0,0.0,0.0,0.0,-0.675,-0.6603,-0.7717,-0.8564,-0.8604,-0.8778,-0.8822,-0.8674,0.0,0.0,-0.7928,-0.7832,-0.765,-0.7269,-0.6497,-0.5792,-0.5389,-0.4139,-0.3132,-0.3132,-0.3141,-0.3144,-0.3139,-0.3461,-0.3857,-0.8521,0.0,0.0,0.0,0.0,-0.8191,-0.8461,-0.8697,-0.8592,-0.8504,-0.8384,-0.7993,0.0,0.0,0.0,0.0,0.0,0.0,-0.5449,-0.5508,-0.5605,-0.575,-0.575,-0.6059,-0.6209,-0.6278,-0.6335,-0.6465,-0.6465,-0.6226,-0.6136,-0.6181,0.0,0.0,0.0,0.0,-0.8859,-0.9313,-0.9691,-0.9599,-0.914,-0.8585,-0.8107,-0.7702,-0.7391,-0.7003,-0.6666,-0.665,-0.6503,-0.6146,-0.5913,0.0,0.0,0.0,0.0,0.0,0.0,0.0,0.0,0.0,0.0,0.0,0.0,0.0,0.0,0.0,0.0,0.0,0.0,0.0,-0.1656,-0.1876,-0.1933,0.0,0.0,0.0,0.0,0.0,0.0,0.0,0.0,0.0,-0.3301,-0.3497,-0.3718,0.0,0.0,-0.4101,-0.4148,-0.5059,-0.5967,-0.6486,-0.7368,0.0,-0.8976,-0.899,-0.8949,-0.8921,-0.8538,-0.8182,-0.7858,-0.7794,-0.7762,-0.7604,-0.682,-0.6124,-0.5863,-0.4571,-0.3454,-0.3381,-0.346,-0.3601,-0.3641,-0.408,-0.4687,-0.9688,-0.9387,-0.9045,-0.8899,-0.8863,-0.8915,-0.9086,-0.9427,-0.9231,-0.9073,-0.8927,-0.8465,-0.8056,-0.7614,-0.7261,0.0,0.0,0.0,-0.5969,-0.6085,-0.594,-0.5959,-0.6083,-0.6416,-0.6482,-0.6416,-0.6613,-0.6679,-0.6613,-0.6416,-0.65,-0.6719,0.0,-0.6941,-0.792,-0.826,-0.8831,-0.9472,-0.9319,-0.8772,-0.7775,-0.7256,-0.6994,-0.6859,-0.6605,-0.6346,-0.6013,-0.6045,-0.5971,-0.5784,-0.5628,-0.545,0.0,0.0,0.0,0.0,0.0,0.0,0.0,0.0,0.0,0.0,0.0,-0.1114,-0.1095,0.0,0.0,0.0,-0.1294,-0.1389,-0.18,-0.1787,0.0,0.0,0.0,0.0,0.0,0.0,0.0,-0.2858,-0.3061,-0.3327,-0.3549,-0.3742,-0.3953,-0.413,-0.4245,-0.435,-0.443,0.0,-0.5946,-0.6734,-0.7467,-0.8273,-0.9155,-0.9279,-0.9246,-0.9094,-0.8331,-0.7714,-0.7565,-0.7266,-0.701,-0.7025,-0.6294,-0.5597,-0.568,-0.4428,-0.3412,-0.3493,-0.3566,-0.3707,-0.3695,-0.4495,-0.5276,-1.0457,-1.0349,-0.9566,-0.9164,-0.9095,-0.8963,-0.897,-0.9088,-0.8895,-0.8783,-0.8671,-0.8146,-0.7971,-0.7988,-0.764,0.0,-0.727,-0.6736,-0.6546,-0.6741,-0.6172,-0.6133,-0.6416,-0.6609,-0.6613,-0.6416,-0.6609,-0.6609,-0.6416,-0.6416,-0.6613,-0.7068,-0.7302,-0.7536,-0.7831,-0.7897,-0.8441,-0.9569,-0.8862,-0.7667,-0.5987,-0.5674,-0.5617,-0.5617,-0.5491,-0.5428,-0.5432,-0.5508,-0.5525,-0.5459,-0.5515,-0.5248,-0.4648,0.0,0.0,0.0,0.0,0.0,0.0,0.0,0.0,0.0,0.0,0.0,0.0,0.0,0.0,-0.1463,-0.1123,0.0,-0.1803,-0.1458,0.0,0.0,0.0,-0.2371,-0.2421,-0.2643,-0.2952,-0.3263,0.0,0.0,-0.3958,-0.4206,-0.4506,-0.457,-0.4884,-0.5116,-0.5285,-0.577,-0.644,-0.7166,-0.7878,-0.8485,-0.9128,-0.939,-0.9448,-0.9256,-0.8165,-0.7395,-0.7246,-0.6497,-0.5951,-0.6278,-0.5263,-0.4567,-0.4945,-0.4006,-0.3251,-0.341,-0.3511,-0.3624,-0.3695,-0.4648,-0.5504,-1.0698,-1.0691,-1.0362,-1.0114,-0.9854,-0.9675,-0.9728,-0.9774,-0.9434,-0.9304,-0.9416,-0.931,-0.9106,-0.8868,-0.824,-0.8007,-0.8054,-0.7187,-0.6867,-0.7062,-0.6546,-0.6375,-0.6609,-0.6679,-0.6745,-0.6815,-0.6741,-0.6675,-0.6609,-0.6486,-0.6354,-0.6218,-0.6284,-0.6697,-0.7555,-0.7683,-0.7798,-0.8053,-0.7936,-0.7282,-0.6187,-0.5848,-0.5617,-0.5617,-0.5491,-0.5428,-0.5428,-0.5511,-0.5572,-0.5538,-0.5224,-0.4948,-0.4777,-0.3962,0.0,0.0,0.0,0.0,0.0,0.0,0.0,0.0,0.0,-0.1121,-0.1121,0.0,-0.1323,0.0,-0.1305,-0.1327,-0.1647,-0.1535,0.0,0.0,-0.2526,-0.2551,-0.2722,-0.3017,-0.3253,-0.3099,-0.3446,-0.3676,-0.3703,-0.4176,-0.4612,-0.4682,-0.477,-0.4785,-0.487,-0.5199,-0.5776,-0.6857,-0.7368,-0.7992,-0.9036,-0.9199,-0.9131,-0.9047,-0.8408,-0.7868,-0.7868,-0.7125,-0.6569,-0.6576,-0.5537,-0.4745,-0.4673,-0.3724,-0.3088,-0.3096,-0.3588,-0.4018,-0.3783,-0.4526,-0.5282,-1.0926,-1.0926,-1.0688,-1.0461,-1.0301,-1.0113,-0.9987,-0.9907,-0.9636,-0.9497,-0.9499,-0.9708,-0.9636,-0.9405,-0.9102,-0.8983,-0.8925,-0.798,-0.754,-0.7526,-0.6745,-0.6482,-0.6741,-0.6741,-0.6811,-0.6811,-0.6811,-0.6679,-0.6548,-0.6482,-0.6284,-0.6017,-0.5804,-0.6047,-0.6756,-0.698,-0.7267,-0.7702,-0.7057,-0.6519,-0.609,-0.5752,-0.5554,-0.5488,-0.5425,-0.5428,-0.5428,-0.5238,-0.5145,-0.5145,-0.4668,-0.4256,-0.3981,-0.3535,-0.3148,0.0,0.0,0.0,0.0,0.0,0.0,0.0,0.0,0.0,0.0,0.0,-0.1214,-0.1077,-0.0701,-0.0707,-0.1256,-0.1085,-0.1383,-0.2384,-0.2514,-0.256,-0.275,-0.3115,-0.3369,-0.32,-0.3631,-0.3861,-0.3794,-0.4282,-0.4755,-0.4782,-0.4986,-0.5188,-0.5188,-0.5271,-0.5783,-0.6718,-0.7048,-0.7494,-0.8452,-0.8595,-0.8557,-0.8376,-0.7561,-0.7019,-0.7484,-0.662,-0.5972,-0.6133,-0.5396,-0.47,-0.4482,-0.3836,-0.3129,-0.3011,-0.3314,-0.356,-0.3373,-0.3969,-0.4652,-1.1122,-1.1059,-1.0807,-1.0618,-1.0604,-1.0342,-1.0007,-0.9733,-0.9699,-0.9559,-0.9329,-0.9754,-0.9881,-0.9771,-0.9945,-0.9856,-0.9606,-0.8689,-0.8107,-0.7857,-0.6872,-0.6548,-0.6736,-0.6815,-0.6815,-0.6741,-0.6815,-0.6683,-0.642,-0.6354,-0.6292,-0.618,-0.5701,-0.5645,-0.5955,-0.623,-0.6786,-0.7699,-0.6391,-0.577,-0.5859,-0.5572,-0.5359,-0.5296,-0.5296,-0.5296,-0.5163,-0.4758,-0.4495,-0.4561,-0.4025,-0.3491,-0.3025,-0.2889,-0.2621,0.0,-0.2221,0.0,0.0,0.0,0.0,0.0,0.0,0.0,0.0,-0.1071,-0.0864,-0.0471,0.0236,0.0236,-0.0629,-0.0392,-0.0784,-0.1961,-0.2323,-0.254,-0.2758,-0.3159,-0.3491,-0.3487,-0.3953,-0.4118,-0.4014,-0.4522,-0.486,-0.4841,-0.528,-0.5528,-0.5633,-0.5612,-0.594,-0.6665,-0.6806,-0.7236,-0.7577,-0.7829,-0.7924,-0.7521,-0.6553,-0.5783,-0.663,-0.5631,-0.4935,-0.5318,-0.4943,-0.4474,-0.4307,-0.3841,-0.3319,-0.298,-0.2924,-0.2896,-0.2927,-0.3343,-0.3746,-1.124,-1.124,-1.1059,-1.0933,-1.0737,-1.0683,-1.0424,-1.002,-0.9786,-0.9786,-0.9973,-1.0128,-1.0223,-1.0166,-1.0091,-0.9664,-0.9151,-0.8689,-0.8042,-0.7335,-0.6872,-0.6679,-0.6675,-0.6548,-0.6548,-0.6675,-0.6548,-0.6482,-0.642,-0.6218,-0.6215,-0.6355,-0.5874,-0.5869,-0.628,0.0,0.0,0.0,-0.6086,-0.5847,-0.5802,-0.5554,-0.516,-0.4761,-0.4761,0.0,-0.4092,-0.4025,-0.4095,-0.4298,-0.3424,0.0,0.0,0.0,0.0,0.0,0.0,0.0,0.0,0.0,0.0,0.0,-0.0743,-0.0451,-0.0451,-0.0,0.0236,0.0393,0.0629,0.0629,0.0157,0.0157,-0.0392,-0.1804,-0.1923,-0.2197,-0.3032,-0.3255,-0.3433,-0.3657,-0.3903,-0.3999,-0.3953,-0.4349,-0.4565,-0.4511,-0.507,-0.5453,-0.5458,-0.547,-0.5846,-0.6522,-0.6946,-0.7327,-0.7328,-0.7281,-0.719,-0.6824,-0.6472,-0.6009,-0.6005,-0.5392,-0.4701,-0.4854,-0.4387,-0.3919,-0.3682,-0.3374,-0.3142,-0.2843,-0.2727,-0.2638,-0.2756,-0.2879,-0.3163,-1.1296,-1.1303,-1.1059,-1.087,0.0,-1.0744,-1.06,-1.0321,-1.0241,-1.0207,-1.0341,-1.0431,-1.0301,-1.0034,-0.997,-0.953,-0.8888,-0.8436,-0.7917,-0.733,-0.6872,-0.6675,-0.6548,-0.6416,-0.6416,-0.6478,-0.6346,-0.6284,-0.6152,-0.6152,-0.6062,-0.6007,-0.5663,-0.5675,-0.5976,-0.5694,-0.5766,-0.6187,-0.5752,-0.5471,-0.5467,-0.4852,-0.4447,-0.4243,-0.3984,0.0,0.0,0.0,0.0,0.0,0.0,0.0,0.0,-0.1883,0.0,-0.1749,-0.184,-0.1737,-0.1426,-0.1302,-0.1179,-0.0755,0.0153,0.0462,0.0154,0.0624,0.0864,0.0786,0.1022,0.1022,0.0393,0.0314,-0.0157,-0.11,-0.1522,-0.1949,-0.2444,-0.2984,-0.3389,-0.3452,-0.3751,-0.3995,-0.3912,-0.4214,-0.4484,-0.4453,-0.491,-0.5171,-0.521,-0.5331,-0.562,-0.5975,-0.635,-0.6508,-0.6318,-0.6227,-0.6182,-0.5948,-0.5547,-0.5392,-0.5696,-0.516,-0.4701,-0.4701,-0.4465,-0.4075,-0.345,-0.3219,-0.2982,-0.2749,-0.2615,-0.2609,-0.2744,-0.2783,-0.2887,-1.1373,-1.131,-1.0989,-1.087,-1.0807,-1.0681,-1.0624,-1.0618,-1.0618,0.0,0.0,-1.0428,-1.0168,-0.9646,-0.9646,-0.9268,-0.8571,-0.8182,-0.7787,-0.726,-0.6872,-0.6548,-0.635,-0.6354,-0.6284,-0.6148,-0.618,-0.6129,-0.5937,-0.6033,-0.5996,-0.5741,-0.5606,-0.548,-0.5493,-0.5023,-0.5143,-0.5871,-0.5174,-0.4873,-0.4818,-0.3994,-0.3521,-0.3591,-0.3237,-0.3121,-0.3177,-0.257,-0.243,-0.2621,-0.1949,-0.1482,-0.1355,-0.149,-0.1562,-0.157,-0.1463,-0.1428,-0.1319,-0.1198,-0.0765,-0.0,0.1019,0.1333,0.0786,0.1178,0.1335,0.1021,0.1415,0.1258,0.055,0.0471,0.0236,-0.0393,-0.0958,-0.1372,-0.1615,-0.2542,-0.3149,-0.3152,-0.3566,-0.3932,-0.3904,-0.4195,-0.4411,-0.4435,-0.4768,-0.4965,-0.4947,-0.515,-0.5252,-0.5226,-0.5448,-0.5436,-0.5204,-0.5174,-0.5165,-0.5087,-0.4543,-0.4389,-0.4929,-0.4851,-0.4543,-0.4467,-0.4543,-0.4075,-0.3374,-0.3139,-0.2982,-0.2668,-0.2511,-0.2561,-0.2718,-0.2767,-0.2789,-1.156,-1.156,-1.1303,-1.1178,-1.1059,-1.087,-1.0688,-1.0618,-1.0618,-1.0358,-0.9901,-0.9907,-0.9652,-0.9145,-0.9081,-0.8619,-0.7907,-0.7912,-0.7461,-0.6548,-0.6486,-0.6346,-0.6214,-0.602,-0.5958,-0.5966,-0.6037,-0.6104,-0.6051,-0.6106,-0.6241,-0.6353,-0.6092,-0.5641,-0.5084,-0.4486,-0.4257,-0.4409,-0.4013,-0.3747,-0.3751,-0.3516,-0.3108,-0.2677,-0.2596,-0.2422,-0.1953,-0.1881,-0.1792,-0.1751,-0.1547,-0.136,-0.1251,-0.1184,-0.1268,-0.1439,-0.123,-0.1173,-0.1203,-0.0604,0.0229,0.1251,0.1489,0.149,0.1257,0.1727,0.1883,0.1572,0.1572,0.1493,0.1179,0.11,0.0864,0.0236,0.0079,-0.0237,-0.0946,-0.182,-0.2462,-0.2619,-0.3322,-0.3856,-0.3907,-0.3966,-0.4106,-0.4255,-0.4493,-0.4763,-0.4678,-0.4729,-0.4713,-0.4617,-0.4575,-0.456,-0.4631,-0.4545,-0.4462,-0.4311,-0.4233,-0.4077,-0.4151,-0.4153,-0.3997,-0.3997,-0.3997,-0.3684,-0.3212,-0.3137,-0.2902,-0.2589,-0.2512,-0.2563,-0.2688,-0.2717,-0.2749,-1.1887,-1.1816,-1.1496,-1.1368,-1.1297,-1.0876,-1.0681,-1.0555,-1.0295,-1.004,-0.9837,-0.9773,-0.9326,-0.8624,-0.8565,-0.8172,-0.7456,-0.7526,-0.7138,-0.642,-0.642,-0.6214,-0.5888,-0.5843,-0.5773,-0.5645,-0.5869,-0.5731,-0.5322,-0.5374,-0.5328,-0.5173,-0.5021,-0.4707,-0.407,-0.3734,-0.3368,-0.2899,-0.3066,-0.3121,-0.3078,-0.2558,-0.223,-0.2083,-0.1909,-0.1739,-0.1577,-0.1504,-0.1424,-0.1336,-0.1248,-0.1254,-0.1215,-0.1201,-0.1063,-0.08,-0.0665,-0.0523,-0.0151,0.0459,0.1085,0.1566,0.1881,0.204,0.1962,0.2118,0.2118,0.1962,0.1728,0.1573,0.1493,0.1336,0.1179,0.0864,0.055,0.0157,-0.0314,-0.1254,-0.2037,-0.2356,-0.313,-0.3727,-0.3961,-0.3909,-0.4017,-0.4232,-0.4299,-0.4282,-0.4314,-0.4208,-0.4207,-0.4394,-0.4309,-0.4311,-0.4394,-0.4233,-0.4077,-0.4079,-0.3999,-0.3921,-0.3841,-0.3841,-0.3841,-0.3763,-0.3763,-0.3526,-0.3132,-0.2979,-0.2824,-0.2592,-0.2541,-0.2595,-0.267,-0.274,-0.2809,-1.2225,-1.1963,-1.1645,-1.1414,-1.1265,-1.0655,-1.0428,-1.0358,-0.9837,-0.9518,-0.939,-0.939,-0.8812,-0.7972,-0.7912,-0.7615,-0.7202,-0.7136,-0.6897,-0.6471,-0.6404,-0.6131,-0.5734,-0.5783,-0.5693,-0.5457,-0.5607,-0.5299,-0.4708,-0.4657,-0.437,-0.3823,-0.3889,-0.3557,-0.2895,-0.2794,-0.2431,-0.1886,-0.2273,-0.2429,-0.2426,-0.1771,-0.1528,-0.1678,-0.1424,-0.1258,-0.1325,-0.1251,-0.1173,-0.1093,-0.1144,-0.1073,-0.0953,-0.0866,-0.0577,-0.0074,-0.0,0.0305,0.0917,0.1319,0.1646,0.1803,0.2273,0.251,0.251,0.2352,0.2196,0.2118,0.1728,0.1493,0.1493,0.1415,0.1336,0.1258,0.0864,0.055,0.0393,-0.0628,-0.149,-0.1812,-0.2769,-0.3519,-0.3674,-0.3762,-0.4001,-0.4176,-0.4163,-0.4036,-0.3942,-0.3852,-0.3953,-0.4157,-0.4155,-0.4079,-0.4238,-0.3999,-0.3921,-0.3999,-0.3921,-0.3841,-0.3841,-0.3841,-0.3841,-0.3763,-0.3682,-0.3448,-0.3134,-0.2901,-0.2746,-0.2592,-0.2555,-0.2621,-0.2703,-0.2794,-0.2867,-1.2306,-1.1985,-1.1652,-1.1159,-1.0678,-1.011,-0.9901,-0.9773,-0.9198,-0.8619,-0.8242,-0.8177,-0.7787,-0.7077,-0.7077,-0.7034,-0.6916,-0.6929,-0.681,-0.66,-0.6478,-0.6264,-0.6037,-0.5847,-0.5708,-0.5527,-0.5232,-0.495,-0.4624,-0.4163,-0.375,-0.3383,-0.3169,-0.2674,-0.1953,-0.1803,-0.1729,-0.1651,-0.1492,-0.1414,-0.1414,-0.1333,-0.1331,-0.1331,-0.1328,-0.1236,-0.1209,-0.1207,-0.1195,-0.1169,-0.1164,-0.0882,-0.015,0.0226,0.0456,0.0544,0.0702,0.1093,0.1719,0.1644,0.1881,0.2353,0.2431,0.251,0.251,0.2273,0.2119,0.1964,0.1573,0.1338,0.1336,0.1337,0.1338,0.1336,0.1258,0.1179,0.1021,0.0157,-0.0471,-0.0236,-0.2095,-0.3257,-0.2807,-0.3345,-0.3951,-0.4172,-0.4175,-0.4077,-0.3991,-0.3912,-0.3834,-0.3859,-0.3841,-0.3841,-0.3921,-0.3841,-0.3841,-0.3841,-0.3841,-0.3841,-0.3841,-0.3841,-0.3841,-0.3763,-0.3606,-0.337,-0.3137,-0.2904,-0.2746,-0.2598,-0.2567,-0.2638,-0.2744,-0.2827,-0.2869,-1.2513,-1.2254,-1.2054,-1.1297,-1.0257,-0.9901,-0.9582,-0.9122,-0.856,-0.8112,-0.7652,-0.7396,-0.7134,-0.6881,-0.6811,-0.6847,-0.6886,-0.6684,-0.6573,-0.6444,-0.6309,-0.6093,-0.5885,-0.553,-0.5309,-0.5136,-0.4734,-0.4292,-0.3686,-0.3138,-0.2772,-0.2576,-0.2456,-0.2177,-0.1807,-0.1651,-0.1573,-0.1573,-0.1415,-0.1336,-0.1336,-0.1336,-0.1336,-0.1336,-0.1336,-0.1252,-0.1241,-0.0928,-0.0847,-0.1219,-0.1278,-0.0753,0.0309,0.122,0.1606,0.1252,0.1568,0.1959,0.2273,0.2195,0.2273,0.251,0.251,0.251,0.251,0.2273,0.2196,0.2044,0.175,0.1437,0.1498,0.1352,0.1277,0.1341,0.1336,0.1336,0.1258,0.0943,0.0471,-0.0,-0.1379,-0.2369,-0.2561,-0.3258,-0.3819,-0.3972,-0.3984,-0.3987,-0.3891,-0.384,-0.381,-0.3853,-0.3841,-0.3841,-0.3841,-0.3841,-0.3841,-0.3841,-0.3841,-0.3841,-0.3841,-0.3841,-0.3841,-0.3841,-0.3528,-0.3295,-0.3139,-0.2824,-0.2589,-0.2531,-0.2602,-0.2692,-0.2812,-0.2856,-0.2872,-1.2661,-1.2497,-1.2002,-1.0994,-0.9716,-0.9448,-0.9,-0.8415,-0.7842,-0.7526,-0.7265,-0.6806,-0.6675,-0.6749,-0.6679,-0.6647,-0.6736,-0.6478,-0.6359,-0.6301,-0.6212,-0.6013,-0.5805,-0.5374,-0.5012,-0.4782,-0.4292,-0.3553,-0.275,-0.2254,-0.2018,-0.1895,-0.1852,-0.1797,-0.1729,-0.1573,-0.1493,-0.1493,-0.1415,-0.1336,-0.1258,-0.0943,-0.0943,-0.1258,-0.1022,-0.0864,-0.0786,-0.0235,-0.0235,-0.0785,-0.0771,-0.0231,0.094,0.1928,0.2311,0.2111,0.2353,0.2588,0.2668,0.2588,0.251,0.251,0.251,0.251,0.251,0.2353,0.2273,0.22,0.1925,0.1772,0.1583,0.1526,0.1369,0.1341,0.1336,0.1336,0.1336,0.1341,0.103,0.0395,-0.0493,-0.1457,-0.2289,-0.3155,-0.3712,-0.3802,-0.3882,-0.3883,-0.3812,-0.3787,-0.3843,-0.3841,-0.3841,-0.3841,-0.3841,-0.3841,-0.3841,-0.3841,-0.3841,-0.3841,-0.3841,-0.3841,-0.3841,-0.3763,-0.3374,-0.3139,-0.3061,-0.2824,-0.2537,-0.2574,-0.2644,-0.2744,-0.2845,-0.2869,-0.2873,-1.2593,-1.2498,-1.1067,-0.9874,-0.9017,-0.8371,-0.7977,-0.7707,-0.7064,-0.6741,-0.6741,-0.6548,-0.642,-0.6416,-0.642,-0.6451,-0.6462,-0.6409,-0.629,-0.6169,-0.6232,-0.6155,-0.5942,-0.5423,-0.5123,-0.4825,-0.3779,-0.2898,-0.2108,-0.1976,-0.1805,-0.1588,-0.1522,-0.1462,-0.141,-0.1336,-0.1336,-0.1336,-0.1179,-0.1258,-0.11,0.0079,0.0079,-0.0785,-0.0236,0.0314,0.0314,0.0627,0.0705,0.0313,0.047,0.1019,0.196,0.2348,0.2662,0.2902,0.2824,0.2824,0.2982,0.2668,0.251,0.251,0.251,0.251,0.251,0.251,0.2353,0.2196,0.2165,0.2013,0.1739,0.1686,0.1531,0.1341,0.1336,0.1336,0.1336,0.1278,0.1284,0.104,0.0333,-0.0774,-0.2169,-0.3039,-0.3512,-0.3781,-0.395,-0.3885,-0.3863,-0.3808,-0.3849,-0.3841,-0.3841,-0.3841,-0.3841,-0.3841,-0.3841,-0.3841,-0.3841,-0.3763,-0.3841,-0.3841,-0.3841,-0.3684,-0.3295,-0.3061,-0.2982,-0.2855,-0.2662,-0.2634,-0.2704,-0.2797,-0.286,-0.2871,-0.2875,-1.226,-1.156,-1.0309,-0.932,-0.8689,-0.8177,-0.7727,-0.7134,-0.6872,-0.6609,-0.6482,-0.6416,-0.642,-0.642,-0.6284,-0.6376,-0.6531,-0.6199,-0.608,-0.623,-0.6075,-0.5954,-0.5808,-0.493,-0.4432,-0.4199,-0.3149,-0.2445,-0.2019,-0.1755,-0.1561,-0.1513,-0.1386,-0.1325,-0.1334,-0.1336,-0.1336,-0.1179,-0.0236,0.0393,0.0393,0.1099,0.1568,0.1884,0.1255,0.0941,0.0941,0.149,0.1332,0.0548,0.1567,0.2352,0.2668,0.2824,0.2982,0.3061,0.2904,0.2904,0.3061,0.2746,0.2588,0.2746,0.2588,0.251,0.251,0.251,0.2431,0.2362,0.2405,0.2331,0.2063,0.1765,0.1533,0.1343,0.1336,0.1336,0.1338,0.1347,0.1282,0.123,0.0589,-0.051,-0.178,-0.252,-0.2988,-0.3535,-0.3788,-0.3824,-0.381,-0.3779,-0.3841,-0.3841,-0.3841,-0.3841,-0.3841,-0.3841,-0.3841,-0.3841,-0.3763,-0.3684,-0.3684,-0.3606,-0.3606,-0.3452,-0.3139,-0.2989,-0.2915,-0.281,-0.2617,-0.2674,-0.2749,-0.2803,-0.2862,-0.2872,-0.2875,-1.1633,-1.0555,-0.9584,-0.8812,-0.8177,-0.7866,-0.7432,-0.6914,-0.6836,-0.6689,-0.6509,-0.6505,-0.641,-0.6358,-0.6214,-0.6136,-0.6177,-0.5845,-0.5837,-0.601,-0.5637,-0.5445,-0.5312,-0.427,-0.3748,-0.3491,-0.26,-0.2051,-0.1922,-0.1653,-0.1521,-0.1535,-0.1404,-0.1336,-0.1258,-0.1179,-0.0943,-0.0471,0.0707,0.1414,0.1727,0.2353,0.3057,0.3769,0.2901,0.2193,0.2116,0.2414,0.2325,0.1856,0.2613,0.314,0.3222,0.3244,0.3258,0.3182,0.3047,0.3059,0.3139,0.2824,0.2668,0.2746,0.2668,0.2588,0.251,0.2588,0.2588,0.252,0.2544,0.2472,0.2214,0.1992,0.1678,0.1577,0.1493,0.1415,0.1415,0.1425,0.1377,0.1247,0.0662,-0.033,-0.1326,-0.1722,-0.2435,-0.3381,-0.3563,-0.3452,-0.3763,-0.3841,-0.3841,-0.3841,-0.3841,-0.3763,-0.3684,-0.3686,-0.3765,-0.3765,-0.3684,-0.3604,-0.3526,-0.345,-0.3294,-0.3139,-0.2987,-0.2838,-0.271,-0.2679,-0.265,-0.2703,-0.2752,-0.2803,-0.2843,-0.2873,-0.2875,-1.0737,-0.974,-0.8877,-0.8182,-0.7639,-0.74,-0.7155,-0.6984,-0.6995,-0.6872,-0.6724,-0.6672,-0.6364,-0.6176,-0.6013,-0.569,-0.5236,-0.5306,-0.5386,-0.5343,-0.4989,-0.4766,-0.4702,-0.36,-0.299,-0.2914,-0.2117,-0.1777,-0.1818,-0.1673,-0.1615,-0.1564,-0.1334,-0.11,-0.1179,-0.0629,-0.0079,0.0628,0.1335,0.1885,0.2511,0.353,0.4157,0.4474,0.4309,0.3997,0.369,0.3463,0.3351,0.3485,0.3274,0.3218,0.3407,0.3535,0.3491,0.3362,0.3411,0.3444,0.3446,0.3059,0.2746,0.2666,0.2746,0.2901,0.2901,0.2901,0.2824,0.2668,0.2515,0.2433,0.2276,0.2201,0.2046,0.1886,0.1808,0.173,0.1657,0.1603,0.1475,0.1244,0.073,0.0159,-0.0322,-0.081,-0.1685,-0.285,-0.2909,-0.2744,-0.337,-0.3528,-0.3684,-0.3763,-0.3684,-0.3604,-0.3528,-0.3532,-0.3608,-0.3686,-0.3606,-0.3526,-0.3372,-0.3294,-0.3137,-0.2982,-0.2824,-0.2676,-0.2627,-0.2597,-0.2654,-0.2707,-0.2755,-0.2805,-0.2843,-0.2875,-0.2785,-1.0238,-0.9402,-0.8748,-0.8204,-0.7673,-0.7482,-0.744,-0.75,-0.7283,-0.7131,-0.6777,-0.6199,-0.583,-0.5505,-0.5011,-0.455,-0.435,-0.4353,-0.4356,-0.4381,-0.4211,-0.4057,-0.3797,-0.3166,-0.2575,-0.2165,-0.1796,-0.1593,-0.1624,-0.1475,-0.1249,-0.102,-0.0864,-0.0314,0.0393,0.0629,0.1021,0.1648,0.2744,0.3452,0.3686,0.4075,0.4387,0.4465,0.4384,0.4307,0.4231,0.3971,0.3801,0.3637,0.3463,0.3373,0.353,0.3629,0.372,0.3647,0.3509,0.3604,0.3604,0.3294,0.2978,0.3056,0.3366,0.3839,0.4075,0.3839,0.3526,0.3136,0.2901,0.2588,0.2431,0.2431,0.2276,0.1886,0.1887,0.1808,0.1652,0.1504,0.1354,0.1281,0.1109,0.0631,0.0079,-0.0238,-0.0791,-0.1808,-0.1881,-0.1958,-0.2508,-0.2744,-0.2901,-0.3215,-0.3214,-0.337,-0.3372,-0.3295,-0.3374,-0.3452,-0.3372,-0.3292,-0.3137,-0.3059,-0.2902,-0.2824,-0.2668,-0.2605,-0.2555,-0.2601,-0.2661,-0.2721,-0.2775,-0.282,-0.2861,-0.2785,-0.2604,-0.9652,-0.8941,-0.8361,-0.7992,-0.7683,-0.7546,-0.7503,-0.7574,-0.7355,-0.6982,-0.6441,-0.5851,-0.5284,-0.4846,-0.426,-0.3874,-0.3678,-0.3511,-0.3391,-0.3318,-0.3472,-0.3373,-0.3128,-0.2555,-0.2097,-0.1607,-0.115,-0.1005,-0.1019,-0.0706,-0.0392,-0.0078,0.0157,0.0785,0.1727,0.22,0.2669,0.3059,0.3845,0.4394,0.447,0.4465,0.4543,0.4621,0.4621,0.4621,0.4465,0.4387,0.4137,0.3789,0.3989,0.4273,0.4275,0.4225,0.4099,0.4022,0.3789,0.3633,0.3712,0.3631,0.3478,0.3554,0.4121,0.4693,0.5012,0.4618,0.3992,0.3372,0.2981,0.2746,0.2668,0.251,0.2354,0.212,0.2121,0.1963,0.1729,0.1572,0.1415,0.134,0.1337,0.1099,0.0706,0.047,0.0078,-0.0706,-0.0862,-0.1096,-0.1645,-0.1881,-0.2195,-0.251,-0.2666,-0.2901,-0.3137,-0.3139,-0.3061,-0.3061,-0.3139,-0.3059,-0.2902,-0.2824,-0.2746,-0.2668,-0.2588,-0.2616,-0.2567,-0.2621,-0.2679,-0.2737,-0.2694,-0.2644,-0.2583,-0.2422,-0.2155,-0.8969,-0.8441,-0.7802,-0.7574,-0.7517,-0.7485,-0.7329,-0.7199,-0.7105,-0.655,-0.5755,-0.5388,-0.4828,-0.4141,-0.3804,-0.3432,-0.3026,-0.2792,-0.2537,-0.2384,-0.2509,-0.2652,-0.2573,-0.1803,-0.138,-0.1093,-0.0391,0.0078,0.0157,0.0549,0.094,0.1175,0.1803,0.2199,0.2838,0.3862,0.4351,0.4444,0.4592,0.4749,0.482,0.4797,0.4797,0.4956,0.4945,0.4937,0.4854,0.4851,0.4488,0.4011,0.4899,0.5504,0.5574,0.5064,0.4667,0.467,0.4068,0.3843,0.3843,0.4141,0.4213,0.4143,0.4814,0.5455,0.5678,0.5209,0.4363,0.3604,0.3215,0.2981,0.2824,0.2668,0.2511,0.251,0.2433,0.2198,0.1965,0.173,0.1573,0.1493,0.1493,0.1493,0.1257,0.1178,0.0707,0.0157,-0.0078,-0.0313,-0.0862,-0.1176,-0.149,-0.1725,-0.196,-0.2273,-0.2508,-0.2586,-0.251,-0.2824,-0.2824,-0.2588,-0.2668,-0.2589,-0.2588,-0.251,-0.2435,-0.2464,-0.2412,-0.2371,-0.2244,-0.2197,-0.2149,-0.2275,-0.2036,-0.1781,-0.1346,-0.8881,-0.8281,-0.7952,-0.7709,-0.7485,-0.7415,-0.715,-0.6871,-0.6531,-0.5958,-0.5199,-0.4417,-0.3956,-0.347,-0.2846,-0.2452,-0.2243,-0.2038,-0.1993,-0.1796,-0.1339,-0.1505,-0.1689,-0.1007,-0.0546,-0.0313,0.0392,0.094,0.1488,0.1723,0.2352,0.3456,0.3461,0.381,0.4261,0.4513,0.472,0.4777,0.4943,0.5022,0.5089,0.5098,0.506,0.5135,0.5067,0.5257,0.5553,0.5696,0.5163,0.3993,0.5225,0.6331,0.6785,0.593,0.5286,0.514,0.5131,0.491,0.4837,0.4983,0.5128,0.5207,0.5692,0.6268,0.6942,0.6245,0.5448,0.4665,0.4229,0.3599,0.2978,0.2746,0.2668,0.251,0.2431,0.2276,0.2118,0.1963,0.1808,0.173,0.1651,0.1572,0.1493,0.1415,0.1179,0.0942,0.0785,0.0706,0.0078,-0.0157,-0.0314,-0.0784,-0.1098,-0.1489,-0.1803,-0.1881,-0.2117,-0.251,-0.2431,-0.2038,-0.2275,-0.2433,-0.2431,-0.251,-0.2196,-0.2136,-0.199,-0.1851,-0.172,-0.151,-0.1286,-0.1139,-0.0879,-0.0619,-0.0179,-0.846,-0.7758,-0.77,-0.7382,-0.6932,-0.6825,-0.6486,-0.5964,-0.5741,-0.5126,-0.4296,-0.3743,-0.3191,-0.267,-0.2258,-0.1778,-0.1407,-0.1198,-0.091,-0.0536,0.0077,-0.0,-0.0235,0.0157,0.0392,0.0313,0.1331,0.1958,0.235,0.2741,0.3606,0.4171,0.4444,0.4579,0.4789,0.493,0.5072,0.5225,0.5307,0.5379,0.5569,0.5564,0.5758,0.5903,0.5913,0.6179,0.6656,0.6904,0.6235,0.5256,0.6012,0.7062,0.736,0.6527,0.5933,0.5786,0.5664,0.556,0.5637,0.5775,0.5775,0.5718,0.6246,0.6861,0.7033,0.6676,0.5976,0.528,0.4849,0.4194,0.355,0.3117,0.2901,0.2746,0.2668,0.2431,0.2273,0.212,0.1965,0.1886,0.1885,0.1806,0.173,0.165,0.1573,0.1493,0.1493,0.1336,0.1021,0.0943,0.0707,0.0235,-0.0157,-0.0549,-0.0862,-0.1019,-0.1097,-0.1568,-0.1567,-0.1254,-0.1411,-0.1726,-0.1726,-0.1726,-0.1726,-0.1651,-0.1344,-0.1122,-0.0989,-0.0759,-0.0345,-0.0087,0.0176,0.0353,0.0893,-0.7664,-0.7086,-0.7091,-0.665,-0.6022,-0.5902,-0.5474,-0.4791,-0.4608,-0.4046,-0.3326,-0.318,-0.2594,-0.183,-0.1843,-0.136,-0.0378,-0.0231,0.0389,0.0937,0.1484,0.1487,0.1409,0.1488,0.141,0.1175,0.2506,0.2898,0.3132,0.3912,0.4316,0.4508,0.4661,0.4801,0.5191,0.5341,0.5591,0.6005,0.632,0.6492,0.6688,0.6696,0.6881,0.7195,0.7352,0.7431,0.7828,0.7986,0.7529,0.6077,0.727,0.7627,0.7487,0.6875,0.6577,0.6327,0.6087,0.6032,0.6253,0.6382,0.6302,0.5967,0.6781,0.7336,0.7057,0.6706,0.6226,0.5623,0.5219,0.4787,0.4047,0.353,0.3167,0.3011,0.3024,0.2803,0.2423,0.2273,0.2201,0.1965,0.2119,0.2041,0.1963,0.1886,0.1887,0.173,0.173,0.1651,0.1573,0.1493,0.1335,0.102,0.0706,0.0471,0.0157,-0.0157,-0.0157,-0.0313,-0.0313,-0.0157,-0.0157,-0.0392,-0.0549,-0.0706,-0.0863,-0.0785,-0.0472,-0.0241,-0.0165,0.0168,0.0595,0.087,0.1065,0.1336,0.1704,-0.685,-0.6329,-0.6199,-0.5765,-0.5102,-0.4962,-0.4515,-0.3756,-0.3444,-0.3042,-0.2573,-0.2355,-0.189,-0.1335,-0.1107,-0.0529,0.053,0.0928,0.1488,0.2348,0.2662,0.3054,0.3134,0.2896,0.2584,0.2662,0.337,0.3919,0.4073,0.4233,0.4506,0.4821,0.5084,0.5279,0.5678,0.6366,0.6929,0.7212,0.7808,0.8033,0.8107,0.8187,0.8367,0.8606,0.8783,0.8759,0.8668,0.9005,0.9015,0.8583,0.8193,0.7993,0.7586,0.7377,0.7172,0.6953,0.6985,0.6937,0.6813,0.7021,0.7136,0.6759,0.6944,0.727,0.7358,0.7151,0.6728,0.6388,0.6151,0.5496,0.4533,0.3903,0.3493,0.3278,0.3053,0.2996,0.2817,0.2718,0.2588,0.2433,0.2275,0.2195,0.2118,0.2043,0.1965,0.1887,0.1887,0.1887,0.1887,0.1965,0.1806,0.1569,0.1412,0.1178,0.0942,0.0706,0.0705,0.0705,0.0783,0.0862,0.0863,0.0628,0.0392,0.0078,-0.0157,0.0078,0.0471,0.0639,0.0737,0.116,0.1509,0.1715,0.1925,0.2213,0.2332,-0.5846,-0.551,-0.5367,-0.4899,-0.4251,-0.4031,-0.3531,-0.2893,-0.2284,-0.1882,-0.1624,-0.1247,-0.0841,-0.0422,-0.0148,0.0529,0.167,0.2476,0.3052,0.3754,0.4142,0.4457,0.4543,0.446,0.43,0.3992,0.4231,0.4545,0.4623,0.4698,0.4878,0.5187,0.5796,0.628,0.6529,0.7351,0.7827,0.8147,0.8535,0.8878,0.8945,0.9132,0.9517,0.9955,1.029,1.0316,1.0041,1.0062,1.0003,0.9694,0.9122,0.8403,0.7722,0.766,0.7626,0.741,0.7461,0.7456,0.733,0.733,0.7405,0.7274,0.7335,0.7391,0.7403,0.7292,0.7126,0.6865,0.6688,0.6229,0.5332,0.4842,0.4349,0.3923,0.3706,0.3589,0.328,0.2993,0.2902,0.2746,0.2668,0.2668,0.2589,0.2353,0.2356,0.2356,0.2277,0.2277,0.2277,0.2277,0.2199,0.2119,0.2041,0.1884,0.1649,0.1569,0.1568,0.1647,0.1724,0.1803,0.1804,0.1568,0.1254,0.1019,0.0784,0.0942,0.126,0.1442,0.1622,0.1803,0.2077,0.2452,0.2579,0.2532,0.2572,-0.4812,-0.4511,-0.4472,-0.3983,-0.3313,-0.3105,-0.2682,-0.1955,-0.1284,-0.0947,-0.0607,-0.0207,0.0139,0.0706,0.0875,0.1716,0.2884,0.3866,0.4462,0.4846,0.5461,0.5619,0.5625,0.6009,0.6005,0.516,0.501,0.509,0.5243,0.5162,0.5413,0.5833,0.6709,0.7224,0.7415,0.815,0.8846,0.9037,0.937,0.9529,0.9707,0.9902,1.0381,1.0863,1.1205,1.1237,1.0965,1.0835,1.0638,1.0346,0.9929,0.9092,0.8305,0.7899,0.7981,0.7644,0.7625,0.7526,0.7526,0.7526,0.7526,0.7526,0.7526,0.7526,0.7475,0.7353,0.7306,0.7166,0.6999,0.6714,0.6359,0.5821,0.5332,0.4924,0.4725,0.4388,0.3932,0.3537,0.3501,0.2978,0.2865,0.2838,0.2871,0.2809,0.2817,0.2821,0.2663,0.2584,0.2582,0.2585,0.2584,0.2589,0.2512,0.2512,0.2276,0.2119,0.2196,0.2275,0.2431,0.251,0.2589,0.2354,0.204,0.1962,0.1884,0.1885,0.1975,0.2004,0.2186,0.2361,0.2557,0.2691,0.2814,0.2846,0.2882,-0.4201,-0.3439,-0.3457,-0.2975,-0.223,-0.2148,-0.1655,-0.1084,-0.0687,-0.0343,0.0135,0.0338,0.1029,0.1679,0.1829,0.2684,0.4004,0.4878,0.5315,0.5774,0.6384,0.6619,0.7007,0.7391,0.7544,0.7161,0.6321,0.586,0.6163,0.5838,0.6264,0.7321,0.7675,0.7907,0.8582,0.9356,0.9807,1.0023,1.0439,1.0861,1.0969,1.1117,1.1288,1.1449,1.1599,1.1429,1.1054,1.09,1.0767,1.0628,1.0461,1.0064,0.941,0.8795,0.8383,0.8143,0.7861,0.7717,0.7727,0.7591,0.7526,0.7526,0.7526,0.7521,0.7521,0.7526,0.7461,0.7396,0.7265,0.6955,0.644,0.6254,0.5833,0.543,0.5254,0.5154,0.5026,0.4874,0.4349,0.3561,0.3236,0.3126,0.3302,0.3343,0.3293,0.3222,0.3079,0.2931,0.2857,0.2869,0.2884,0.2971,0.2982,0.2982,0.2904,0.2746,0.2668,0.2746,0.2824,0.2824,0.2904,0.2982,0.2826,0.2512,0.2433,0.2354,0.2455,0.2484,0.2563,0.256,0.2778,0.2925,0.2937,0.2947,0.3051,-0.3224,-0.2758,-0.2317,-0.1836,-0.1353,-0.09,-0.0414,0.0067,0.0477,0.096,0.1366,0.1694,0.2269,0.2968,0.3559,0.4538,0.5629,0.6266,0.6619,0.6996,0.7613,0.7766,0.7999,0.8461,0.8461,0.808,0.7314,0.7084,0.7472,0.7061,0.7415,0.8168,0.8836,0.9374,0.9511,1.0218,1.0567,1.0801,1.12,1.1516,1.154,1.1708,1.1763,1.1762,1.1708,1.1522,1.1283,1.1201,1.1105,1.0998,1.1111,1.0896,1.0446,0.9949,0.9304,0.8638,0.8103,0.7847,0.7862,0.7787,0.7717,0.7787,0.7722,0.7787,0.7792,0.7792,0.7722,0.7596,0.7456,0.726,0.7003,0.6863,0.6601,0.6141,0.5939,0.5778,0.5621,0.5529,0.4951,0.428,0.4343,0.438,0.4207,0.4133,0.3856,0.3676,0.3475,0.3334,0.3266,0.3273,0.344,0.3339,0.3352,0.3365,0.3366,0.3294,0.3215,0.3295,0.3203,0.3203,0.3124,0.3117,0.3051,0.2904,0.2824,0.2812,0.2832,0.2853,0.2843,0.2835,0.2959,0.3083,0.31,0.3118,0.3142,-0.2018,-0.1753,-0.1102,-0.0686,-0.0338,0.0277,0.0827,0.1282,0.1895,0.2391,0.2832,0.3351,0.3825,0.447,0.5362,0.6441,0.7571,0.7732,0.7842,0.8223,0.8836,0.8993,0.9064,0.9216,0.9669,0.9734,0.9427,0.8983,0.8537,0.8291,0.8595,0.9322,1.0581,1.0883,1.0489,1.0895,1.1186,1.1254,1.1329,1.149,1.1695,1.1935,1.2075,1.2041,1.1994,1.178,1.1738,1.1771,1.1809,1.1832,1.2003,1.207,1.1458,1.123,1.0554,0.9456,0.8514,0.8208,0.8122,0.8117,0.7982,0.7987,0.7982,0.8057,0.8127,0.8057,0.7922,0.7797,0.7661,0.7587,0.7521,0.7521,0.733,0.7003,0.6732,0.6535,0.6214,0.6079,0.6013,0.5695,0.5749,0.547,0.5089,0.4856,0.4626,0.4556,0.4441,0.4362,0.422,0.3983,0.4017,0.3817,0.3789,0.3809,0.3746,0.3682,0.3684,0.3763,0.3496,0.3319,0.3319,0.3238,0.3242,0.3304,0.3256,0.3324,0.327,0.3137,0.2986,0.2987,0.3141,0.3235,0.3273,0.3296,0.3394,-0.0672,0.0134,0.027,0.0539,0.0877,0.1173,0.1787,0.2691,0.3012,0.356,0.4344,0.5015,0.5411,0.5957,0.6958,0.7609,0.7992,0.8378,0.8761,0.9367,0.9744,1.0271,1.0657,1.0807,1.1391,1.1601,1.1822,1.1093,1.026,0.9728,0.9884,1.0732,1.1267,1.1347,1.1335,1.1694,1.1552,1.1545,1.1626,1.2063,1.2579,1.2781,1.2762,1.2648,1.2296,1.2084,1.2493,1.256,1.2633,1.3046,1.3237,1.3237,1.3064,1.2423,1.2133,1.1263,1.0102,0.8689,0.8635,0.87,0.8436,0.8371,0.8177,0.8187,0.8322,0.8257,0.8052,0.7992,0.7922,0.7917,0.7852,0.7787,0.7661,0.7531,0.7396,0.7326,0.7125,0.6859,0.6789,0.6793,0.6741,0.6199,0.5778,0.5579,0.5431,0.5374,0.5359,0.52,0.5051,0.4745,0.4668,0.4486,0.4448,0.4483,0.4417,0.4373,0.4315,0.4414,0.4146,0.3793,0.3858,0.3913,0.3789,0.3789,0.3836,0.3815,0.3762,0.3557,0.3281,0.3295,0.3606,0.3606,0.3454,0.3549,0.3887,0.1403,0.0537,0.0939,0.1542,0.2144,0.2713,0.352,0.4298,0.4663,0.5042,0.5609,0.6075,0.6662,0.7436,0.8328,0.9316,1.0165,1.0301,1.049,1.1019,1.1533,1.1903,1.2124,1.2492,1.3077,1.3222,1.3361,1.3063,1.2164,1.1777,1.1844,1.2131,1.29,1.3053,1.2432,1.2792,1.2684,1.2656,1.2642,1.3034,1.3498,1.3658,1.365,1.3506,1.315,1.3157,1.3302,1.3375,1.3273,1.3548,1.3852,1.4086,1.3651,1.3165,1.2884,1.1911,1.1083,1.0281,0.9901,0.9919,0.96,0.9204,0.9011,0.9017,0.8835,0.8511,0.8317,0.8252,0.8117,0.8047,0.8047,0.7922,0.7927,0.7857,0.7857,0.7787,0.7787,0.7787,0.7652,0.7657,0.7596,0.7051,0.658,0.641,0.6173,0.5942,0.5844,0.5689,0.5503,0.525,0.5183,0.5281,0.5203,0.524,0.517,0.5111,0.5055,0.5072,0.5064,0.4795,0.4789,0.4826,0.4563,0.4635,0.4846,0.4762,0.4443,0.4132,0.3878,0.3977,0.4229,0.4215,0.4356,0.4616,0.4873,0.3597,0.1936,0.2406,0.3006,0.3671,0.4478,0.5279,0.5939,0.6207,0.6473,0.6928,0.7509,0.8464,0.9389,1.0222,1.1292,1.2606,1.2519,1.2579,1.2945,1.331,1.344,1.3433,1.3795,1.4083,1.4371,1.4442,1.4514,1.4561,1.4316,1.3879,1.3295,1.392,1.4072,1.3673,1.3723,1.3845,1.3655,1.4196,1.4514,1.4736,1.4665,1.4593,1.4442,1.4299,1.4227,1.4371,1.4371,1.4117,1.4387,1.4854,1.5056,1.4356,1.4195,1.3745,1.2915,1.2203,1.1841,1.1406,1.1178,1.0807,1.0351,1.0098,0.9913,0.9454,0.9075,0.8829,0.8894,0.8506,0.8371,0.8247,0.8247,0.8252,0.8182,0.8117,0.8117,0.8117,0.8112,0.8047,0.7857,0.7857,0.7852,0.7451,0.7326,0.7021,0.6613,0.6338,0.6207,0.6062,0.5873,0.5951,0.6113,0.6102,0.6072,0.6102,0.5976,0.5934,0.5759,0.5752,0.5596,0.5448,0.5438,0.5329,0.5496,0.5739,0.5581,0.528,0.4889,0.4614,0.473,0.4941,0.5155,0.5407,0.5668,0.5777,0.5668,0.5533,0.5394,0.546,0.5668,0.6133,0.6593,0.7242,0.7507,0.7802,0.8398,0.9688,1.0994,1.2098,1.2642,1.3281,1.3882,1.386,1.3867,1.3867,1.4004,1.4299,1.4434,1.4649,1.4871,1.5446,1.5658,1.6026,1.6455,1.6349,1.5421,1.4299,1.4903,1.453,1.4378,1.4736,1.495,1.5084,1.5726,1.6096,1.5921,1.5754,1.5675,1.5534,1.5029,1.4816,1.5384,1.5463,1.5517,1.5703,1.5896,1.586,1.5255,1.4959,1.444,1.3811,1.333,1.3033,1.2789,1.1981,1.1142,1.0766,1.073,1.0821,1.0338,0.9958,0.9773,0.9716,0.9326,0.9069,0.8952,0.8829,0.8888,0.8888,0.8882,0.8748,0.8683,0.8495,0.8366,0.8117,0.8117,0.8306,0.8242,0.7982,0.7661,0.7199,0.7068,0.6933,0.6999,0.6862,0.6911,0.6946,0.7,0.6967,0.6989,0.6836,0.6575,0.6395,0.631,0.6015,0.5724,0.5776,0.604,0.6036,0.6192,0.6132,0.612,0.5844,0.5686,0.5567,0.5685,0.5858,0.6091,0.6366,0.6343,0.8709,0.8709,0.889,0.8249,0.7158,0.7618,0.8329,0.9169,0.9308,0.977,1.047,1.1573,1.2778,1.3769,1.389,1.4569,1.5295,1.4927,1.4974,1.5251,1.5525,1.5799,1.6,1.6341,1.6775,1.712,1.7207,1.7157,1.752,1.7706,1.7217,1.6437,1.6289,1.5877,1.5877,1.5948,1.6237,1.6473,1.6954,1.7162,1.7065,1.6899,1.683,1.676,1.6682,1.6464,1.6673,1.6603,1.6585,1.6522,1.6396,1.6116,1.5773,1.5368,1.4845,1.4303,1.3926,1.3787,1.3588,1.2842,1.2151,1.1802,1.1917,1.1939,1.1281,1.0829,1.0773,1.0591,1.0338,1.0015,1.0085,0.9958,0.9894,0.9767,0.9703,0.957,0.9442,0.932,0.9221,0.9174,0.9098,0.9145,0.8958,0.8635,0.8247,0.7857,0.7727,0.7661,0.7657,0.7596,0.7526,0.7461,0.7446,0.7407,0.7367,0.7256,0.7098,0.6941,0.6848,0.6634,0.6483,0.6776,0.6963,0.6813,0.6764,0.6852,0.6895,0.6874,0.666,0.6437,0.6358,0.6488,0.6721,0.7029,0.7104,1.0919,1.0885,1.1253,1.0481,0.9082,0.9342,1.0053,1.078,1.0932,1.1507,1.2485,1.3323,1.4251,1.4964,1.5275,1.5568,1.6492,1.6438,1.6455,1.6784,1.7326,1.7736,1.793,1.82,1.8402,1.8824,1.8767,1.8643,1.8767,1.8556,1.8546,1.8546,1.8365,1.7872,1.7207,1.7354,1.7638,1.7598,1.7548,1.7617,1.7529,1.747,1.747,1.7401,1.7323,1.7323,1.7314,1.7176,1.707,1.6917,1.6692,1.6379,1.5974,1.5487,1.496,1.4538,1.4252,1.4189,1.3941,1.3519,1.3033,1.2797,1.2739,1.2599,1.2182,1.1772,1.1531,1.1549,1.1253,1.1017,1.1017,1.0829,1.0703,1.064,1.0584,1.0451,1.0388,1.0332,1.0327,1.0309,1.0142,0.9901,0.9767,0.9448,0.8952,0.8436,0.7922,0.7857,0.7912,0.7852,0.7731,0.7731,0.769,0.7686,0.7666,0.7541,0.7527,0.7508,0.7414,0.7522,0.7494,0.7601,0.7606,0.7367,0.732,0.7574,0.7527,0.7361,0.7225,0.7107,0.7121,0.7137,0.7389,0.7629,0.7881,1.1968,1.1556,1.2219,1.2035,1.1363,1.1384,1.1633,1.2112,1.257,1.3273,1.4146,1.5306,1.5949,1.6323,1.7001,1.7489,1.7831,1.8193,1.8464,1.867,1.9034,1.9473,1.9628,1.9715,1.9651,1.9912,1.9922,1.9922,2.0095,1.9901,2.0041,2.0193,1.9998,1.9672,1.8566,1.8432,1.824,1.7862,1.7842,1.7998,1.8213,1.8213,1.8164,1.8164,1.8008,1.8056,1.8056,1.792,1.7726,1.7175,1.7456,1.7168,1.6552,1.6201,1.5751,1.5209,1.4874,1.4565,1.4249,1.3752,1.3571,1.3528,1.3397,1.3197,1.3058,1.2728,1.2336,1.2358,1.1935,1.164,1.1586,1.1516,1.1578,1.1516,1.1461,1.1461,1.1399,1.1399,1.1401,1.1318,1.0884,1.0514,1.0508,1.0255,0.9703,0.9069,0.8371,0.8177,0.8425,0.8306,0.8247,0.8132,0.8127,0.7852,0.7847,0.7917,0.7937,0.7987,0.7922,0.7852,0.7892,0.7871,0.7795,0.7761,0.7892,0.8108,0.8017,0.7867,0.7926,0.793,0.7721,0.7739,0.8004,0.8174,0.8413,1.4288,1.4517,1.4828,1.4896,1.4604,1.3545,1.3554,1.4419,1.5219,1.5946,1.6655,1.7536,1.8056,1.8425,1.87,1.9158,1.9542,1.9885,2.0208,2.0769,2.0753,2.0952,2.1136,2.1062,2.088,2.0899,2.0974,2.1031,2.0782,2.1049,2.076,2.076,2.1215,2.0719,2.0128,1.9901,1.9921,2.0146,2.0186,2.0272,2.0565,2.0215,1.9899,1.9868,1.9425,1.9233,1.9166,1.8957,1.8522,1.7876,1.8141,1.8216,1.765,1.7327,1.6427,1.6059,1.571,1.5254,1.501,1.4647,1.4172,1.3992,1.3838,1.3735,1.3666,1.3467,1.3321,1.3191,1.2826,1.2658,1.2728,1.2605,1.2536,1.2536,1.2474,1.2482,1.2482,1.2421,1.2382,1.2352,1.2011,1.1469,1.1267,1.1205,1.071,1.0465,0.9894,0.9512,0.9633,0.9204,0.8958,0.8722,0.8592,0.8247,0.8102,0.8436,0.8431,0.8431,0.8242,0.7982,0.7972,0.828,0.8189,0.8252,0.8414,0.8647,0.8727,0.8748,0.886,0.8798,0.8687,0.8432,0.8357,0.861,0.8861,1.6602,1.6828,1.7092,1.7335,1.7181,1.5581,1.5624,1.6911,1.7809,1.8513,1.8966,1.9497,1.9725,1.99,2.0246,2.0388,2.0841,2.1354,2.1681,2.2336,2.2497,2.2915,2.3123,2.2965,2.3505,2.3282,2.3207,2.3158,2.2899,2.269,2.2518,2.2347,2.2335,2.2323,2.1818,2.1514,2.0831,2.085,2.0698,2.0941,2.1085,2.1107,2.0951,2.0796,2.0564,2.0322,2.0322,2.0084,1.9738,1.9115,1.9126,1.9591,1.9313,1.8451,1.7508,1.7201,1.6618,1.6175,1.5989,1.5806,1.5226,1.4394,1.4296,1.4148,1.4088,1.3899,1.3838,1.3718,1.3666,1.3597,1.3536,1.3415,1.3407,1.3407,1.3346,1.3346,1.3277,1.3216,1.3103,1.3066,1.283,1.2359,1.2089,1.2027,1.1779,1.1663,1.1476,1.1163,1.0717,1.0218,0.9728,0.9554,0.9432,0.928,0.9139,0.9215,0.9145,0.8941,0.8748,0.8683,0.8947,0.9309,0.9022,0.8812,0.9227,0.9496,0.96,0.9697,0.9755,0.9845,0.9789,0.9416,0.8938,0.9098,0.9401,1.8782,1.8501,1.8887,1.9184,1.9052,1.7754,1.7989,1.9436,2.012,2.0546,2.0905,2.1292,2.1401,2.0986,2.1436,2.1717,2.1847,2.2702,2.3158,2.3604,2.4254,2.5006,2.5524,2.5748,2.5686,2.6391,2.6364,2.5421,2.552,2.5322,2.4938,2.4498,2.4478,2.4419,2.3906,2.3303,2.2428,2.2163,2.2036,2.2218,2.2488,2.1771,2.1863,2.1804,2.16,2.1444,2.1369,2.1158,2.0796,2.0486,2.0445,2.1337,2.1279,2.0059,1.921,1.8375,1.7459,1.7175,1.6944,1.6821,1.6321,1.5395,1.4828,1.4569,1.4524,1.4593,1.4488,1.4378,1.4258,1.4198,1.407,1.413,1.4181,1.4181,1.4121,1.4061,1.3992,1.3872,1.364,1.3467,1.3233,1.2972,1.2903,1.2842,1.2712,1.2536,1.2351,1.1988,1.1538,1.1094,1.0737,1.0581,1.0454,1.0434,1.0308,1.0098,0.9977,0.9761,0.9952,0.9952,1.0205,1.0142,0.9824,0.9761,1.0155,1.0408,1.0724,1.0793,1.073,1.0768,1.083,1.0461,0.9985,0.9845,0.9986,2.0503,2.0588,2.0811,2.0886,2.0934,2.1068,2.1406,2.1619,2.1822,2.24,2.3449,2.3638,2.3449,2.3566,2.3929,2.4151,2.4491,2.4991,2.5422,2.5795,2.5949,2.6297,2.664,2.693,2.7056,2.7189,2.7266,2.7312,2.6886,2.7051,2.7067,2.6682,2.6475,2.6574,2.6414,2.6235,2.5276,2.4515,2.4258,2.4253,2.4403,2.4201,2.4111,2.3837,2.3365,2.3276,2.3179,2.3191,2.2805,2.2104,2.242,2.2982,2.2346,2.0819,1.9494,1.8508,1.8087,1.7984,1.7765,1.749,1.7081,1.6695,1.6296,1.6004,1.5841,1.5596,1.5294,1.5138,1.5059,1.5059,1.4991,1.4991,1.505,1.505,1.4991,1.4923,1.4864,1.4746,1.4579,1.4285,1.4045,1.3863,1.3803,1.3631,1.3433,1.3329,1.3155,1.285,1.2421,1.1973,1.1593,1.1505,1.138,1.1296,1.1017,1.0808,1.0696,1.071,1.0899,1.0961,1.0766,1.064,1.0521,1.0654,1.1052,1.1498,1.1934,1.1934,1.1685,1.1794,1.1876,1.1465,1.1082,1.0974,1.0947,2.2076,2.2429,2.2548,2.2579,2.2721,2.356,2.3991,2.4035,2.3884,2.4395,2.5162,2.5259,2.5301,2.5162,2.5398,2.5661,2.5757,2.6009,2.6357,2.6627,2.7493,2.7832,2.7945,2.8448,2.8999,2.884,2.8841,2.9073,2.8453,2.7938,2.7839,2.7969,2.8154,2.824,2.8097,2.8053,2.808,2.7414,2.6987,2.6898,2.6657,2.6505,2.6183,2.5809,2.5215,2.5077,2.5036,2.4924,2.4363,2.365,2.3909,2.3759,2.3256,2.2116,2.0643,1.9747,1.9436,1.9347,1.919,1.8768,1.8335,1.7989,1.7872,1.7767,1.7264,1.686,1.6352,1.5976,1.6012,1.6026,1.5911,1.5853,1.5911,1.5968,1.5901,1.5833,1.5786,1.5738,1.5498,1.5273,1.5008,1.4815,1.4669,1.4442,1.4332,1.4392,1.4401,1.4222,1.3623,1.2956,1.2573,1.2274,1.2151,1.2074,1.1858,1.1843,1.1866,1.1896,1.1903,1.1841,1.1461,1.1524,1.171,1.1802,1.1902,1.2328,1.2752,1.2691,1.2538,1.268,1.2881,1.2772,1.2348,1.1934,1.2016,2.3508,2.3926,2.4081,2.4122,2.4385,2.5168,2.592,2.6572,2.6155,2.624,2.652,2.6534,2.6505,2.6567,2.6776,2.6724,2.6907,2.7107,2.7328,2.7183,2.8634,2.9241,2.9885,3.0929,3.1069,3.1456,3.1471,3.0836,3.014,2.9717,2.9522,2.9075,2.9415,2.9589,2.9566,2.9978,2.9997,2.9624,2.895,2.8432,2.7284,2.6736,2.6343,2.5868,2.5673,2.5659,2.5605,2.555,2.5425,2.5067,2.4655,2.4518,2.3784,2.3339,2.198,2.1205,2.0623,2.0484,2.0333,2.0029,1.9495,1.9265,1.9224,1.9259,1.8809,1.791,1.7247,1.6939,1.6949,1.6845,1.6765,1.6866,1.6922,1.6877,1.6821,1.6754,1.6708,1.6518,1.6224,1.5958,1.5706,1.5541,1.5487,1.5255,1.5138,1.5381,1.5332,1.5225,1.4874,1.4034,1.3726,1.3399,1.3347,1.3347,1.3347,1.3278,1.3235,1.3199,1.3139,1.3078,1.2992,1.3009,1.3094,1.3066,1.2977,1.3075,1.3371,1.331,1.335,1.3555,1.3719,1.3958,1.3692,1.3277,1.3119,2.4486,2.4404,2.4954,2.508,2.4997,2.6218,2.6862,2.7094,2.8045,2.8259,2.8176,2.8192,2.8192,2.8112,2.8227,2.8259,2.8355,2.8227,2.8622,2.8987,2.994,3.0438,3.0959,3.2042,3.2707,3.2833,3.271,3.2517,3.206,3.1875,3.1913,3.1928,3.1905,3.1705,3.1357,3.1858,3.1753,3.1306,3.0902,2.9877,2.854,2.7832,2.7343,2.7188,2.7122,2.6967,2.6916,2.6878,2.6814,2.6547,2.5516,2.4445,2.3057,2.2733,2.2179,2.1434,2.1369,2.1272,2.1175,2.0966,2.0476,1.9999,1.9952,2.0335,2.01,1.8964,1.8286,1.8028,1.7844,1.7752,1.7722,1.7886,1.7941,1.7831,1.7733,1.7678,1.7623,1.7302,1.6959,1.6695,1.6433,1.6339,1.6249,1.613,1.6016,1.5901,1.5786,1.568,1.5738,1.5264,1.5148,1.4895,1.4805,1.4746,1.4638,1.4442,1.4264,1.4332,1.4323,1.4392,1.4392,1.4222,1.4052,1.4072,1.4047,1.4063,1.4045,1.3951,1.4031,1.4302,1.4597,1.4872,1.5043,1.4731,1.459,2.5259,2.5648,2.6135,2.6234,2.6345,2.7718,2.8352,2.8577,2.9755,3.0194,2.987,2.948,2.9257,2.9257,2.9361,2.9419,2.9419,2.9435,2.9271,2.9761,3.0856,3.131,3.2095,3.3045,3.3427,3.3652,3.3633,3.3531,3.3598,3.3601,3.3553,3.3633,3.3633,3.3499,3.3171,3.3224,3.2908,3.239,3.2289,3.1214,2.9715,2.9228,2.8647,2.8537,2.8286,2.814,2.7944,2.7845,2.7645,2.6834,2.5502,2.4307,2.3359,2.3274,2.2875,2.2419,2.2175,2.2081,2.1927,2.171,2.1418,2.111,2.0801,2.1251,2.1536,2.0502,1.9837,1.9533,1.9052,1.8898,1.8845,1.8898,1.891,1.8804,1.8951,1.8992,1.8768,1.846,1.8084,1.7752,1.7575,1.7543,1.7424,1.7279,1.7157,1.6989,1.6765,1.6708,1.6652,1.6574,1.6472,1.6322,1.6161,1.5624,1.5126,1.5079,1.508,1.5206,1.5449,1.5157,1.4991,1.504,1.501,1.4987,1.4956,1.4899,1.489,1.4999,1.5042,1.5345,1.5568,1.5807,1.6008,1.6222,1.6234,2.5941,2.704,2.7291,2.7365,2.7604,2.9074,2.9744,2.9996,3.1063,3.1629,3.1493,3.0484,3.0074,2.9908,2.9892,2.9832,2.9919,3.0107,2.9962,3.0642,3.1748,3.2536,3.3276,3.3945,3.4376,3.4511,3.4479,3.4431,3.4479,3.4496,3.4496,3.4479,3.4397,3.4235,3.3941,3.3452,3.2867,3.2364,3.1949,3.1263,3.0794,3.0518,2.9795,2.9354,2.9182,2.8997,2.8748,2.8544,2.8278,2.7037,2.5535,2.4447,2.3926,2.394,2.3748,2.3422,2.3245,2.3172,2.2965,2.2725,2.2615,2.2427,2.2095,2.2094,2.2394,2.2104,2.1402,2.0904,2.0421,1.9952,1.9888,1.985,1.9798,1.9759,1.994,2.0029,1.9703,1.9441,1.9143,1.8798,1.8727,1.8661,1.8536,1.8387,1.829,1.8116,1.8061,1.8018,1.7963,1.7918,1.7841,1.7611,1.7368,1.6726,1.5974,1.5934,1.614,1.613,1.6265,1.5864,1.57,1.5921,1.6029,1.5928,1.5879,1.6155,1.6277,1.6427,1.6457,1.6556,1.6515,1.6795,1.713,1.7378,1.7687,2.6526,2.7678,2.7844,2.7918,2.7975,2.8929,2.9644,3.0225,3.1009,3.1683,3.2125,3.2127,3.1662,3.0935,3.0965,3.0948,3.0914,3.1061,3.1837,3.2655,3.33,3.4088,3.4799,3.5275,3.5535,3.552,3.5414,3.5448,3.5442,3.534,3.5174,3.514,3.4425,3.406,3.3524,3.309,3.2757,3.2357,3.2219,3.1813,3.1033,3.0599,2.9955,2.9677,2.9677,2.9572,2.9467,2.9406,2.8801,2.7621,2.622,2.5199,2.4715,2.4663,2.4524,2.4348,2.4199,2.3991,2.3764,2.3741,2.3687,2.3156,2.2918,2.3198,2.3281,2.3088,2.2555,2.2275,2.1716,2.1015,2.0832,2.0733,2.0696,2.0547,2.0584,2.0434,2.0195,2.0116,1.9942,1.977,1.9711,1.9647,1.9515,1.9423,1.9371,1.9267,1.9162,1.9121,1.9016,1.9109,1.915,1.8827,1.8499,1.8098,1.7501,1.7266,1.7323,1.7256,1.7179,1.6944,1.6877,1.7011,1.7041,1.7234,1.7546,1.7889,1.7965,1.7959,1.8057,1.8071,1.7724,1.781,1.8197,1.8522,1.8747]},{"header":{"parameterUnit":"m.s-1","parameterCategory":1,"la1":31.0,"la2":29.5877,"lo1":-88.7671,"lo2":-86.6584,"dy":0.0162,"dx":0.0185,"nx":115,"ny":88,"refTime":"2023-03-01T18:00:00:Z","depth":0,"parameterNumber":3,"parameterNumberName":"V-component_of_WINDS"},"data":[0.0,0.0,0.0,0.0,0.0,0.0,0.0,0.0,0.0,0.0,0.0,0.0,0.0,0.0,0.0,0.0,0.0,0.0,0.0,0.0,0.0,0.0,0.0,0.0,0.0,0.0,0.0,0.0,0.0,0.0,0.0,0.0,0.0,0.0,0.0,0.0,0.0,0.0,0.0,0.0,0.0,0.0,0.0,0.0,0.0,0.0,0.0,0.0,0.0,0.0,0.0,0.0,0.0,0.0,0.0,0.0,0.0,0.0,0.0,0.0,0.0,0.0,0.0,0.0,0.0,0.0,0.0,0.0,0.0,0.0,0.0,0.0,0.0,0.0,0.0,0.0,0.0,0.0,0.0,0.0,0.0,0.0,0.0,0.0,0.0,0.0,0.0,0.0,0.0,0.0,0.0,0.0,0.0,0.0,0.0,0.0,0.0,0.0,0.0,0.0,0.0,0.0,0.0,0.0,0.0,0.0,0.0,0.0,0.0,0.0,0.0,0.0,0.0,0.0,0.0,0.0,0.0,0.0,0.0,0.0,0.0,0.0,0.0,0.0,0.0,0.0,0.0,0.0,0.0,0.0,0.0,0.0,0.0,0.0,0.0,0.0,0.0,0.0,0.0,0.0,0.0,0.0,0.0,0.0,0.0,0.0,0.0,0.0,0.0,0.0,0.0,0.0,0.0,0.0,0.0,0.0,0.0,0.0,0.0,0.0,0.0,0.0,0.0,0.0,0.0,0.0,0.0,0.0,0.0,0.0,0.0,0.0,0.0,0.0,0.0,0.0,0.0,0.0,0.0,0.0,0.0,0.0,0.0,0.0,0.0,0.0,0.0,0.0,0.0,0.0,0.0,0.0,0.0,0.0,0.0,0.0,0.0,0.0,0.0,0.0,0.0,0.0,0.0,0.0,0.0,0.0,0.0,0.0,0.0,0.0,0.0,0.0,0.0,0.0,0.0,0.0,0.0,0.0,0.0,0.0,0.0,0.0,0.0,0.0,0.0,0.0,0.0,0.0,0.0,0.0,0.0,0.0,0.0,0.0,0.0,0.0,0.0,0.0,0.0,0.0,0.0,0.0,0.0,0.0,0.0,0.0,0.0,0.0,0.0,0.0,0.0,0.0,0.0,0.0,0.0,0.0,0.0,0.0,0.0,0.0,0.0,0.0,0.0,0.0,0.0,0.0,0.0,0.0,0.0,0.0,0.0,0.0,0.0,0.0,0.0,0.0,0.0,0.0,0.0,0.0,0.0,0.0,0.0,0.0,0.0,0.0,0.0,0.0,0.0,0.0,0.0,0.0,0.0,0.0,0.0,0.0,0.0,0.0,0.0,0.0,0.0,0.0,0.0,0.0,0.0,0.0,0.0,0.0,0.0,0.0,0.0,0.0,0.0,0.0,0.0,0.0,0.0,0.0,0.0,0.0,0.0,0.0,0.0,0.0,0.0,0.0,0.0,0.0,0.0,0.0,0.0,0.0,0.0,0.0,0.0,0.0,0.0,0.0,0.0,0.0,0.0,0.0,0.0,0.0,0.0,0.0,0.0,0.0,0.0,0.0,0.0,0.0,0.0,0.0,0.0,0.0,0.0,0.0,0.0,0.0,0.0,0.0,0.0,0.0,0.0,0.0,0.0,0.0,0.0,0.0,0.0,0.0,0.0,0.0,0.0,0.0,0.0,0.0,0.0,0.0,0.0,0.0,0.0,0.0,0.0,0.0,0.0,0.0,0.0,0.0,0.0,0.0,0.0,0.0,0.0,0.0,0.0,0.0,0.0,0.0,0.0,0.0,0.0,0.0,0.0,0.0,0.0,0.0,0.0,0.0,0.0,0.0,0.0,0.0,0.0,0.0,0.0,0.0,0.0,0.0,0.0,0.0,0.0,0.0,0.0,0.0,0.0,0.0,0.0,0.0,0.0,0.0,0.0,0.0,0.0,0.0,0.0,0.0,0.0,0.0,0.0,0.0,0.0,0.0,0.0,0.0,0.0,0.0,0.0,0.0,0.0,0.0,0.0,0.0,0.0,0.0,0.0,0.0,0.0,0.0,0.0,0.0,0.0,0.0,0.0,0.0,0.0,0.0,0.0,0.0,0.0,0.0,0.0,0.0,0.0,0.0,0.0,0.0,0.0,0.0,0.0,0.0,0.0,0.0,0.0,0.0,0.0,0.0,0.0,0.0,0.0,0.0,0.0,0.0,0.0,0.0,0.0,0.0,0.0,0.0,0.0,0.0,0.0,0.0,0.0,0.0,0.0,0.0,0.0,0.0,0.0,0.0,0.0,0.0,0.0,0.0,0.0,0.0,0.0,0.0,0.0,0.0,0.0,0.0,0.0,0.0,0.0,0.0,0.0,0.0,0.0,0.0,0.0,0.0,0.0,0.0,0.0,0.0,0.0,0.0,0.0,0.0,0.0,0.0,0.0,0.0,0.0,0.0,0.0,0.0,0.0,0.0,0.0,0.0,0.0,0.0,0.0,0.0,0.0,0.0,0.0,0.0,0.0,0.0,0.0,0.0,0.0,0.0,0.0,0.0,0.0,0.0,0.0,0.0,0.0,0.0,0.0,0.0,0.0,0.0,0.0,0.0,0.0,0.0,0.0,0.0,0.0,0.0,0.0,0.0,0.0,0.0,0.0,0.0,0.0,0.0,0.0,0.0,0.0,0.0,0.0,0.0,0.0,0.0,0.0,0.0,0.0,0.0,0.0,0.0,0.0,0.0,0.0,0.0,0.0,0.0,0.0,0.0,0.0,0.0,0.0,0.0,0.0,0.0,0.0,0.0,0.0,0.0,0.0,0.0,0.0,0.0,0.0,0.0,0.0,0.0,0.0,0.0,0.0,0.0,0.0,0.0,0.0,0.0,0.0,0.0,0.0,0.0,0.0,0.0,0.0,0.0,0.0,0.0,0.0,0.0,0.0,0.0,0.0,0.0,0.0,0.0,0.0,0.0,0.0,0.0,0.0,0.0,0.0,0.0,0.0,0.0,0.0,0.0,0.0,0.0,0.0,0.0,0.0,0.0,0.0,0.0,0.0,0.0,0.0,0.0,0.0,0.0,0.0,0.0,0.0,0.0,0.0,0.0,0.0,0.0,0.0,0.0,0.0,0.0,0.0,0.0,0.0,0.0,0.0,0.0,0.0,0.0,0.0,0.0,0.0,0.0,0.0,0.0,0.0,0.0,0.0,0.0,0.0,0.0,0.0,0.0,0.0,0.0,0.0,0.0,0.0,0.0,0.0,0.0,0.0,0.0,0.0,0.0,0.0,0.0,0.0,0.0,0.0,0.0,0.0,0.0,0.0,0.0,0.0,0.0,0.0,0.0,0.0,0.0,0.0,0.0,0.0,0.0,0.0,0.0,0.0,0.0,0.0,0.0,0.0,0.0,0.0,0.0,0.0,0.0,0.0,0.0,0.0,0.0,0.0,0.0,0.0,0.0,0.0,0.0,0.0,0.0,0.0,0.0,0.0,0.0,0.0,0.0,0.0,0.0,0.0,0.0,0.0,0.0,0.0,0.0,0.0,0.0,0.0,0.0,0.0,0.0,0.0,0.0,0.0,0.0,0.0,0.0,0.0,0.0,0.0,0.0,0.0,0.0,0.0,0.0,0.0,0.0,0.0,0.0,0.0,0.0,0.0,0.0,0.0,0.0,0.0,0.0,0.0,0.0,0.0,0.0,0.0,0.0,0.0,0.0,0.0,0.0,0.0,0.0,0.0,0.0,0.0,0.0,0.0,0.0,0.0,0.0,0.0,0.0,0.0,0.0,0.0,0.0,0.0,0.0,0.0,0.0,0.0,0.0,0.0,0.0,0.0,0.0,0.0,0.0,0.0,0.0,0.0,0.0,0.0,0.0,0.0,0.0,0.0,0.0,0.0,0.0,0.0,0.0,0.0,0.0,0.0,0.0,0.0,0.0,0.0,0.0,0.0,0.0,0.0,0.0,0.0,0.0,0.0,0.0,0.0,0.0,0.0,0.0,0.0,0.0,0.0,0.0,0.0,0.0,0.0,0.0,0.0,0.0,0.0,0.0,0.0,0.0,0.0,0.0,0.0,0.0,0.0,0.0,0.0,0.0,0.0,0.0,0.0,0.0,0.0,0.0,0.0,0.0,0.0,0.0,0.0,0.0,0.0,0.0,0.0,0.0,0.0,0.0,0.0,0.0,0.0,0.0,0.0,0.0,0.0,0.0,0.0,0.0,0.0,0.0,0.0,0.0,0.0,0.0,0.0,0.0,0.0,0.0,0.0,0.0,0.0,0.0,0.0,0.0,0.0,0.0,0.0,0.0,-1.2187,0.0,0.0,0.0,0.0,0.0,0.0,0.0,0.0,0.0,0.0,0.0,0.0,0.0,0.0,0.0,0.0,0.0,0.0,0.0,0.0,0.0,0.0,0.0,0.0,0.0,0.0,0.0,0.0,0.0,0.0,0.0,0.0,0.0,0.0,0.0,0.0,0.0,0.0,0.0,0.0,0.0,0.0,0.0,0.0,0.0,0.0,0.0,0.0,0.0,0.0,0.0,0.0,0.0,0.0,0.0,0.0,0.0,0.0,0.0,0.0,0.0,0.0,0.0,0.0,0.0,0.0,0.0,0.0,0.0,0.0,0.0,0.0,0.0,0.0,0.0,0.0,0.0,0.0,0.0,0.0,0.0,0.0,0.0,0.0,0.0,0.0,0.0,0.0,0.0,0.0,0.0,0.0,0.0,0.0,0.0,0.0,0.0,0.0,0.0,0.0,0.0,0.0,0.0,0.0,0.0,0.0,0.0,0.0,0.0,0.0,-1.315,-1.3226,-1.3468,-1.3705,-1.3963,0.0,0.0,0.0,0.0,0.0,0.0,0.0,0.0,0.0,0.0,0.0,0.0,0.0,0.0,0.0,0.0,0.0,0.0,0.0,0.0,0.0,0.0,0.0,0.0,0.0,0.0,0.0,0.0,0.0,0.0,0.0,0.0,0.0,0.0,0.0,0.0,0.0,0.0,0.0,0.0,0.0,0.0,0.0,0.0,0.0,0.0,0.0,0.0,0.0,0.0,0.0,0.0,0.0,0.0,0.0,0.0,0.0,0.0,0.0,0.0,0.0,0.0,0.0,0.0,0.0,0.0,0.0,0.0,0.0,0.0,0.0,0.0,0.0,0.0,0.0,0.0,0.0,0.0,0.0,0.0,0.0,0.0,0.0,0.0,0.0,0.0,0.0,0.0,0.0,0.0,0.0,0.0,0.0,0.0,0.0,0.0,0.0,0.0,0.0,0.0,0.0,0.0,0.0,0.0,0.0,0.0,0.0,0.0,0.0,0.0,0.0,0.0,-1.5143,-1.5538,-1.5973,0.0,0.0,0.0,0.0,0.0,0.0,0.0,0.0,0.0,0.0,0.0,0.0,0.0,0.0,0.0,0.0,0.0,0.0,0.0,0.0,0.0,0.0,0.0,0.0,0.0,0.0,0.0,0.0,0.0,0.0,0.0,0.0,0.0,0.0,0.0,0.0,0.0,0.0,0.0,0.0,0.0,0.0,0.0,0.0,0.0,0.0,0.0,0.0,0.0,0.0,0.0,0.0,0.0,0.0,0.0,0.0,0.0,0.0,0.0,0.0,0.0,0.0,0.0,0.0,0.0,0.0,0.0,0.0,0.0,0.0,0.0,0.0,0.0,0.0,0.0,0.0,0.0,0.0,0.0,0.0,0.0,0.0,0.0,0.0,0.0,0.0,0.0,0.0,0.0,0.0,0.0,0.0,0.0,0.0,0.0,0.0,0.0,0.0,0.0,0.0,0.0,0.0,0.0,0.0,0.0,0.0,0.0,0.0,0.0,0.0,-1.6606,-1.6896,-1.7125,0.0,-1.7729,0.0,0.0,0.0,0.0,0.0,0.0,0.0,0.0,0.0,0.0,0.0,0.0,0.0,0.0,0.0,0.0,0.0,0.0,0.0,0.0,0.0,0.0,0.0,0.0,0.0,0.0,0.0,0.0,0.0,0.0,0.0,0.0,0.0,0.0,0.0,0.0,0.0,0.0,0.0,0.0,0.0,0.0,0.0,0.0,0.0,0.0,0.0,0.0,0.0,0.0,0.0,0.0,0.0,0.0,0.0,0.0,0.0,0.0,0.0,0.0,0.0,0.0,0.0,0.0,0.0,0.0,0.0,0.0,0.0,0.0,0.0,0.0,0.0,0.0,0.0,0.0,0.0,0.0,0.0,0.0,0.0,0.0,0.0,0.0,0.0,0.0,0.0,0.0,0.0,0.0,0.0,0.0,0.0,0.0,0.0,0.0,0.0,0.0,0.0,0.0,0.0,0.0,0.0,0.0,0.0,0.0,0.0,0.0,0.0,0.0,-1.837,-1.8808,-1.9276,-1.9618,0.0,0.0,0.0,0.0,0.0,0.0,0.0,0.0,0.0,0.0,0.0,0.0,0.0,0.0,0.0,0.0,0.0,0.0,0.0,0.0,0.0,0.0,0.0,0.0,0.0,0.0,0.0,0.0,0.0,0.0,0.0,0.0,0.0,0.0,0.0,0.0,0.0,0.0,0.0,0.0,0.0,0.0,0.0,0.0,0.0,0.0,0.0,0.0,0.0,0.0,0.0,0.0,0.0,0.0,0.0,0.0,0.0,0.0,0.0,0.0,0.0,0.0,0.0,0.0,0.0,0.0,0.0,0.0,0.0,0.0,0.0,0.0,0.0,0.0,0.0,0.0,0.0,0.0,0.0,0.0,0.0,0.0,0.0,0.0,0.0,0.0,0.0,0.0,0.0,0.0,0.0,0.0,0.0,0.0,0.0,0.0,0.0,0.0,0.0,0.0,0.0,0.0,0.0,0.0,0.0,0.0,0.0,0.0,0.0,0.0,-1.9535,-2.0131,-2.0734,-2.1253,-2.1596,-2.1665,0.0,0.0,0.0,0.0,0.0,0.0,0.0,0.0,0.0,0.0,0.0,0.0,0.0,0.0,0.0,0.0,0.0,0.0,0.0,0.0,0.0,0.0,0.0,0.0,0.0,0.0,0.0,0.0,0.0,0.0,0.0,0.0,0.0,0.0,0.0,0.0,0.0,0.0,0.0,0.0,0.0,0.0,0.0,0.0,0.0,0.0,0.0,0.0,0.0,0.0,0.0,0.0,0.0,0.0,0.0,0.0,0.0,0.0,0.0,0.0,0.0,0.0,0.0,0.0,0.0,0.0,0.0,0.0,0.0,0.0,0.0,0.0,0.0,0.0,0.0,0.0,0.0,0.0,0.0,0.0,0.0,0.0,0.0,0.0,0.0,0.0,0.0,0.0,0.0,0.0,0.0,0.0,0.0,0.0,0.0,0.0,0.0,0.0,0.0,0.0,0.0,0.0,0.0,0.0,0.0,0.0,0.0,0.0,-2.0677,-2.1201,-2.1933,-2.2816,-2.3029,-2.3182,0.0,0.0,0.0,0.0,0.0,0.0,0.0,0.0,0.0,0.0,0.0,0.0,0.0,0.0,0.0,0.0,0.0,0.0,0.0,0.0,0.0,0.0,0.0,0.0,0.0,0.0,0.0,0.0,0.0,0.0,0.0,0.0,0.0,0.0,0.0,0.0,0.0,0.0,0.0,0.0,0.0,0.0,0.0,0.0,0.0,0.0,0.0,0.0,0.0,0.0,0.0,0.0,0.0,0.0,0.0,0.0,0.0,0.0,0.0,0.0,0.0,0.0,0.0,0.0,0.0,0.0,0.0,0.0,0.0,0.0,0.0,0.0,0.0,0.0,0.0,0.0,0.0,0.0,0.0,0.0,0.0,0.0,0.0,0.0,0.0,0.0,0.0,0.0,0.0,0.0,0.0,0.0,0.0,0.0,0.0,0.0,0.0,0.0,0.0,0.0,0.0,0.0,0.0,0.0,0.0,0.0,0.0,0.0,0.0,-2.1944,-2.2561,-2.315,-2.3744,-2.3857,-2.4045,0.0,0.0,0.0,0.0,0.0,0.0,0.0,0.0,0.0,0.0,0.0,0.0,0.0,0.0,0.0,0.0,0.0,0.0,0.0,0.0,0.0,0.0,0.0,0.0,0.0,0.0,0.0,0.0,0.0,0.0,0.0,0.0,0.0,0.0,0.0,0.0,0.0,0.0,0.0,0.0,0.0,0.0,0.0,0.0,0.0,0.0,0.0,0.0,0.0,0.0,0.0,0.0,0.0,0.0,0.0,0.0,0.0,0.0,0.0,0.0,0.0,0.0,0.0,0.0,0.0,0.0,0.0,0.0,0.0,0.0,0.0,0.0,0.0,0.0,0.0,0.0,0.0,0.0,0.0,0.0,0.0,0.0,0.0,0.0,0.0,0.0,0.0,0.0,0.0,0.0,0.0,0.0,0.0,0.0,0.0,0.0,0.0,0.0,0.0,0.0,0.0,0.0,0.0,0.0,0.0,0.0,0.0,0.0,0.0,-2.3173,0.0,-2.4153,-2.4496,-2.4488,-2.4628,0.0,0.0,0.0,0.0,0.0,0.0,0.0,0.0,0.0,0.0,0.0,0.0,0.0,0.0,0.0,0.0,0.0,0.0,0.0,0.0,0.0,0.0,0.0,0.0,0.0,0.0,0.0,0.0,0.0,0.0,0.0,0.0,0.0,0.0,0.0,0.0,0.0,0.0,0.0,0.0,0.0,0.0,0.0,0.0,0.0,0.0,0.0,0.0,0.0,0.0,0.0,0.0,0.0,0.0,0.0,0.0,0.0,0.0,0.0,0.0,0.0,0.0,0.0,0.0,0.0,0.0,0.0,0.0,0.0,0.0,0.0,0.0,0.0,0.0,0.0,0.0,0.0,0.0,0.0,0.0,0.0,0.0,0.0,0.0,0.0,0.0,0.0,0.0,0.0,0.0,0.0,0.0,0.0,0.0,0.0,0.0,0.0,0.0,0.0,0.0,0.0,0.0,0.0,0.0,0.0,0.0,0.0,0.0,-2.3785,-2.4381,-2.4654,-2.4896,-2.5174,-2.5003,-2.4992,0.0,0.0,0.0,0.0,0.0,0.0,0.0,0.0,0.0,0.0,0.0,0.0,0.0,0.0,0.0,0.0,0.0,0.0,0.0,0.0,0.0,0.0,0.0,0.0,0.0,0.0,0.0,0.0,0.0,0.0,0.0,0.0,0.0,0.0,0.0,0.0,0.0,0.0,0.0,0.0,0.0,0.0,0.0,0.0,0.0,0.0,0.0,0.0,0.0,0.0,0.0,0.0,0.0,0.0,0.0,0.0,0.0,0.0,0.0,0.0,0.0,0.0,0.0,0.0,0.0,0.0,0.0,0.0,0.0,0.0,0.0,0.0,0.0,0.0,0.0,0.0,0.0,0.0,0.0,0.0,0.0,0.0,0.0,0.0,0.0,0.0,0.0,0.0,0.0,0.0,0.0,0.0,0.0,0.0,0.0,0.0,0.0,0.0,0.0,0.0,0.0,0.0,0.0,0.0,0.0,0.0,0.0,0.0,0.0,-2.4877,-2.5004,-2.5182,-2.5379,-2.5292,-2.529,0.0,0.0,0.0,0.0,0.0,0.0,0.0,0.0,0.0,0.0,0.0,0.0,0.0,0.0,0.0,0.0,0.0,0.0,0.0,0.0,0.0,0.0,0.0,0.0,0.0,0.0,0.0,0.0,0.0,0.0,0.0,0.0,0.0,0.0,0.0,0.0,0.0,0.0,0.0,0.0,0.0,0.0,0.0,0.0,0.0,0.0,0.0,0.0,0.0,0.0,0.0,0.0,0.0,0.0,0.0,0.0,0.0,0.0,0.0,0.0,0.0,0.0,0.0,0.0,0.0,0.0,0.0,0.0,0.0,0.0,0.0,0.0,0.0,0.0,0.0,0.0,0.0,0.0,0.0,0.0,0.0,0.0,0.0,0.0,0.0,0.0,0.0,0.0,0.0,0.0,0.0,0.0,0.0,0.0,0.0,0.0,0.0,0.0,0.0,0.0,0.0,0.0,0.0,0.0,0.0,0.0,0.0,0.0,0.0,-2.5662,-2.5724,-2.5831,-2.6015,-2.5943,-2.5796,-2.5533,0.0,0.0,0.0,0.0,0.0,0.0,0.0,0.0,0.0,0.0,0.0,0.0,0.0,0.0,0.0,0.0,0.0,0.0,0.0,0.0,0.0,0.0,0.0,0.0,0.0,0.0,0.0,0.0,0.0,0.0,0.0,0.0,0.0,0.0,0.0,0.0,0.0,0.0,0.0,0.0,0.0,0.0,0.0,0.0,0.0,0.0,0.0,0.0,0.0,0.0,0.0,0.0,0.0,0.0,0.0,0.0,0.0,0.0,0.0,0.0,0.0,0.0,0.0,0.0,0.0,0.0,0.0,0.0,0.0,0.0,0.0,0.0,0.0,0.0,0.0,0.0,0.0,0.0,0.0,0.0,0.0,0.0,0.0,0.0,0.0,0.0,0.0,0.0,0.0,0.0,0.0,0.0,0.0,0.0,0.0,0.0,0.0,0.0,0.0,0.0,0.0,0.0,0.0,0.0,0.0,0.0,0.0,0.0,-2.6825,-2.6871,-2.6929,-2.6932,-2.6816,-2.6437,0.0,0.0,0.0,0.0,0.0,0.0,0.0,0.0,0.0,0.0,0.0,0.0,0.0,0.0,0.0,0.0,0.0,0.0,0.0,0.0,0.0,0.0,0.0,0.0,0.0,0.0,0.0,0.0,0.0,0.0,0.0,0.0,0.0,0.0,0.0,0.0,0.0,0.0,0.0,0.0,0.0,0.0,0.0,0.0,0.0,0.0,0.0,0.0,0.0,0.0,0.0,0.0,0.0,0.0,0.0,0.0,0.0,0.0,0.0,0.0,0.0,0.0,0.0,0.0,0.0,0.0,0.0,0.0,0.0,0.0,0.0,0.0,0.0,0.0,0.0,0.0,0.0,0.0,0.0,0.0,0.0,0.0,0.0,0.0,0.0,0.0,0.0,0.0,0.0,0.0,0.0,0.0,0.0,0.0,0.0,0.0,0.0,0.0,0.0,0.0,0.0,0.0,0.0,0.0,0.0,0.0,0.0,0.0,0.0,-2.9351,-2.9267,-2.8681,-2.7602,-2.7019,-2.6638,0.0,0.0,0.0,0.0,0.0,0.0,0.0,0.0,0.0,0.0,0.0,0.0,0.0,0.0,0.0,0.0,0.0,0.0,0.0,0.0,0.0,0.0,0.0,0.0,0.0,0.0,0.0,0.0,0.0,0.0,0.0,0.0,0.0,0.0,0.0,0.0,0.0,0.0,0.0,0.0,0.0,0.0,0.0,0.0,0.0,0.0,0.0,0.0,0.0,0.0,0.0,0.0,0.0,0.0,0.0,0.0,0.0,0.0,0.0,0.0,0.0,0.0,0.0,0.0,0.0,0.0,0.0,0.0,0.0,0.0,0.0,0.0,0.0,0.0,0.0,0.0,0.0,0.0,0.0,0.0,0.0,0.0,0.0,0.0,0.0,0.0,0.0,0.0,0.0,0.0,0.0,0.0,0.0,0.0,0.0,0.0,0.0,0.0,0.0,0.0,0.0,0.0,0.0,0.0,0.0,0.0,0.0,0.0,-2.8898,-3.0138,-3.0384,-3.0052,-2.9123,-2.8129,-2.7248,0.0,0.0,0.0,0.0,0.0,0.0,0.0,0.0,0.0,0.0,0.0,0.0,0.0,0.0,0.0,0.0,0.0,0.0,0.0,0.0,0.0,0.0,0.0,0.0,0.0,0.0,0.0,0.0,0.0,0.0,0.0,0.0,0.0,0.0,0.0,0.0,0.0,0.0,0.0,0.0,0.0,0.0,0.0,0.0,0.0,0.0,0.0,0.0,0.0,0.0,0.0,0.0,0.0,0.0,0.0,0.0,0.0,0.0,0.0,0.0,0.0,0.0,0.0,0.0,0.0,0.0,0.0,0.0,0.0,0.0,0.0,0.0,0.0,0.0,0.0,0.0,0.0,0.0,0.0,0.0,0.0,0.0,0.0,0.0,0.0,0.0,0.0,0.0,0.0,0.0,0.0,0.0,0.0,0.0,0.0,0.0,0.0,0.0,0.0,0.0,0.0,0.0,0.0,0.0,0.0,0.0,0.0,0.0,-2.9455,-2.9914,-3.0762,-3.1089,-3.0847,-2.951,-2.8041,0.0,0.0,0.0,0.0,0.0,0.0,0.0,0.0,0.0,0.0,0.0,0.0,0.0,0.0,0.0,0.0,0.0,0.0,0.0,0.0,0.0,0.0,0.0,0.0,0.0,0.0,0.0,0.0,0.0,0.0,0.0,0.0,0.0,0.0,0.0,0.0,0.0,0.0,0.0,0.0,0.0,0.0,0.0,0.0,0.0,0.0,0.0,0.0,0.0,0.0,0.0,0.0,0.0,0.0,0.0,0.0,0.0,0.0,0.0,0.0,0.0,0.0,0.0,0.0,0.0,0.0,0.0,0.0,0.0,0.0,0.0,0.0,0.0,0.0,0.0,0.0,0.0,0.0,0.0,0.0,0.0,0.0,0.0,0.0,0.0,0.0,0.0,0.0,0.0,0.0,0.0,0.0,0.0,0.0,0.0,0.0,0.0,0.0,0.0,0.0,0.0,0.0,0.0,0.0,0.0,0.0,0.0,0.0,-3.0633,-3.075,-3.1448,-3.1461,-3.0766,-2.9393,-2.8195,0.0,0.0,0.0,0.0,0.0,0.0,0.0,0.0,0.0,0.0,0.0,0.0,0.0,0.0,0.0,0.0,0.0,0.0,0.0,0.0,0.0,0.0,0.0,0.0,0.0,0.0,0.0,0.0,0.0,0.0,0.0,0.0,0.0,0.0,0.0,0.0,0.0,0.0,0.0,0.0,0.0,0.0,0.0,0.0,0.0,0.0,0.0,0.0,-2.5034,0.0,0.0,0.0,0.0,0.0,0.0,0.0,0.0,0.0,0.0,0.0,0.0,0.0,0.0,0.0,0.0,0.0,0.0,0.0,0.0,0.0,0.0,0.0,0.0,0.0,0.0,0.0,0.0,0.0,0.0,0.0,0.0,0.0,0.0,0.0,0.0,0.0,0.0,0.0,0.0,0.0,0.0,0.0,0.0,0.0,0.0,0.0,0.0,0.0,0.0,0.0,0.0,0.0,0.0,0.0,0.0,0.0,0.0,0.0,-3.0711,-3.0727,-3.1381,-3.1329,-3.0535,-2.9494,-2.8441,0.0,0.0,0.0,0.0,0.0,0.0,0.0,0.0,0.0,0.0,0.0,0.0,0.0,0.0,0.0,0.0,0.0,0.0,0.0,0.0,0.0,0.0,0.0,0.0,0.0,0.0,0.0,0.0,0.0,0.0,0.0,0.0,0.0,0.0,0.0,0.0,0.0,0.0,0.0,0.0,0.0,0.0,0.0,0.0,0.0,0.0,0.0,0.0,0.0,0.0,0.0,0.0,0.0,0.0,0.0,0.0,0.0,0.0,0.0,0.0,0.0,0.0,0.0,0.0,0.0,0.0,0.0,0.0,0.0,0.0,0.0,0.0,0.0,0.0,0.0,0.0,0.0,0.0,0.0,0.0,0.0,0.0,0.0,0.0,0.0,0.0,0.0,0.0,0.0,0.0,0.0,0.0,0.0,0.0,0.0,0.0,0.0,0.0,0.0,0.0,0.0,0.0,0.0,0.0,0.0,0.0,0.0,-2.9363,-3.0317,-3.0189,-3.0833,-3.0803,-3.0073,-2.9576,-2.8628,-2.7103,0.0,0.0,0.0,0.0,0.0,0.0,0.0,0.0,0.0,0.0,0.0,0.0,0.0,0.0,0.0,0.0,0.0,0.0,0.0,0.0,0.0,0.0,0.0,0.0,0.0,0.0,0.0,0.0,0.0,0.0,0.0,0.0,0.0,0.0,0.0,0.0,0.0,0.0,-2.3176,-2.4076,0.0,0.0,0.0,0.0,0.0,0.0,0.0,0.0,-2.5863,0.0,0.0,0.0,0.0,0.0,0.0,0.0,0.0,0.0,0.0,0.0,0.0,0.0,0.0,0.0,0.0,0.0,0.0,0.0,0.0,0.0,0.0,0.0,0.0,0.0,0.0,0.0,0.0,0.0,0.0,0.0,0.0,0.0,0.0,0.0,0.0,0.0,0.0,0.0,0.0,0.0,0.0,0.0,0.0,0.0,0.0,0.0,0.0,0.0,0.0,0.0,0.0,0.0,0.0,0.0,0.0,-2.7191,-2.9237,-2.9936,-2.9172,-2.974,-2.9682,-2.9004,-2.903,-2.8319,-2.6812,0.0,0.0,0.0,0.0,0.0,0.0,0.0,0.0,0.0,0.0,0.0,0.0,0.0,0.0,0.0,0.0,0.0,0.0,0.0,0.0,0.0,0.0,0.0,0.0,0.0,0.0,0.0,0.0,0.0,0.0,0.0,0.0,0.0,0.0,0.0,0.0,0.0,0.0,0.0,-2.538,-2.5468,0.0,0.0,0.0,0.0,0.0,0.0,0.0,0.0,-2.7306,0.0,0.0,0.0,0.0,0.0,0.0,0.0,0.0,0.0,0.0,0.0,0.0,0.0,0.0,0.0,0.0,0.0,0.0,0.0,0.0,0.0,0.0,0.0,0.0,0.0,0.0,0.0,0.0,0.0,0.0,0.0,0.0,0.0,0.0,0.0,0.0,0.0,0.0,0.0,0.0,0.0,0.0,0.0,0.0,0.0,0.0,0.0,0.0,0.0,0.0,0.0,0.0,0.0,0.0,0.0,-2.7943,-2.9394,-2.974,-2.896,-2.9432,-2.9347,-2.8681,-2.8707,-2.8059,0.0,0.0,0.0,0.0,0.0,0.0,0.0,0.0,0.0,0.0,0.0,0.0,0.0,0.0,0.0,0.0,0.0,0.0,0.0,0.0,0.0,0.0,0.0,0.0,0.0,0.0,0.0,0.0,0.0,0.0,0.0,0.0,0.0,0.0,0.0,0.0,0.0,0.0,0.0,0.0,-2.6197,-2.6361,-2.7344,0.0,0.0,0.0,0.0,0.0,0.0,-2.8218,-2.904,0.0,0.0,0.0,0.0,0.0,0.0,0.0,0.0,0.0,0.0,0.0,0.0,0.0,0.0,0.0,0.0,0.0,0.0,0.0,0.0,0.0,0.0,0.0,0.0,0.0,0.0,0.0,0.0,0.0,0.0,0.0,0.0,0.0,0.0,0.0,0.0,0.0,0.0,0.0,0.0,0.0,0.0,0.0,0.0,0.0,0.0,0.0,0.0,0.0,0.0,0.0,0.0,0.0,0.0,0.0,-2.8485,-2.9348,-2.9479,-2.8949,-2.9184,-2.9124,-2.8612,-2.8565,-2.7924,0.0,0.0,0.0,0.0,0.0,0.0,0.0,0.0,0.0,0.0,0.0,0.0,0.0,0.0,0.0,0.0,0.0,0.0,0.0,0.0,0.0,0.0,0.0,0.0,0.0,0.0,0.0,0.0,0.0,0.0,0.0,0.0,0.0,0.0,0.0,0.0,0.0,0.0,0.0,0.0,0.0,-2.7342,-2.8286,-2.8281,0.0,0.0,0.0,0.0,-2.7404,-2.9497,0.0,0.0,0.0,0.0,0.0,0.0,0.0,0.0,0.0,0.0,0.0,0.0,0.0,0.0,0.0,0.0,0.0,0.0,0.0,0.0,0.0,0.0,0.0,0.0,0.0,0.0,0.0,0.0,0.0,0.0,0.0,0.0,0.0,0.0,0.0,0.0,0.0,0.0,0.0,0.0,0.0,0.0,0.0,0.0,0.0,0.0,0.0,0.0,0.0,0.0,0.0,0.0,0.0,0.0,0.0,0.0,-2.8053,-2.8691,-2.9022,-2.898,-2.8706,-2.8531,-2.8492,-2.8676,-2.8049,0.0,0.0,0.0,0.0,0.0,0.0,0.0,0.0,0.0,0.0,0.0,0.0,0.0,0.0,0.0,0.0,0.0,0.0,0.0,0.0,0.0,0.0,0.0,0.0,0.0,0.0,0.0,0.0,0.0,0.0,0.0,0.0,0.0,0.0,0.0,0.0,0.0,0.0,0.0,0.0,0.0,-2.8259,-2.9133,-2.854,-2.8016,0.0,0.0,-2.7939,-2.8025,-3.0367,0.0,0.0,0.0,0.0,0.0,0.0,0.0,0.0,0.0,0.0,0.0,0.0,0.0,0.0,0.0,0.0,0.0,0.0,0.0,0.0,0.0,0.0,0.0,0.0,0.0,0.0,0.0,0.0,0.0,0.0,0.0,0.0,0.0,0.0,0.0,0.0,0.0,0.0,0.0,0.0,0.0,0.0,0.0,0.0,0.0,0.0,0.0,0.0,0.0,0.0,0.0,0.0,0.0,0.0,0.0,-2.7848,-2.8858,-2.9021,-2.9058,-2.8991,-2.8705,-2.8594,-2.8637,-2.8594,-2.7882,0.0,0.0,0.0,0.0,0.0,0.0,0.0,0.0,0.0,0.0,0.0,0.0,0.0,0.0,0.0,0.0,0.0,0.0,0.0,0.0,0.0,0.0,0.0,0.0,0.0,0.0,0.0,0.0,0.0,0.0,0.0,0.0,0.0,0.0,0.0,0.0,0.0,0.0,0.0,0.0,0.0,0.0,-2.9906,-2.9592,0.0,0.0,0.0,-2.943,-2.9308,0.0,0.0,0.0,0.0,0.0,0.0,0.0,0.0,0.0,0.0,0.0,0.0,0.0,0.0,0.0,0.0,0.0,0.0,0.0,0.0,0.0,0.0,0.0,0.0,0.0,0.0,0.0,0.0,0.0,0.0,0.0,0.0,0.0,0.0,0.0,0.0,0.0,0.0,0.0,0.0,0.0,0.0,0.0,0.0,0.0,0.0,0.0,0.0,0.0,0.0,0.0,0.0,0.0,0.0,0.0,0.0,0.0,-2.9548,-2.9323,-2.9112,-2.8994,-2.8881,-2.8791,-2.8767,-2.8644,0.0,0.0,0.0,0.0,0.0,0.0,0.0,0.0,0.0,0.0,0.0,0.0,0.0,0.0,0.0,0.0,0.0,0.0,0.0,0.0,0.0,0.0,0.0,0.0,0.0,0.0,0.0,-2.6018,0.0,0.0,0.0,0.0,0.0,0.0,0.0,0.0,0.0,0.0,0.0,0.0,0.0,0.0,-2.9747,-3.0395,-3.0275,-3.0164,0.0,0.0,-3.0318,-3.0456,-3.0022,-3.0186,0.0,0.0,0.0,0.0,0.0,0.0,0.0,0.0,0.0,0.0,0.0,0.0,0.0,0.0,0.0,0.0,0.0,0.0,0.0,0.0,0.0,0.0,0.0,0.0,0.0,0.0,0.0,0.0,0.0,0.0,0.0,0.0,0.0,0.0,0.0,0.0,0.0,0.0,0.0,0.0,0.0,0.0,0.0,0.0,0.0,0.0,0.0,0.0,0.0,0.0,0.0,0.0,0.0,0.0,-2.7994,-2.9526,-2.9277,-2.9085,-2.9017,-2.9044,-2.9062,-2.8994,-2.9021,-2.8268,0.0,0.0,0.0,0.0,0.0,0.0,0.0,0.0,0.0,0.0,0.0,0.0,0.0,0.0,0.0,0.0,0.0,0.0,0.0,0.0,0.0,0.0,0.0,0.0,0.0,0.0,0.0,0.0,0.0,0.0,0.0,0.0,0.0,0.0,0.0,0.0,0.0,0.0,0.0,0.0,0.0,-3.0351,-3.0409,-3.0177,-2.9992,0.0,-2.9952,-3.0243,-3.1092,-3.0359,-2.9758,-2.9942,0.0,0.0,0.0,0.0,0.0,0.0,0.0,0.0,0.0,0.0,0.0,0.0,0.0,0.0,0.0,0.0,0.0,0.0,0.0,0.0,0.0,0.0,0.0,0.0,0.0,0.0,0.0,0.0,0.0,0.0,0.0,0.0,0.0,0.0,0.0,0.0,0.0,0.0,0.0,0.0,0.0,0.0,0.0,0.0,0.0,0.0,0.0,0.0,0.0,0.0,0.0,0.0,0.0,-2.7919,-2.9318,-2.9225,-2.913,-2.9122,-2.913,-2.9134,-2.913,-2.9134,-2.8639,0.0,0.0,0.0,0.0,0.0,0.0,0.0,0.0,0.0,0.0,0.0,0.0,0.0,0.0,0.0,0.0,0.0,0.0,0.0,0.0,0.0,0.0,0.0,0.0,0.0,0.0,0.0,0.0,-2.8178,-2.8415,-2.8945,0.0,0.0,0.0,0.0,0.0,0.0,0.0,0.0,0.0,0.0,-3.0945,-3.0414,-3.0557,0.0,0.0,-2.9829,-2.9908,-3.0264,-2.9908,-2.9588,-2.9737,-3.0053,0.0,0.0,0.0,0.0,0.0,0.0,0.0,0.0,0.0,0.0,0.0,0.0,0.0,0.0,0.0,0.0,0.0,0.0,0.0,0.0,0.0,0.0,0.0,0.0,0.0,0.0,0.0,0.0,0.0,0.0,0.0,0.0,0.0,0.0,0.0,0.0,0.0,0.0,0.0,0.0,0.0,0.0,0.0,0.0,0.0,0.0,0.0,0.0,0.0,0.0,0.0,0.0,-2.7978,-2.9576,-2.9296,-2.9259,-2.9535,-2.9322,-2.9218,-2.9218,-2.92,-2.887,0.0,0.0,0.0,0.0,0.0,0.0,0.0,0.0,0.0,0.0,0.0,0.0,0.0,0.0,0.0,0.0,0.0,0.0,0.0,0.0,0.0,0.0,0.0,0.0,0.0,0.0,0.0,0.0,-2.8981,-2.9209,-2.9823,0.0,0.0,0.0,0.0,0.0,0.0,0.0,0.0,0.0,0.0,-3.1287,-3.0436,-3.0591,-3.0582,-2.9964,-2.9775,-2.972,-2.9645,-2.9607,-2.9607,-2.9682,0.0,0.0,0.0,0.0,0.0,0.0,0.0,0.0,0.0,0.0,0.0,0.0,0.0,0.0,0.0,0.0,0.0,0.0,0.0,0.0,0.0,0.0,0.0,0.0,0.0,0.0,0.0,-2.2898,0.0,0.0,-2.4137,0.0,0.0,0.0,0.0,0.0,0.0,0.0,0.0,0.0,0.0,0.0,0.0,0.0,0.0,0.0,0.0,0.0,0.0,0.0,0.0,0.0,0.0,-2.8241,-3.0423,-2.954,-2.9425,-3.0236,-2.9562,-2.92,-2.92,-2.9262,-2.8931,-2.8137,0.0,0.0,0.0,0.0,0.0,0.0,0.0,0.0,0.0,0.0,0.0,0.0,0.0,0.0,0.0,0.0,0.0,0.0,0.0,0.0,0.0,0.0,0.0,0.0,0.0,0.0,-3.0606,-3.0717,-3.0702,0.0,0.0,0.0,0.0,0.0,0.0,0.0,0.0,0.0,-3.0761,-3.1179,-3.1296,-3.047,-3.0128,-3.0056,-2.9874,-2.981,-2.9739,-2.9587,-2.9663,-2.9701,0.0,0.0,0.0,0.0,0.0,0.0,0.0,0.0,0.0,0.0,0.0,0.0,0.0,0.0,0.0,0.0,0.0,0.0,0.0,0.0,0.0,0.0,0.0,0.0,0.0,0.0,0.0,-2.5,-2.5019,0.0,0.0,0.0,0.0,0.0,0.0,0.0,0.0,0.0,0.0,0.0,-2.7075,-2.7305,0.0,0.0,0.0,0.0,0.0,0.0,0.0,0.0,0.0,0.0,0.0,0.0,-2.9514,-3.0814,-3.0324,-3.0253,-3.0724,-2.9823,-2.9344,-2.9326,-2.9365,-2.9057,-2.8409,0.0,0.0,0.0,0.0,0.0,0.0,0.0,0.0,0.0,0.0,0.0,0.0,0.0,0.0,0.0,0.0,0.0,0.0,0.0,0.0,0.0,0.0,0.0,0.0,0.0,-3.0481,0.0,0.0,0.0,0.0,0.0,0.0,0.0,0.0,0.0,0.0,0.0,-3.2074,-3.2305,-3.3026,-3.3179,-3.2289,-3.243,-3.2401,0.0,0.0,0.0,0.0,0.0,0.0,0.0,0.0,0.0,0.0,0.0,0.0,0.0,0.0,-3.331,-3.3122,-3.3208,-3.3291,-3.3329,0.0,0.0,0.0,0.0,0.0,0.0,0.0,0.0,0.0,0.0,0.0,0.0,0.0,0.0,-2.5934,-2.5703,-2.6116,0.0,0.0,0.0,0.0,0.0,0.0,0.0,0.0,-2.7467,-2.7862,-2.7881,-2.8118,-2.8219,0.0,-2.8214,-2.7946,0.0,0.0,0.0,0.0,0.0,0.0,0.0,0.0,-3.0265,-3.133,-3.0782,-3.0735,-3.1235,-3.0081,-2.9451,-2.9531,-2.9589,-2.9419,-2.903,-2.9311,-2.9025,0.0,0.0,0.0,0.0,0.0,0.0,0.0,0.0,0.0,0.0,0.0,0.0,0.0,0.0,0.0,0.0,0.0,0.0,0.0,0.0,0.0,0.0,0.0,-3.1249,0.0,0.0,0.0,0.0,0.0,0.0,0.0,0.0,0.0,-3.3307,-3.3063,-3.2943,-3.3128,-3.3916,-3.4129,-3.3229,0.0,0.0,0.0,0.0,0.0,0.0,0.0,-3.3034,-3.2845,-3.2562,-3.2483,-3.2819,-3.3227,-3.3707,-3.4339,0.0,0.0,-3.403,-3.4065,-3.4166,-3.416,-3.4664,-3.4905,-3.434,-3.4661,-3.4859,0.0,0.0,0.0,0.0,0.0,0.0,0.0,0.0,-2.5508,-2.5716,0.0,-2.5918,0.0,0.0,0.0,0.0,-2.5435,-2.6252,0.0,0.0,-2.7528,-2.79,-2.7953,-2.867,-2.904,-2.9034,-2.904,-2.904,-2.8977,-2.8248,0.0,0.0,0.0,0.0,0.0,0.0,-3.049,-3.1879,-3.1009,-3.0928,-3.1761,-3.0317,-2.9608,-2.9784,-2.9921,-2.9988,-3.0007,-3.0795,-3.0575,-2.906,-2.9792,0.0,0.0,0.0,0.0,0.0,0.0,0.0,0.0,0.0,0.0,0.0,0.0,0.0,0.0,0.0,0.0,0.0,0.0,0.0,0.0,-3.2127,0.0,0.0,0.0,0.0,0.0,0.0,0.0,0.0,0.0,-3.3407,-3.3451,-3.4012,-3.4182,-3.3325,0.0,0.0,0.0,0.0,-3.2809,-3.2819,-3.2454,-3.2241,-3.2392,-3.3639,-3.4112,-3.2657,0.0,0.0,-3.3669,-3.4613,-3.5234,-3.5334,-3.5484,-3.5566,-3.5531,-3.5639,-3.5801,-3.5801,-3.5898,-3.5937,-3.5878,-3.5947,-3.5946,-2.5282,0.0,0.0,0.0,0.0,-2.5781,-2.6433,-2.6767,-2.7252,-2.6972,-2.6191,-2.6558,0.0,0.0,0.0,0.0,0.0,0.0,-2.7711,-2.8337,-2.9173,-2.9583,-2.9583,-2.978,-2.9849,-2.9855,-2.9803,-2.9775,-2.9775,-2.9606,-2.8867,-2.7597,0.0,0.0,0.0,0.0,-3.1675,-3.1952,-3.1696,-3.1397,-3.1107,-3.019,-2.9735,-2.9782,-2.9921,-3.0034,-3.0071,-3.0954,-3.1264,-3.0898,-3.1143,0.0,0.0,0.0,0.0,0.0,0.0,0.0,0.0,0.0,0.0,0.0,0.0,0.0,0.0,0.0,0.0,0.0,0.0,0.0,-3.2966,-3.3033,-3.2775,0.0,0.0,0.0,0.0,0.0,0.0,0.0,0.0,0.0,-3.5079,-3.4727,-3.4645,0.0,0.0,-3.5309,-3.5048,-3.4889,-3.4725,-3.4573,-3.4296,0.0,-3.4092,-3.4452,-3.4604,-3.4187,-3.4245,-3.4412,-3.4727,-3.5522,-3.6129,-3.6162,-3.6795,-3.7095,-3.6505,-3.6571,-3.6713,-3.6798,-3.7654,-3.8268,-3.7813,-3.8024,-3.817,-2.6799,-2.6326,-2.5721,-2.5483,-2.5558,-2.6077,-2.6576,-2.6995,-2.7001,-2.6539,-2.5742,-2.6247,-2.5946,-2.5101,-2.5531,0.0,0.0,0.0,-2.8083,-2.8937,-2.9526,-2.996,-3.0234,-3.0185,-3.0171,-3.0185,-3.0142,-3.0128,-3.0142,-3.0185,-2.9627,-2.8536,0.0,-2.9768,-3.0351,-3.1655,-3.2392,-3.2495,-3.2235,-3.1902,-3.1476,-3.0516,-2.9996,-3.0007,-3.0104,-3.018,-3.0228,-3.1098,-3.145,-3.1207,-3.1513,-3.1306,0.0,0.0,0.0,0.0,0.0,0.0,0.0,0.0,0.0,0.0,0.0,-3.1895,-3.1348,0.0,0.0,0.0,-3.2924,-3.3487,-3.4347,-3.4094,0.0,0.0,0.0,0.0,0.0,0.0,0.0,-3.1864,-3.4983,-3.7097,-3.6861,-3.637,-3.6093,-3.625,-3.6551,-3.6755,-3.6746,0.0,-3.6511,-3.6334,-3.5512,-3.5133,-3.572,-3.5244,-3.4809,-3.4849,-3.5039,-3.516,-3.5212,-3.5714,-3.6063,-3.614,-3.6631,-3.6902,-3.6376,-3.6726,-3.7129,-3.7121,-3.7899,-3.8494,-3.8377,-3.8705,-3.8764,-2.7785,-2.7679,-2.6282,-2.57,-2.5683,-2.5667,-2.5686,-2.5665,-2.565,-2.5151,-2.4487,-2.5447,-2.587,-2.5926,-2.6864,0.0,-2.7371,-2.7528,-2.8075,-2.8912,-2.9039,-2.9486,-3.0185,-3.0123,-3.0142,-3.0185,-3.0123,-3.0123,-3.0185,-3.0185,-3.0142,-3.0019,-3.0124,-3.0509,-3.112,-3.1969,-3.2637,-3.3098,-3.2505,-3.2245,-3.2301,-3.0989,-3.0304,-3.0304,-3.0367,-3.0398,-3.0417,-3.1237,-3.1333,-3.0571,-3.1275,-3.1361,-3.0645,0.0,0.0,0.0,0.0,0.0,0.0,0.0,0.0,0.0,0.0,0.0,0.0,0.0,0.0,-3.3503,-3.4298,0.0,-3.5912,-3.5145,0.0,0.0,0.0,-3.3902,-3.4622,-3.5566,-3.5522,-3.3886,0.0,0.0,-3.8469,-3.8403,-3.8074,-3.722,-3.7732,-3.8214,-3.821,-3.8041,-3.7973,-3.7744,-3.6283,-3.5685,-3.6956,-3.5983,-3.4956,-3.4846,-3.5018,-3.5168,-3.5219,-3.5484,-3.556,-3.5603,-3.5747,-3.5902,-3.5753,-3.6578,-3.7163,-3.7109,-3.7316,-3.7638,-3.8377,-3.8549,-3.8554,-2.8612,-2.8594,-2.8278,-2.7787,-2.7258,-2.7322,-2.7282,-2.7224,-2.6641,-2.6272,-2.6046,-2.6291,-2.6445,-2.6505,-2.6952,-2.747,-2.8087,-2.8301,-2.8882,-2.9699,-2.9837,-2.9994,-3.0123,-3.0128,-3.0113,-3.0117,-3.0094,-3.0109,-3.0123,-3.019,-3.0218,-3.0226,-3.0213,-3.0524,-3.1168,-3.1398,-3.1571,-3.1708,-3.1536,-3.1232,-3.0751,-3.0439,-3.0304,-3.0304,-3.0367,-3.0398,-3.0398,-3.1256,-3.1602,-3.141,-3.1642,-3.1686,-3.1495,-3.0092,0.0,0.0,0.0,0.0,0.0,0.0,0.0,0.0,0.0,-3.2109,-3.2109,0.0,-3.3685,0.0,-3.5171,-3.5757,-3.5919,-3.5162,0.0,0.0,-3.5026,-3.5377,-3.558,-3.73,-3.8143,-3.7293,-3.842,-3.9066,-3.8455,-3.8917,-3.8966,-3.8132,-3.816,-3.8276,-3.8285,-3.8202,-3.808,-3.792,-3.7466,-3.7198,-3.728,-3.6556,-3.5626,-3.4982,-3.502,-3.5126,-3.5126,-3.5822,-3.6325,-3.6363,-3.7049,-3.7297,-3.6735,-3.6981,-3.7157,-3.7254,-3.8132,-3.9052,-3.9291,-3.9723,-4.0122,-2.8839,-2.8839,-2.897,-2.8741,-2.8301,-2.7974,-2.7625,-2.7218,-2.6838,-2.6452,-2.6098,-2.6854,-2.7211,-2.7313,-2.7806,-2.8275,-2.8744,-2.902,-2.942,-2.9907,-3.0113,-3.0171,-3.0094,-3.0094,-3.0098,-3.0098,-3.0098,-3.0128,-3.0157,-3.0171,-3.0213,-3.0247,-3.0209,-3.04,-3.0791,-3.1161,-3.1477,-3.1775,-3.1504,-3.1002,-3.0272,-3.0299,-3.0336,-3.0348,-3.0379,-3.0398,-3.0398,-3.0887,-3.116,-3.116,-3.1235,-3.1274,-3.1291,-3.044,-2.9952,0.0,0.0,0.0,0.0,0.0,0.0,0.0,0.0,0.0,0.0,0.0,-3.4764,-3.5237,-3.5716,-3.5989,-3.5955,-3.5511,-3.5207,-3.5193,-3.5947,-3.661,-3.7007,-3.8507,-3.9505,-3.9558,-3.9521,-3.9205,-3.8524,-3.9102,-3.9441,-3.8946,-3.9196,-3.9406,-3.9406,-3.9375,-3.9284,-3.9095,-3.8977,-3.8556,-3.7737,-3.6863,-3.5989,-3.5229,-3.5193,-3.5285,-3.5209,-3.572,-3.617,-3.6163,-3.6656,-3.6948,-3.6503,-3.6498,-3.6683,-3.7222,-3.7883,-3.8743,-3.9544,-4.0293,-4.0829,-2.8785,-2.881,-2.8905,-2.8975,-2.8938,-2.8223,-2.7493,-2.6741,-2.6649,-2.6264,-2.5807,-2.7356,-2.8098,-2.8178,-2.8883,-2.9243,-2.9347,-2.957,-2.9735,-2.9842,-3.0064,-3.0157,-3.0075,-3.0117,-3.0117,-3.0094,-3.0117,-3.0147,-3.0204,-3.0218,-3.0251,-3.0374,-3.0388,-3.0458,-3.0637,-3.132,-3.1923,-3.2378,-3.1766,-3.113,-3.0497,-3.0432,-3.039,-3.0421,-3.0421,-3.0421,-3.0444,-3.0471,-3.053,-3.052,-3.0576,-3.0642,-3.0711,-3.0704,-3.0728,0.0,-3.0799,0.0,0.0,0.0,0.0,0.0,0.0,0.0,0.0,-3.5062,-3.6005,-3.6012,-3.6015,-3.6015,-3.601,-3.5955,-3.5909,-3.5923,-3.6665,-3.7492,-3.824,-3.9052,-3.9906,-4.0887,-4.0138,-3.9179,-3.8188,-3.8937,-3.9585,-3.943,-4.0103,-4.0622,-4.0725,-4.0571,-4.0346,-4.0371,-4.013,-3.9042,-3.7663,-3.6833,-3.6114,-3.5381,-3.5355,-3.5509,-3.534,-3.5553,-3.5676,-3.5581,-3.5734,-3.5796,-3.5718,-3.5791,-3.6117,-3.6833,-3.7151,-3.7858,-3.9384,-4.0232,-4.0766,-2.8718,-2.8718,-2.881,-2.8858,-2.891,-2.8764,-2.8256,-2.753,-2.6888,-2.6888,-2.7402,-2.8404,-2.8868,-2.8909,-2.9101,-2.9307,-2.9471,-2.957,-2.9753,-2.9975,-3.0064,-3.0128,-3.0109,-3.0157,-3.0157,-3.0109,-3.0157,-3.0171,-3.0204,-3.0226,-3.0546,-3.1235,-3.1309,-3.1668,-3.2305,0.0,0.0,0.0,-3.095,-3.0797,-3.1303,-3.0713,-3.0425,-3.049,-3.049,0.0,-3.0567,-3.0576,-3.0586,-3.0578,-3.0649,0.0,0.0,0.0,0.0,0.0,0.0,0.0,0.0,0.0,0.0,0.0,-3.4054,-3.445,-3.447,-3.541,-3.6015,-3.6013,-3.601,-3.601,-3.6015,-3.5976,-3.5955,-3.5931,-3.6688,-3.7259,-3.7475,-3.8162,-3.9245,-4.0774,-3.9632,-3.8052,-3.6839,-3.8171,-3.9306,-3.884,-3.9854,-4.073,-4.0769,-4.0196,-3.9709,-3.9504,-3.8896,-3.7693,-3.602,-3.6189,-3.6147,-3.5522,-3.535,-3.5432,-3.5412,-3.555,-3.5707,-3.5667,-3.5728,-3.5782,-3.5788,-3.5857,-3.5917,-3.6119,-3.6696,-3.772,-3.9415,-3.9916,-4.0188,-2.8676,-2.8694,-2.881,-2.8881,0.0,-2.8929,-2.8732,-2.8356,-2.7948,-2.8044,-2.8411,-2.8856,-2.9089,-2.9141,-2.9163,-2.933,-2.9531,-2.9664,-2.9806,-2.9956,-3.0064,-3.0109,-3.0157,-3.0185,-3.0185,-3.0152,-3.018,-3.0213,-3.024,-3.024,-3.0477,-3.0906,-3.0931,-3.1385,-3.2244,-3.2711,-3.2699,-3.2204,-3.1808,-3.1838,-3.2235,-3.1523,-3.1149,-3.1177,-3.0778,0.0,0.0,0.0,0.0,0.0,0.0,0.0,0.0,-3.0782,0.0,-3.081,-3.1196,-3.1808,-3.2664,-3.3138,-3.3768,-3.4621,-3.5058,-3.5309,-3.5332,-3.5756,-3.6005,-3.6007,-3.6021,-3.6021,-3.6013,-3.6014,-3.5976,-3.5999,-3.6687,-3.7195,-3.7283,-3.791,-3.8739,-3.9459,-3.896,-3.8013,-3.7217,-3.8481,-3.9355,-3.9083,-3.9993,-4.0649,-4.025,-3.982,-3.9366,-3.882,-3.7949,-3.6911,-3.5834,-3.5771,-3.5977,-3.5541,-3.5526,-3.555,-3.5463,-3.5585,-3.5707,-3.5707,-3.5718,-3.5765,-3.583,-3.5891,-3.5892,-3.593,-3.6253,-3.7311,-3.924,-3.9805,-4.0033,-2.8687,-2.8712,-2.8815,-2.8881,-2.8905,-2.8952,-2.8994,-2.8975,-2.8975,0.0,0.0,-2.9044,-2.9115,-2.9251,-2.9251,-2.9394,-2.9645,-2.9755,-2.9841,-2.9953,-3.0064,-3.0157,-3.0199,-3.0218,-3.0213,-3.0221,-3.0374,-3.0464,-3.0542,-3.0682,-3.0848,-3.0976,-3.1001,-3.148,-3.2389,-3.3117,-3.3415,-3.3295,-3.3134,-3.31,-3.3227,-3.2529,-3.2151,-3.2144,-3.1455,-3.0996,-3.0872,-3.0928,-3.0881,-3.0728,-3.0759,-3.0863,-3.1025,-3.1019,-3.1094,-3.1269,-3.192,-3.2703,-3.3568,-3.4295,-3.507,-3.5918,-3.5923,-3.5932,-3.6007,-3.5977,-3.5991,-3.6001,-3.6007,-3.6013,-3.6011,-3.6012,-3.6015,-3.6013,-3.6589,-3.6967,-3.6996,-3.7531,-3.7897,-3.7936,-3.7899,-3.8216,-3.8769,-3.9092,-3.9481,-3.9694,-4.0285,-4.0438,-3.9575,-3.9116,-3.8589,-3.7785,-3.7003,-3.6373,-3.5894,-3.5681,-3.5623,-3.5635,-3.5708,-3.5747,-3.5637,-3.5648,-3.5708,-3.5737,-3.5708,-3.5765,-3.5857,-3.5878,-3.5892,-3.5897,-3.5908,-3.6629,-3.887,-3.9571,-3.9883,-2.8612,-2.8612,-2.8694,-2.8743,-2.881,-2.8881,-2.897,-2.8975,-2.8975,-2.9048,-2.9166,-2.9185,-2.927,-2.9453,-2.9472,-2.957,-2.9769,-2.9787,-2.9924,-3.0157,-3.019,-3.018,-3.0207,-3.0266,-3.0299,-3.0337,-3.1059,-3.1404,-3.1494,-3.216,-3.287,-3.3465,-3.3692,-3.4166,-3.5063,-3.5263,-3.5311,-3.5272,-3.3904,-3.3541,-3.4248,-3.3448,-3.3038,-3.3095,-3.2984,-3.2586,-3.1932,-3.1898,-3.1551,-3.0829,-3.0801,-3.1142,-3.185,-3.1912,-3.226,-3.2957,-3.3161,-3.3593,-3.4452,-3.4624,-3.5038,-3.5818,-3.5907,-3.5926,-3.5994,-3.5955,-3.5927,-3.6001,-3.6001,-3.6004,-3.6016,-3.6018,-3.6005,-3.6015,-3.6094,-3.6151,-3.614,-3.6243,-3.6342,-3.6312,-3.6156,-3.7478,-3.9671,-3.9391,-3.9062,-3.9655,-4.0218,-4.0246,-3.8801,-3.7831,-3.7045,-3.6289,-3.596,-3.5844,-3.5776,-3.5728,-3.5699,-3.5757,-3.5766,-3.5784,-3.5736,-3.5756,-3.5773,-3.5773,-3.5773,-3.5807,-3.5813,-3.5859,-3.5879,-3.5903,-3.5928,-3.6649,-3.8441,-3.885,-3.9318,-2.9238,-2.9246,-2.9373,-2.9423,-2.943,-2.9088,-2.8952,-2.8998,-2.9071,-2.916,-2.9188,-2.9209,-2.9355,-2.9589,-2.9626,-2.9717,-2.9905,-2.9907,-3.0022,-3.0204,-3.0204,-3.0207,-3.0292,-3.0778,-3.0772,-3.0458,-3.1668,-3.209,-3.1804,-3.2548,-3.3169,-3.3608,-3.4105,-3.4583,-3.5038,-3.5527,-3.5799,-3.584,-3.5042,-3.4802,-3.5178,-3.4417,-3.4028,-3.4057,-3.3618,-3.3177,-3.2833,-3.2798,-3.2606,-3.2218,-3.1772,-3.1909,-3.2731,-3.236,-3.2483,-3.333,-3.3841,-3.4273,-3.4687,-3.5095,-3.5511,-3.5864,-3.5888,-3.5919,-3.5942,-3.5914,-3.5914,-3.5942,-3.5974,-3.602,-3.6004,-3.601,-3.6016,-3.6005,-3.6011,-3.5996,-3.5956,-3.5916,-3.588,-3.5938,-3.6703,-3.7844,-3.9332,-3.9691,-3.9896,-4.0266,-4.0063,-3.9102,-3.786,-3.6929,-3.6221,-3.5786,-3.5737,-3.5757,-3.5786,-3.5766,-3.5784,-3.5803,-3.5793,-3.5801,-3.5791,-3.5791,-3.5791,-3.5799,-3.5799,-3.5803,-3.5801,-3.5853,-3.5885,-3.5942,-3.6337,-3.7116,-3.8188,-3.9182,-4.0175,-2.9881,-2.9797,-2.9944,-2.9929,-2.9734,-2.9274,-2.9044,-2.9048,-2.9188,-2.9293,-2.9334,-2.9334,-2.9513,-2.9751,-2.9787,-2.9986,-3.0288,-3.0304,-3.0479,-3.0772,-3.0786,-3.0822,-3.0938,-3.1584,-3.1482,-3.0948,-3.2211,-3.254,-3.1979,-3.2618,-3.319,-3.3552,-3.4135,-3.4564,-3.4841,-3.5496,-3.5894,-3.5986,-3.5885,-3.5855,-3.5816,-3.5268,-3.5006,-3.494,-3.4345,-3.3902,-3.3724,-3.3707,-3.3593,-3.338,-3.2753,-3.2775,-3.36,-3.3055,-3.3081,-3.3926,-3.459,-3.496,-3.5007,-3.5542,-3.59,-3.5892,-3.5885,-3.5889,-3.5889,-3.588,-3.5909,-3.5914,-3.5974,-3.6004,-3.6004,-3.6007,-3.601,-3.6013,-3.6005,-3.6011,-3.5994,-3.5951,-3.5926,-3.6087,-3.726,-3.8296,-3.9046,-3.998,-4.0624,-4.0586,-3.9606,-3.8402,-3.7508,-3.6653,-3.6093,-3.5794,-3.5775,-3.5803,-3.5805,-3.5793,-3.5801,-3.5793,-3.5801,-3.5791,-3.5791,-3.5791,-3.5791,-3.5799,-3.5788,-3.5811,-3.582,-3.5859,-3.5891,-3.5942,-3.6532,-3.7487,-3.8656,-3.9961,-4.0994,-3.0459,-2.9852,-2.9963,-2.9649,-2.914,-2.9156,-2.9166,-2.9209,-2.9395,-2.957,-2.9718,-2.9736,-2.9841,-3.0057,-3.0057,-3.0468,-3.1196,-3.1253,-3.1699,-3.2441,-3.2565,-3.2607,-3.257,-3.2744,-3.2372,-3.1749,-3.2571,-3.2634,-3.1893,-3.2724,-3.3561,-3.4345,-3.4484,-3.4956,-3.5767,-3.5912,-3.5994,-3.6017,-3.5985,-3.5988,-3.5988,-3.5913,-3.5874,-3.5874,-3.5796,-3.5389,-3.4608,-3.4569,-3.4217,-3.3476,-3.3339,-3.368,-3.4433,-3.4491,-3.4841,-3.5621,-3.5755,-3.5784,-3.5779,-3.5861,-3.5888,-3.5899,-3.5894,-3.5889,-3.5889,-3.5885,-3.5934,-3.5981,-3.602,-3.6069,-3.601,-3.603,-3.6049,-3.601,-3.6013,-3.6016,-3.6001,-3.5996,-3.5973,-3.6015,-3.6894,-3.8182,-4.0136,-4.0252,-4.0118,-4.0548,-3.9723,-3.879,-3.7974,-3.7217,-3.6479,-3.5965,-3.5791,-3.5791,-3.5801,-3.5791,-3.5791,-3.5791,-3.5791,-3.5791,-3.5791,-3.5791,-3.5791,-3.5799,-3.5815,-3.5818,-3.5859,-3.5898,-3.5891,-3.602,-3.6707,-3.772,-3.924,-4.0429,-4.1033,-3.0776,-3.0522,-3.0602,-3.0015,-2.9167,-2.9166,-2.9272,-2.9378,-2.9608,-2.9754,-2.9855,-2.994,-3.0003,-3.0102,-3.0098,-3.0571,-3.1382,-3.1446,-3.1948,-3.2771,-3.2837,-3.2878,-3.2955,-3.3492,-3.3053,-3.1973,-3.316,-3.3161,-3.2349,-3.3349,-3.4263,-3.467,-3.5129,-3.5597,-3.599,-3.6017,-3.602,-3.602,-3.6007,-3.601,-3.601,-3.601,-3.601,-3.601,-3.601,-3.5857,-3.5525,-3.5457,-3.5302,-3.492,-3.4429,-3.4523,-3.5409,-3.494,-3.5022,-3.5857,-3.5923,-3.5884,-3.5885,-3.589,-3.5885,-3.5889,-3.5889,-3.5889,-3.5889,-3.5885,-3.5909,-3.5997,-3.6423,-3.6573,-3.6121,-3.644,-3.6579,-3.6147,-3.601,-3.601,-3.6013,-3.6023,-3.6012,-3.6094,-3.7162,-3.8736,-4.0427,-4.0278,-3.966,-3.9449,-3.8721,-3.7935,-3.7023,-3.6537,-3.6246,-3.5907,-3.5791,-3.5791,-3.5791,-3.5791,-3.5791,-3.5791,-3.5791,-3.5791,-3.5791,-3.5791,-3.5791,-3.5791,-3.5823,-3.5864,-3.5878,-3.5885,-3.5903,-3.6201,-3.7214,-3.85,-4.0214,-4.0838,-4.1071,-3.0948,-3.093,-3.0665,-3.0002,-2.9249,-2.9295,-2.9436,-2.9588,-2.9786,-2.9907,-2.9972,-3.0079,-3.0109,-3.0132,-3.0128,-3.0615,-3.1355,-3.1489,-3.1971,-3.2799,-3.3114,-3.325,-3.3346,-3.3932,-3.3534,-3.2482,-3.3161,-3.3111,-3.2246,-3.3283,-3.4218,-3.4714,-3.5342,-3.5775,-3.5994,-3.602,-3.6004,-3.6004,-3.6007,-3.601,-3.6013,-3.6003,-3.6003,-3.6013,-3.6021,-3.6005,-3.6007,-3.5976,-3.5976,-3.5968,-3.5324,-3.5273,-3.5886,-3.5318,-3.5256,-3.5797,-3.5899,-3.5883,-3.5897,-3.5883,-3.5889,-3.5889,-3.5889,-3.5889,-3.5889,-3.5899,-3.5885,-3.5968,-3.6727,-3.6891,-3.6254,-3.6785,-3.6889,-3.6147,-3.601,-3.601,-3.601,-3.6147,-3.6294,-3.6209,-3.7672,-3.927,-4.0306,-4.0091,-3.9455,-3.8602,-3.773,-3.6945,-3.6265,-3.6032,-3.581,-3.5791,-3.5791,-3.5791,-3.5791,-3.5791,-3.5791,-3.5791,-3.5791,-3.5791,-3.5791,-3.5791,-3.5791,-3.5799,-3.5857,-3.5878,-3.5885,-3.5885,-3.6279,-3.6805,-3.7818,-3.924,-4.0682,-4.1033,-4.1091,-3.0975,-3.074,-2.96,-2.9299,-2.9492,-2.9682,-2.977,-2.9801,-3.0,-3.0094,-3.0094,-3.0157,-3.0204,-3.0185,-3.0204,-3.0677,-3.1412,-3.1503,-3.1985,-3.2883,-3.3626,-3.4038,-3.4135,-3.4241,-3.3774,-3.2772,-3.2535,-3.2312,-3.2157,-3.2303,-3.3056,-3.4632,-3.4869,-3.5243,-3.589,-3.601,-3.601,-3.601,-3.6016,-3.6013,-3.5999,-3.5996,-3.5996,-3.5987,-3.5995,-3.5995,-3.5995,-3.5932,-3.5911,-3.5917,-3.5876,-3.5903,-3.5903,-3.5821,-3.5819,-3.5879,-3.5885,-3.5885,-3.5892,-3.5897,-3.5889,-3.5889,-3.5889,-3.5889,-3.5889,-3.5889,-3.5899,-3.5909,-3.6713,-3.6879,-3.6208,-3.6778,-3.6902,-3.6147,-3.601,-3.601,-3.601,-3.6599,-3.6755,-3.6645,-3.8143,-3.9426,-3.9726,-3.9728,-3.9159,-3.8388,-3.7586,-3.6964,-3.6751,-3.6226,-3.5868,-3.5791,-3.5791,-3.5791,-3.5791,-3.5791,-3.5791,-3.5791,-3.5791,-3.5799,-3.5791,-3.5791,-3.5791,-3.5807,-3.5864,-3.5885,-3.5892,-3.6274,-3.6916,-3.7662,-3.8675,-4.0,-4.0896,-4.1052,-4.111,-3.073,-3.0312,-2.9521,-2.9336,-2.957,-2.9736,-2.9876,-3.0003,-3.0064,-3.0123,-3.0171,-3.0185,-3.0204,-3.0204,-3.0213,-3.0652,-3.1398,-3.1525,-3.2026,-3.2812,-3.3179,-3.334,-3.3365,-3.3487,-3.3103,-3.2444,-3.27,-3.2897,-3.3005,-3.3489,-3.4046,-3.4654,-3.5266,-3.5718,-3.5952,-3.601,-3.601,-3.6016,-3.6015,-3.6013,-3.6013,-3.596,-3.5923,-3.5947,-3.5935,-3.5945,-3.5925,-3.5926,-3.5893,-3.5894,-3.5884,-3.588,-3.5897,-3.5885,-3.5892,-3.5885,-3.5898,-3.5898,-3.5885,-3.5891,-3.5883,-3.5891,-3.5883,-3.5889,-3.5889,-3.5889,-3.5894,-3.6036,-3.6699,-3.6801,-3.6328,-3.6754,-3.696,-3.6205,-3.601,-3.601,-3.6049,-3.6303,-3.6716,-3.7558,-3.8589,-3.8942,-3.8826,-3.8453,-3.7968,-3.7568,-3.6817,-3.6382,-3.6246,-3.5954,-3.5791,-3.5791,-3.5791,-3.5791,-3.5791,-3.5791,-3.5791,-3.5791,-3.5799,-3.5807,-3.5807,-3.5815,-3.5815,-3.585,-3.5878,-3.597,-3.6035,-3.6729,-3.7428,-3.8246,-3.9318,-4.0078,-4.0935,-4.1071,-4.111,-3.0305,-2.9807,-2.9498,-2.9513,-2.9736,-3.0143,-3.0373,-3.0556,-3.0833,-3.0806,-3.0624,-3.0605,-3.0486,-3.0237,-3.0207,-3.0502,-3.1052,-3.1156,-3.1495,-3.2039,-3.2384,-3.2536,-3.2617,-3.2986,-3.2893,-3.2528,-3.3042,-3.3531,-3.3852,-3.4413,-3.483,-3.5162,-3.5734,-3.601,-3.6013,-3.6016,-3.6003,-3.6012,-3.6009,-3.5988,-3.5955,-3.5899,-3.5846,-3.5857,-3.5859,-3.5851,-3.5875,-3.5641,-3.5471,-3.542,-3.5157,-3.5016,-3.5067,-3.53,-3.5456,-3.5482,-3.573,-3.5866,-3.5878,-3.5885,-3.5897,-3.5891,-3.5897,-3.5883,-3.5889,-3.5883,-3.5883,-3.6045,-3.6376,-3.6498,-3.6202,-3.6489,-3.6602,-3.6118,-3.6004,-3.6007,-3.6027,-3.6261,-3.7103,-3.8085,-3.7943,-3.787,-3.7985,-3.7558,-3.7147,-3.6798,-3.6173,-3.585,-3.5799,-3.5791,-3.5791,-3.5791,-3.5791,-3.5799,-3.5807,-3.5826,-3.5818,-3.5818,-3.5807,-3.5795,-3.5803,-3.583,-3.5845,-3.5878,-3.595,-3.606,-3.6462,-3.715,-3.7896,-3.8656,-3.9357,-4.0078,-4.0662,-4.1091,-4.111,-2.9701,-2.9323,-2.9494,-2.9755,-3.008,-3.0823,-3.1302,-3.1501,-3.2218,-3.1985,-3.1298,-3.1389,-3.0934,-3.0355,-3.0228,-3.033,-3.0471,-3.0479,-3.0544,-3.0691,-3.1502,-3.1892,-3.1941,-3.287,-3.3343,-3.331,-3.341,-3.3899,-3.4698,-3.4823,-3.5217,-3.5825,-3.5952,-3.6018,-3.6016,-3.601,-3.5996,-3.5991,-3.5991,-3.5966,-3.5908,-3.5842,-3.5794,-3.5796,-3.5737,-3.5773,-3.5865,-3.5162,-3.48,-3.461,-3.4003,-3.342,-3.3833,-3.435,-3.4668,-3.4917,-3.5422,-3.5772,-3.5791,-3.5866,-3.5891,-3.5878,-3.5891,-3.5859,-3.5859,-3.5859,-3.5885,-3.5897,-3.5967,-3.5914,-3.5924,-3.5987,-3.6036,-3.5986,-3.6009,-3.6013,-3.6134,-3.6723,-3.7549,-3.8007,-3.718,-3.6484,-3.6952,-3.71,-3.6758,-3.6216,-3.5957,-3.5872,-3.5818,-3.5823,-3.5807,-3.5799,-3.5807,-3.5795,-3.5823,-3.5862,-3.5834,-3.5826,-3.5815,-3.5803,-3.5838,-3.5845,-3.5859,-3.5892,-3.5885,-3.6014,-3.6429,-3.7136,-3.7954,-3.8714,-3.9396,-4.0117,-4.0662,-4.111,-4.1117,-2.9318,-2.9372,-2.9532,-3.0093,-3.0776,-3.1165,-3.1597,-3.2164,-3.2515,-3.2168,-3.1546,-3.1525,-3.1079,-3.0444,-3.0351,-3.0443,-3.0472,-3.0492,-3.0511,-3.0685,-3.1458,-3.1891,-3.2081,-3.2875,-3.3652,-3.417,-3.4269,-3.4749,-3.5431,-3.5555,-3.5779,-3.5962,-3.6005,-3.6014,-3.5994,-3.601,-3.5982,-3.5939,-3.5872,-3.585,-3.5826,-3.5765,-3.5728,-3.5718,-3.5708,-3.5718,-3.5747,-3.5541,-3.5422,-3.5341,-3.5162,-3.5033,-3.5057,-3.5263,-3.5391,-3.5438,-3.5628,-3.5795,-3.5795,-3.5845,-3.5833,-3.5827,-3.5779,-3.5771,-3.5765,-3.5771,-3.5803,-3.584,-3.5859,-3.5883,-3.5894,-3.5894,-3.5924,-3.5986,-3.6005,-3.6009,-3.6036,-3.6258,-3.6498,-3.6696,-3.6311,-3.6147,-3.625,-3.6327,-3.6261,-3.6009,-3.5888,-3.5864,-3.5869,-3.5872,-3.5859,-3.5852,-3.5833,-3.5818,-3.5838,-3.5864,-3.5857,-3.585,-3.5838,-3.5826,-3.5859,-3.5866,-3.5879,-3.5885,-3.5897,-3.6117,-3.6532,-3.7194,-3.8052,-3.8909,-3.9688,-4.0331,-4.0916,-4.1117,-4.1109,-2.927,-2.9474,-2.9644,-3.0089,-3.0814,-3.1431,-3.1863,-3.2167,-3.2839,-3.2501,-3.1656,-3.1572,-3.1157,-3.0595,-3.08,-3.0989,-3.1072,-3.1425,-3.1596,-3.1564,-3.1705,-3.2089,-3.2486,-3.3398,-3.4291,-3.5041,-3.5137,-3.5415,-3.5923,-3.597,-3.5955,-3.5957,-3.5957,-3.5968,-3.5955,-3.5968,-3.5917,-3.5866,-3.5829,-3.5786,-3.5757,-3.5718,-3.5708,-3.5698,-3.5698,-3.5698,-3.5718,-3.5728,-3.562,-3.5305,-3.5008,-3.4797,-3.4817,-3.5039,-3.529,-3.5299,-3.5305,-3.5302,-3.5313,-3.5282,-3.5317,-3.529,-3.5484,-3.5649,-3.5665,-3.5679,-3.5735,-3.5838,-3.5872,-3.5891,-3.5897,-3.5889,-3.5919,-3.5953,-3.5973,-3.5962,-3.5994,-3.6001,-3.6027,-3.6108,-3.603,-3.5979,-3.595,-3.5934,-3.5937,-3.593,-3.5908,-3.5882,-3.588,-3.5888,-3.589,-3.5889,-3.5878,-3.5859,-3.5859,-3.5878,-3.5885,-3.5885,-3.5878,-3.5866,-3.5879,-3.5885,-3.5891,-3.5897,-3.5883,-3.6273,-3.6707,-3.7487,-3.8305,-3.9143,-3.9772,-4.0343,-4.0778,-4.1061,-4.1115,-2.9568,-2.9682,-2.9897,-3.0097,-3.0433,-3.1787,-3.2064,-3.1813,-3.3073,-3.2929,-3.1827,-3.1773,-3.1369,-3.0935,-3.1549,-3.1984,-3.2163,-3.2733,-3.3165,-3.3059,-3.2795,-3.2783,-3.3632,-3.4406,-3.5129,-3.5764,-3.5838,-3.5859,-3.5898,-3.5914,-3.5886,-3.5899,-3.5892,-3.5948,-3.606,-3.5985,-3.6086,-3.6193,-3.6096,-3.6075,-3.6007,-3.5833,-3.5833,-3.5831,-3.5753,-3.5695,-3.5667,-3.5648,-3.5282,-3.4533,-3.3787,-3.3338,-3.3306,-3.3881,-3.4293,-3.4313,-3.4369,-3.4395,-3.4395,-3.4341,-3.4313,-3.436,-3.4805,-3.5442,-3.5348,-3.538,-3.5534,-3.5795,-3.5852,-3.5872,-3.5885,-3.5897,-3.5908,-3.5889,-3.5914,-3.5929,-3.6001,-3.6013,-3.602,-3.6004,-3.6004,-3.6004,-3.5994,-3.5996,-3.5989,-3.5976,-3.5937,-3.5917,-3.5908,-3.5918,-3.5926,-3.5916,-3.5903,-3.5885,-3.5869,-3.5864,-3.5889,-3.5885,-3.5885,-3.5883,-3.5897,-3.5903,-3.5883,-3.5889,-3.5953,-3.6381,-3.6796,-3.7425,-3.8059,-3.8688,-3.9355,-4.0072,-4.0535,-4.0801,-4.1111,-3.047,-3.0639,-3.0746,-3.121,-3.1787,-3.1803,-3.1924,-3.2325,-3.2833,-3.2545,-3.1923,-3.2455,-3.2219,-3.1685,-3.2532,-3.2995,-3.3108,-3.3317,-3.3789,-3.4269,-3.4075,-3.4459,-3.5155,-3.5493,-3.5718,-3.5917,-3.5916,-3.5886,-3.5887,-3.5877,-3.588,-3.5889,-3.5947,-3.6246,-3.6687,-3.6755,-3.7103,-3.7549,-3.7547,-3.7517,-3.739,-3.6856,-3.6585,-3.6535,-3.6052,-3.5709,-3.5565,-3.5463,-3.5071,-3.4378,-3.3462,-3.2952,-3.2981,-3.3205,-3.3373,-3.3396,-3.3338,-3.3351,-3.3362,-3.3341,-3.3319,-3.3346,-3.3564,-3.3819,-3.4504,-3.4537,-3.489,-3.5436,-3.5727,-3.5737,-3.5833,-3.5891,-3.5897,-3.5889,-3.5894,-3.5924,-3.5914,-3.5962,-3.6009,-3.6013,-3.6017,-3.6001,-3.6004,-3.6007,-3.6016,-3.5984,-3.5968,-3.595,-3.5957,-3.5976,-3.5975,-3.5948,-3.594,-3.5907,-3.5892,-3.5888,-3.5895,-3.5889,-3.5894,-3.5899,-3.5904,-3.5914,-3.5894,-3.5889,-3.5909,-3.6226,-3.645,-3.6848,-3.7519,-3.8427,-3.9295,-4.014,-4.0283,-4.0523,-4.0957,-3.1299,-3.1118,-3.1172,-3.135,-3.1592,-3.1435,-3.1527,-3.1789,-3.2148,-3.1915,-3.1564,-3.2225,-3.2402,-3.2135,-3.3341,-3.3918,-3.3936,-3.4295,-3.4754,-3.5093,-3.5117,-3.543,-3.5839,-3.5937,-3.5935,-3.5897,-3.5874,-3.5864,-3.586,-3.5833,-3.5815,-3.5911,-3.6193,-3.6629,-3.6996,-3.745,-3.7885,-3.8396,-3.8365,-3.8276,-3.8407,-3.7796,-3.7411,-3.727,-3.6813,-3.6433,-3.5912,-3.5109,-3.448,-3.4149,-3.3667,-3.3223,-3.2858,-3.2814,-3.2808,-3.2814,-3.2538,-3.2358,-3.2384,-3.234,-3.234,-3.2429,-3.2511,-3.2985,-3.3448,-3.3561,-3.3891,-3.4303,-3.4505,-3.4787,-3.5251,-3.5626,-3.5859,-3.5891,-3.5897,-3.5894,-3.5885,-3.5953,-3.6001,-3.5986,-3.5966,-3.597,-3.6013,-3.5997,-3.602,-3.6004,-3.6004,-3.601,-3.6001,-3.6003,-3.6009,-3.5976,-3.5957,-3.5933,-3.5908,-3.5903,-3.5901,-3.5903,-3.5884,-3.5896,-3.591,-3.5935,-3.5935,-3.5935,-3.5935,-3.6017,-3.6225,-3.6721,-3.776,-3.8664,-3.951,-4.0097,-4.0332,-4.0506,-4.0928,-3.1925,-3.1318,-3.1337,-3.0954,-3.0624,-3.1085,-3.1044,-3.0683,-3.1303,-3.1263,-3.0994,-3.1579,-3.2063,-3.2233,-3.3758,-3.4622,-3.4607,-3.5292,-3.5662,-3.5788,-3.577,-3.5848,-3.5851,-3.5887,-3.589,-3.5879,-3.583,-3.582,-3.5801,-3.5724,-3.5795,-3.6067,-3.6638,-3.7093,-3.7533,-3.8005,-3.8562,-3.9013,-3.8805,-3.8796,-3.8922,-3.8464,-3.8055,-3.7897,-3.7389,-3.6936,-3.6054,-3.4939,-3.3961,-3.4032,-3.3837,-3.3037,-3.2428,-3.2344,-3.2326,-3.2177,-3.1686,-3.1398,-3.1435,-3.1369,-3.1325,-3.1431,-3.1904,-3.2422,-3.2504,-3.2598,-3.2793,-3.3159,-3.2949,-3.3527,-3.4195,-3.5057,-3.5307,-3.5301,-3.5457,-3.5612,-3.5777,-3.5885,-3.5987,-3.6001,-3.5934,-3.5938,-3.5962,-3.5986,-3.6005,-3.6013,-3.6013,-3.6017,-3.602,-3.6004,-3.5991,-3.5962,-3.597,-3.5973,-3.5937,-3.5918,-3.5918,-3.5917,-3.5897,-3.5898,-3.5957,-3.5974,-3.5972,-3.597,-3.5947,-3.5968,-3.6052,-3.6816,-3.7851,-3.8437,-3.8941,-3.9893,-4.0689,-4.0798,-4.1078,-3.155,-3.1459,-3.1525,-3.1488,-3.1325,-3.0893,-3.0665,-3.0591,-3.0824,-3.0886,-3.0967,-3.169,-3.2054,-3.2199,-3.3829,-3.4664,-3.4703,-3.5457,-3.5868,-3.5821,-3.5819,-3.5807,-3.582,-3.5801,-3.5825,-3.5819,-3.5818,-3.5782,-3.5745,-3.5766,-3.6048,-3.6618,-3.6759,-3.756,-3.8569,-3.856,-3.9296,-3.988,-3.9708,-3.9484,-3.9409,-3.8934,-3.8536,-3.8423,-3.73,-3.6483,-3.6103,-3.5134,-3.4243,-3.3488,-3.2559,-3.1764,-3.0999,-3.0728,-3.0757,-3.0727,-3.0559,-3.035,-3.0418,-3.0411,-3.0304,-3.049,-3.0689,-3.0874,-3.1556,-3.1603,-3.1996,-3.2483,-3.2787,-3.2844,-3.3306,-3.3602,-3.3942,-3.4042,-3.4043,-3.4244,-3.4828,-3.5521,-3.5883,-3.5914,-3.5904,-3.589,-3.5914,-3.5977,-3.6001,-3.6005,-3.6005,-3.6005,-3.6005,-3.6001,-3.597,-3.5942,-3.5949,-3.5977,-3.5964,-3.593,-3.5911,-3.5911,-3.589,-3.5908,-3.5947,-3.5971,-3.5955,-3.5937,-3.5937,-3.5957,-3.5993,-3.6596,-3.7551,-3.7951,-3.8408,-3.9279,-4.0071,-4.0525,-4.1067,-3.193,-3.1653,-3.2073,-3.1832,-3.1235,-3.1146,-3.0991,-3.0743,-3.0735,-3.0763,-3.0993,-3.1733,-3.2098,-3.2263,-3.3808,-3.4625,-3.4765,-3.5402,-3.5788,-3.5721,-3.5659,-3.566,-3.5708,-3.5679,-3.566,-3.5735,-3.5747,-3.5728,-3.5718,-3.5688,-3.5841,-3.6331,-3.6595,-3.703,-3.7998,-3.8265,-3.847,-3.8742,-3.8899,-3.8842,-3.8746,-3.8783,-3.8892,-3.8842,-3.7743,-3.6885,-3.6516,-3.5678,-3.4599,-3.3529,-3.2616,-3.1637,-3.0684,-3.0438,-3.0305,-2.9997,-2.9924,-2.9905,-2.9956,-2.9956,-2.9978,-3.001,-2.9975,-3.0203,-3.0541,-3.0668,-3.0868,-3.1287,-3.1465,-3.1678,-3.2297,-3.2888,-3.3035,-3.3147,-3.3172,-3.3441,-3.4061,-3.5087,-3.5879,-3.5891,-3.5897,-3.5897,-3.5903,-3.5899,-3.5938,-3.5938,-3.5943,-3.5943,-3.5943,-3.5943,-3.5948,-3.5934,-3.5938,-3.5947,-3.5958,-3.5942,-3.5923,-3.5919,-3.5896,-3.5892,-3.5931,-3.5923,-3.5916,-3.5923,-3.5929,-3.5964,-3.6091,-3.671,-3.7152,-3.7535,-3.8049,-3.8711,-3.9349,-3.9959,-4.0602,-3.2201,-3.1594,-3.2329,-3.1861,-3.0877,-3.1527,-3.1448,-3.0856,-3.095,-3.1001,-3.0892,-3.162,-3.1855,-3.2375,-3.3426,-3.4176,-3.4705,-3.5297,-3.5699,-3.5609,-3.5481,-3.5476,-3.5514,-3.5432,-3.5412,-3.5585,-3.5646,-3.5654,-3.5612,-3.5604,-3.5685,-3.5817,-3.62,-3.6738,-3.6859,-3.7144,-3.7566,-3.7641,-3.758,-3.752,-3.7535,-3.7948,-3.8407,-3.8517,-3.7828,-3.7044,-3.6433,-3.5717,-3.4797,-3.3579,-3.3521,-3.2786,-3.1825,-3.1102,-3.086,-3.0099,-3.0023,-2.9907,-2.9907,-2.9907,-2.9907,-2.9907,-2.9907,-2.9907,-2.9981,-3.0051,-3.0143,-3.0136,-3.0316,-3.06,-3.1254,-3.1796,-3.2297,-3.2461,-3.2589,-3.2774,-3.3225,-3.4369,-3.4766,-3.5833,-3.5412,-3.5081,-3.5489,-3.569,-3.5788,-3.5846,-3.5839,-3.5825,-3.5805,-3.5844,-3.5825,-3.5903,-3.5928,-3.5928,-3.5924,-3.5934,-3.5909,-3.5904,-3.5894,-3.5889,-3.5903,-3.5919,-3.5919,-3.5942,-3.5947,-3.5966,-3.6177,-3.6703,-3.7064,-3.7269,-3.7745,-3.848,-3.902,-3.9468,-3.9955,-3.0868,-3.0785,-3.094,-3.0892,-3.0916,-3.1705,-3.1578,-3.1036,-3.1496,-3.1443,-3.0898,-3.0975,-3.1448,-3.2046,-3.2214,-3.3173,-3.4475,-3.527,-3.5562,-3.5451,-3.5306,-3.5283,-3.5228,-3.5149,-3.5117,-3.5197,-3.5397,-3.5496,-3.5405,-3.5361,-3.5526,-3.5982,-3.6107,-3.6417,-3.6806,-3.7181,-3.6923,-3.6764,-3.6708,-3.6667,-3.6737,-3.6937,-3.7212,-3.7449,-3.6789,-3.6249,-3.5875,-3.5104,-3.4409,-3.4228,-3.4218,-3.3705,-3.2818,-3.1713,-3.1016,-3.0656,-3.0124,-2.9839,-2.9876,-2.9891,-2.9907,-2.9907,-2.9907,-2.9888,-2.9888,-2.9907,-2.9924,-2.994,-2.9972,-3.0125,-3.03,-3.0737,-3.0721,-3.0794,-3.0983,-3.1218,-3.1733,-3.2132,-3.3035,-3.4602,-3.4399,-3.4017,-3.4294,-3.4722,-3.5002,-3.5067,-3.5198,-3.5269,-3.5314,-3.547,-3.5645,-3.5756,-3.5892,-3.5892,-3.5898,-3.5891,-3.5897,-3.5891,-3.5885,-3.5885,-3.5898,-3.5892,-3.5905,-3.5928,-3.5914,-3.5919,-3.6245,-3.6674,-3.6649,-3.661,-3.7377,-3.8228,-3.8384,-3.852,-3.8767,-3.0671,-3.0755,-3.1183,-3.1137,-3.0986,-3.1725,-3.1599,-3.0937,-3.1246,-3.1431,-3.1279,-3.1028,-3.1461,-3.2305,-3.2501,-3.3345,-3.4564,-3.5089,-3.5283,-3.517,-3.5062,-3.5028,-3.4996,-3.4907,-3.4907,-3.4997,-3.5165,-3.5212,-3.5152,-3.5097,-3.5264,-3.5378,-3.5438,-3.5603,-3.5809,-3.5634,-3.5675,-3.5605,-3.5522,-3.5442,-3.5516,-3.5769,-3.6203,-3.647,-3.6303,-3.5994,-3.5516,-3.5256,-3.4692,-3.4357,-3.4197,-3.4041,-3.3384,-3.2291,-3.116,-3.0885,-3.0242,-2.9805,-2.9861,-2.9841,-2.9839,-2.9841,-2.9857,-2.9841,-2.9859,-2.9859,-2.9857,-2.991,-2.9905,-2.9953,-3.0034,-3.0026,-3.0085,-3.0182,-3.0203,-3.0433,-3.0701,-3.0578,-3.1706,-3.3064,-3.2445,-3.2184,-3.2502,-3.3063,-3.3843,-3.4256,-3.4513,-3.4625,-3.471,-3.4788,-3.4929,-3.5488,-3.5624,-3.576,-3.5779,-3.5845,-3.5852,-3.5864,-3.5716,-3.5716,-3.5703,-3.5626,-3.5768,-3.5898,-3.5885,-3.5729,-3.5982,-3.6255,-3.6119,-3.6021,-3.658,-3.7099,-3.7313,-3.7527,-3.7819,-3.0793,-3.0868,-3.1543,-3.1438,-3.0994,-3.1717,-3.1571,-3.0911,-3.0977,-3.1256,-3.1572,-3.1227,-3.1723,-3.2842,-3.3381,-3.3925,-3.4871,-3.4876,-3.5011,-3.4924,-3.4794,-3.4774,-3.4735,-3.4695,-3.4572,-3.4513,-3.4578,-3.4736,-3.4889,-3.4868,-3.4794,-3.4788,-3.461,-3.4516,-3.4577,-3.4554,-3.4173,-3.413,-3.4105,-3.4092,-3.4208,-3.4663,-3.5317,-3.5988,-3.6107,-3.5725,-3.508,-3.4925,-3.4541,-3.412,-3.3895,-3.385,-3.3753,-3.2385,-3.1316,-3.093,-3.0189,-2.9849,-2.9792,-2.9773,-2.9789,-2.9808,-2.9789,-2.9809,-2.981,-2.9809,-2.9825,-2.9878,-2.9893,-2.9872,-2.9888,-2.9888,-2.9956,-3.0034,-3.0056,-3.0099,-3.0207,-3.0215,-3.0228,-3.0727,-3.0279,-3.0629,-3.1248,-3.2017,-3.2919,-3.348,-3.3732,-3.3703,-3.3761,-3.3652,-3.3943,-3.485,-3.5305,-3.5499,-3.5643,-3.5788,-3.5807,-3.5799,-3.5492,-3.5274,-3.5274,-3.5242,-3.5281,-3.5118,-3.5437,-3.5332,-3.5592,-3.5859,-3.5931,-3.595,-3.5898,-3.6066,-3.6494,-3.6747,-3.6934,-3.0793,-3.082,-3.0917,-3.0894,-3.0925,-3.1619,-3.1473,-3.0761,-3.1281,-3.1243,-3.0907,-3.1221,-3.1908,-3.2942,-3.4202,-3.4323,-3.4276,-3.4565,-3.4813,-3.4655,-3.4551,-3.4398,-3.4321,-3.4274,-3.4043,-3.3931,-3.3854,-3.4141,-3.436,-3.4494,-3.447,-3.4298,-3.4167,-3.4161,-3.4124,-3.3961,-3.403,-3.4012,-3.4005,-3.3831,-3.3643,-3.3734,-3.3908,-3.4055,-3.4246,-3.4363,-3.4092,-3.4046,-3.379,-3.3549,-3.339,-3.339,-3.3164,-3.1947,-3.12,-3.0736,-3.0191,-2.957,-2.9626,-2.9608,-2.9664,-2.9682,-2.9736,-2.9774,-2.9757,-2.9775,-2.979,-2.9827,-2.9825,-2.9806,-2.9823,-2.9841,-2.9893,-2.9926,-2.994,-2.9937,-2.9965,-3.0007,-3.0003,-3.0022,-3.0094,-3.0131,-3.0433,-3.1244,-3.2023,-3.2548,-3.2906,-3.2833,-3.2817,-3.2724,-3.2696,-3.351,-3.4362,-3.4633,-3.472,-3.4982,-3.5146,-3.5311,-3.5029,-3.4637,-3.4531,-3.4348,-3.391,-3.391,-3.4337,-3.4831,-3.5053,-3.5329,-3.5709,-3.5864,-3.5815,-3.5815,-3.5869,-3.6036,-3.6218,-3.0612,-3.0737,-3.0728,-3.0703,-3.0667,-3.1014,-3.0894,-3.0578,-3.0742,-3.0959,-3.102,-3.1251,-3.2029,-3.3201,-3.4357,-3.4466,-3.4042,-3.4226,-3.4311,-3.4165,-3.3975,-3.3847,-3.3768,-3.3634,-3.3411,-3.3354,-3.3277,-3.3375,-3.365,-3.3725,-3.3681,-3.3787,-3.3605,-3.3567,-3.3698,-3.3542,-3.3478,-3.3405,-3.3369,-3.3302,-3.3201,-3.3178,-3.316,-3.3219,-3.3382,-3.34,-3.3343,-3.3314,-3.327,-3.3117,-3.3033,-3.2786,-3.2355,-3.1394,-3.0538,-3.0239,-2.9448,-2.9034,-2.9166,-2.9222,-2.9328,-2.9414,-2.9474,-2.9492,-2.9588,-2.9683,-2.9738,-2.9756,-2.9773,-2.9771,-2.9771,-2.9825,-2.9844,-2.9842,-2.9842,-2.9841,-2.9841,-2.9841,-2.9855,-2.9874,-2.991,-2.9943,-2.999,-3.0486,-3.1033,-3.1296,-3.1533,-3.1462,-3.1614,-3.1796,-3.1827,-3.1989,-3.2852,-3.3558,-3.3589,-3.3697,-3.3823,-3.3939,-3.3881,-3.3585,-3.3546,-3.3285,-3.2987,-3.2977,-3.342,-3.3886,-3.4323,-3.4912,-3.5413,-3.5599,-3.5727,-3.5611,-3.5476,-3.5659,-3.5803,-3.0393,-3.0564,-3.0569,-3.0516,-3.0444,-3.0414,-3.0325,-3.0203,-3.0169,-3.0452,-3.0933,-3.1279,-3.2147,-3.3291,-3.3964,-3.3994,-3.3716,-3.3707,-3.3643,-3.3504,-3.3361,-3.3266,-3.3248,-3.31,-3.2978,-3.2854,-3.2822,-3.2791,-3.2706,-3.2729,-3.2895,-3.3325,-3.3196,-3.3152,-3.3214,-3.313,-3.3015,-3.2967,-3.2845,-3.2791,-3.2713,-3.2745,-3.2777,-3.2822,-3.2885,-3.2916,-3.2854,-3.2854,-3.2857,-3.2697,-3.2595,-3.2287,-3.1684,-3.0792,-2.9988,-2.9526,-2.8748,-2.8412,-2.859,-2.8743,-2.8905,-2.903,-2.9119,-2.9203,-2.9314,-2.9454,-2.9569,-2.955,-2.9664,-2.9682,-2.9737,-2.9737,-2.9756,-2.9755,-2.9773,-2.9773,-2.9773,-2.9754,-2.9771,-2.9842,-2.9842,-2.9823,-2.9886,-2.9937,-3.011,-3.0142,-3.0142,-3.0169,-3.0477,-3.0932,-3.0976,-3.1084,-3.1763,-3.2365,-3.2141,-3.2244,-3.241,-3.266,-3.2622,-3.2569,-3.2555,-3.2497,-3.2278,-3.2408,-3.2545,-3.2909,-3.3334,-3.4243,-3.5049,-3.4758,-3.461,-3.5013,-3.5133,-3.529,-3.547,-3.0215,-3.022,-3.0206,-3.0194,-3.0215,-3.0144,-3.0047,-2.9877,-2.9832,-2.9897,-3.0283,-3.0961,-3.2157,-3.3238,-3.3369,-3.3288,-3.3105,-3.3051,-3.3069,-3.3069,-3.2991,-3.2885,-3.2805,-3.2709,-3.2631,-3.2384,-3.2282,-3.2144,-3.1949,-3.1915,-3.2331,-3.2885,-3.2702,-3.2827,-3.2872,-3.2713,-3.2616,-3.2533,-3.2422,-3.2284,-3.2284,-3.23,-3.2317,-3.2385,-3.2601,-3.2699,-3.2435,-3.2419,-3.235,-3.2195,-3.2057,-3.1638,-3.0935,-3.0167,-2.9443,-2.8793,-2.8264,-2.795,-2.8063,-2.8396,-2.8652,-2.8795,-2.8892,-2.8942,-2.8993,-2.9126,-2.9209,-2.9249,-2.9355,-2.9435,-2.9512,-2.9569,-2.9531,-2.9531,-2.9513,-2.9532,-2.9551,-2.9626,-2.9663,-2.9773,-2.9773,-2.97,-2.9718,-2.9789,-2.9893,-2.9988,-3.0019,-3.003,-3.0015,-3.0327,-3.0236,-3.0388,-3.0937,-3.1104,-3.0579,-3.0833,-3.1609,-3.1785,-3.1722,-3.168,-3.1655,-3.1546,-3.1437,-3.1418,-3.1487,-3.1916,-3.2237,-3.2724,-3.3089,-3.3268,-3.3525,-3.409,-3.4545,-3.4773,-3.5076,-2.9401,-2.9401,-2.9306,-2.9493,-2.9817,-2.9723,-2.9532,-2.9302,-2.9299,-2.9848,-3.0623,-3.0954,-3.1827,-3.2835,-3.3124,-3.2916,-3.28,-3.2755,-3.2669,-3.2519,-3.2368,-3.2213,-3.2092,-3.1898,-3.1716,-3.1531,-3.1528,-3.16,-3.1445,-3.1295,-3.1545,-3.1914,-3.1968,-3.2196,-3.2196,-3.2162,-3.2039,-3.1984,-3.1886,-3.1774,-3.176,-3.1783,-3.1819,-3.1856,-3.1875,-3.1966,-3.1858,-3.1894,-3.186,-3.1738,-3.1496,-3.0959,-3.03,-2.9521,-2.8824,-2.8223,-2.7779,-2.7652,-2.7707,-2.8017,-2.8281,-2.8492,-2.8593,-2.8647,-2.8639,-2.8772,-2.8814,-2.8902,-2.8993,-2.9086,-2.9082,-2.9126,-2.9148,-2.9191,-2.9212,-2.9235,-2.9277,-2.9336,-2.947,-2.9546,-2.9528,-2.9453,-2.9531,-2.9626,-2.9737,-2.9842,-2.9876,-2.9893,-2.9874,-2.991,-2.9907,-2.9924,-3.043,-3.056,-3.0108,-3.0516,-3.1055,-3.099,-3.0891,-3.0877,-3.083,-3.0566,-3.0464,-3.0418,-3.0509,-3.091,-3.11,-3.1005,-3.1331,-3.1996,-3.2708,-3.3379,-3.3791,-3.4167,-3.4531,-2.8445,-2.873,-2.8567,-2.8796,-2.9247,-2.9186,-2.899,-2.8832,-2.9046,-2.9977,-3.1293,-3.1009,-3.1453,-3.2459,-3.2573,-3.2456,-3.2193,-3.2089,-3.1949,-3.1733,-3.1418,-3.1189,-3.1055,-3.0897,-3.0778,-3.0567,-3.0625,-3.0723,-3.0625,-3.073,-3.0714,-3.0714,-3.0868,-3.1111,-3.1528,-3.147,-3.1334,-3.1423,-3.1496,-3.1457,-3.1462,-3.1517,-3.1517,-3.1555,-3.1576,-3.1576,-3.1559,-3.1634,-3.1603,-3.1485,-3.1229,-3.0643,-2.9885,-2.9127,-2.8434,-2.7927,-2.7525,-2.7404,-2.7509,-2.7719,-2.795,-2.8081,-2.8279,-2.8298,-2.8353,-2.842,-2.854,-2.8406,-2.8567,-2.87,-2.87,-2.8772,-2.8819,-2.8842,-2.8883,-2.8911,-2.8934,-2.8975,-2.9163,-2.9314,-2.9248,-2.9166,-2.9191,-2.9295,-2.9512,-2.9664,-2.9825,-2.9842,-2.9787,-2.9823,-2.9895,-2.9895,-3.0007,-2.9988,-2.9912,-3.0246,-3.0471,-3.0395,-3.0297,-3.017,-3.0056,-2.9929,-2.9948,-3.0108,-3.02,-3.0097,-3.0189,-3.0371,-3.0684,-3.1093,-3.179,-3.2527,-3.2991,-3.3377,-3.38,-2.736,-2.8424,-2.8103,-2.8182,-2.8481,-2.8535,-2.8435,-2.8362,-2.8909,-2.9987,-3.1222,-3.0867,-3.1133,-3.1863,-3.164,-3.1551,-3.1516,-3.1196,-3.1036,-3.1072,-3.0759,-3.0274,-3.0081,-3.007,-2.9972,-2.98,-2.9816,-2.9816,-2.9653,-2.9783,-2.9713,-2.9657,-2.9789,-3.0005,-3.0747,-3.0828,-3.0965,-3.1252,-3.1375,-3.1331,-3.1388,-3.1388,-3.1303,-3.1303,-3.119,-3.1117,-3.1117,-3.1196,-3.1172,-3.1145,-3.1011,-3.05,-2.986,-2.9228,-2.8562,-2.8012,-2.7394,-2.725,-2.7373,-2.7582,-2.7672,-2.7736,-2.793,-2.7982,-2.8003,-2.8091,-2.8201,-2.8085,-2.8288,-2.8453,-2.8496,-2.8504,-2.8478,-2.8504,-2.8547,-2.8547,-2.8572,-2.8572,-2.876,-2.8919,-2.8918,-2.8888,-2.887,-2.896,-2.9212,-2.9435,-2.9682,-2.9736,-2.9626,-2.97,-2.9737,-2.9829,-2.981,-2.9823,-2.9805,-2.9806,-2.9882,-2.9808,-2.9825,-2.9823,-2.9975,-3.0162,-3.0141,-3.0009,-2.9975,-2.9998,-2.9921,-2.988,-3.0107,-3.0389,-3.0966,-3.1625,-3.2103,-3.2785,-3.343,-2.6179,-2.6877,-2.6751,-2.6736,-2.6897,-2.7467,-2.7484,-2.7261,-2.774,-2.8767,-2.9892,-2.977,-3.0051,-3.0513,-3.0666,-3.0659,-3.0971,-3.0915,-3.0822,-3.1083,-3.048,-3.0202,-2.9906,-2.9528,-2.9273,-2.9164,-2.9134,-2.9213,-2.9271,-2.9104,-2.9239,-2.9239,-2.8934,-2.9316,-2.9701,-2.9924,-3.0098,-3.0582,-3.0789,-3.092,-3.1218,-3.098,-3.0789,-3.074,-3.0491,-3.0335,-3.0377,-3.0485,-3.0523,-3.0499,-3.0342,-2.9726,-2.9087,-2.8415,-2.7748,-2.7126,-2.6538,-2.6825,-2.694,-2.7117,-2.7369,-2.7461,-2.7604,-2.77,-2.7712,-2.7766,-2.7771,-2.7811,-2.7982,-2.8101,-2.8091,-2.8146,-2.8156,-2.8156,-2.8183,-2.8201,-2.8201,-2.8228,-2.8309,-2.8407,-2.8468,-2.8565,-2.8603,-2.8628,-2.8837,-2.8948,-2.9148,-2.9275,-2.9214,-2.9414,-2.9531,-2.9683,-2.972,-2.9737,-2.9716,-2.9664,-2.9645,-2.9645,-2.9718,-2.9789,-3.0014,-3.0113,-3.0036,-2.9756,-2.9832,-2.9908,-2.9701,-2.9532,-2.9438,-2.9701,-3.0547,-3.1468,-3.2316,-3.2997,-3.3658,-2.4729,-2.5424,-2.5341,-2.5223,-2.5352,-2.632,-2.6657,-2.6673,-2.7163,-2.8103,-2.9066,-2.9043,-2.9243,-2.9643,-2.9597,-2.9665,-3.0183,-2.9799,-3.0117,-3.0462,-2.9855,-2.9462,-2.92,-2.9,-2.8514,-2.8369,-2.8404,-2.847,-2.8278,-2.8271,-2.8183,-2.8094,-2.8079,-2.8064,-2.8434,-2.8811,-2.9476,-2.9916,-3.0116,-3.0186,-3.0394,-3.0284,-3.006,-2.9977,-2.9781,-2.9569,-2.9569,-2.9636,-2.968,-2.9575,-2.9312,-2.8909,-2.8366,-2.7745,-2.7219,-2.6742,-2.6211,-2.6395,-2.6349,-2.6436,-2.6639,-2.6788,-2.7172,-2.7469,-2.75,-2.7574,-2.7604,-2.7665,-2.7712,-2.7724,-2.7754,-2.7813,-2.7795,-2.7795,-2.7824,-2.7824,-2.7836,-2.7864,-2.794,-2.8021,-2.8152,-2.8255,-2.8308,-2.8334,-2.8438,-2.8507,-2.8583,-2.8707,-2.8855,-2.9056,-2.9286,-2.9405,-2.9465,-2.9431,-2.9434,-2.9451,-2.9453,-2.9474,-2.9532,-2.9551,-2.9493,-2.9524,-2.9511,-2.9513,-2.9488,-2.9444,-2.9328,-2.9193,-2.9153,-2.9638,-3.0581,-3.1534,-3.2504,-3.3088,-3.3612,-2.3091,-2.411,-2.3958,-2.3796,-2.3952,-2.5121,-2.6053,-2.6751,-2.7315,-2.8021,-2.8774,-2.8513,-2.8529,-2.8884,-2.8576,-2.856,-2.8731,-2.8035,-2.847,-2.8761,-2.8524,-2.8389,-2.8347,-2.8222,-2.7909,-2.7568,-2.754,-2.7621,-2.7129,-2.7154,-2.6978,-2.6852,-2.6949,-2.7002,-2.738,-2.7895,-2.8578,-2.8883,-2.8979,-2.9086,-2.9175,-2.9155,-2.9013,-2.8935,-2.8795,-2.8717,-2.8748,-2.8856,-2.9021,-2.9122,-2.9198,-2.9233,-2.8888,-2.8252,-2.7821,-2.7114,-2.613,-2.5826,-2.5721,-2.5779,-2.5867,-2.6135,-2.6751,-2.7115,-2.7316,-2.7302,-2.7247,-2.7327,-2.739,-2.7421,-2.7465,-2.7434,-2.7386,-2.7386,-2.7417,-2.7448,-2.7461,-2.7522,-2.7659,-2.7766,-2.79,-2.7979,-2.7989,-2.8017,-2.8055,-2.8156,-2.8237,-2.8414,-2.8558,-2.8713,-2.891,-2.9072,-2.9118,-2.9062,-2.9108,-2.9119,-2.9181,-2.9172,-2.9107,-2.9107,-2.902,-2.9042,-2.9151,-2.9172,-2.9079,-2.8989,-2.8874,-2.8868,-2.8892,-2.9586,-3.0373,-3.1265,-3.2157,-3.2711,-3.3178,-2.1605,-2.2566,-2.2415,-2.2398,-2.2646,-2.4024,-2.4843,-2.5201,-2.5438,-2.5997,-2.6975,-2.6836,-2.6975,-2.6872,-2.6576,-2.6823,-2.6963,-2.7035,-2.7381,-2.7541,-2.7584,-2.7712,-2.7708,-2.7645,-2.7412,-2.7308,-2.7148,-2.7074,-2.7003,-2.6699,-2.6599,-2.6682,-2.6475,-2.6459,-2.6646,-2.6931,-2.7224,-2.7467,-2.7539,-2.7777,-2.7827,-2.7718,-2.7615,-2.7543,-2.7357,-2.7253,-2.7259,-2.7274,-2.742,-2.7789,-2.7811,-2.7755,-2.7595,-2.7132,-2.6709,-2.5591,-2.5124,-2.4981,-2.5137,-2.5329,-2.5443,-2.5464,-2.5952,-2.6636,-2.6892,-2.6877,-2.6758,-2.6757,-2.6891,-2.6891,-2.6906,-2.6906,-2.6873,-2.6873,-2.6906,-2.6922,-2.6954,-2.7019,-2.7132,-2.7442,-2.7565,-2.7504,-2.7535,-2.7642,-2.7695,-2.7789,-2.7893,-2.8035,-2.8228,-2.8378,-2.8515,-2.8656,-2.8705,-2.8676,-2.87,-2.8717,-2.88,-2.8837,-2.8766,-2.8742,-2.8795,-2.8842,-2.8906,-2.8879,-2.8791,-2.8637,-2.8458,-2.8458,-2.8562,-2.9192,-2.9958,-3.0869,-3.1734,-3.2329,-3.2956,-2.0053,-2.0824,-2.0752,-2.069,-2.0911,-2.1874,-2.247,-2.2908,-2.4094,-2.5043,-2.5494,-2.5481,-2.5412,-2.5494,-2.5287,-2.5327,-2.5757,-2.5558,-2.5901,-2.6627,-2.6666,-2.6877,-2.6986,-2.6996,-2.6924,-2.6894,-2.6777,-2.6641,-2.6649,-2.6512,-2.6418,-2.6195,-2.614,-2.6105,-2.6086,-2.5932,-2.573,-2.6015,-2.629,-2.6548,-2.6541,-2.639,-2.6297,-2.6035,-2.5771,-2.5742,-2.57,-2.5809,-2.6126,-2.6381,-2.6437,-2.6387,-2.6287,-2.6009,-2.5153,-2.4169,-2.3894,-2.3891,-2.4017,-2.4348,-2.4554,-2.476,-2.4941,-2.5374,-2.5837,-2.5963,-2.5917,-2.5944,-2.6129,-2.628,-2.635,-2.6385,-2.635,-2.6315,-2.6333,-2.6351,-2.6402,-2.6454,-2.6708,-2.6995,-2.7076,-2.7004,-2.7017,-2.7161,-2.7241,-2.721,-2.7227,-2.7321,-2.7624,-2.7943,-2.8075,-2.8228,-2.8281,-2.8272,-2.8278,-2.8242,-2.8296,-2.8368,-2.8386,-2.8412,-2.8547,-2.8522,-2.8446,-2.8492,-2.8557,-2.8354,-2.8144,-2.8172,-2.8326,-2.8989,-2.9625,-3.0458,-3.1347,-3.2133,-3.279,-1.8449,-1.9117,-1.8984,-1.8931,-1.8881,-1.94,-1.98,-2.0297,-2.314,-2.4469,-2.4195,-2.4208,-2.4182,-2.4026,-2.3794,-2.3852,-2.391,-2.3772,-2.3966,-2.5348,-2.5112,-2.5307,-2.5637,-2.6068,-2.584,-2.6046,-2.6058,-2.5875,-2.597,-2.5832,-2.555,-2.5498,-2.5345,-2.5383,-2.5588,-2.5043,-2.4838,-2.4858,-2.5166,-2.5488,-2.5555,-2.5594,-2.5551,-2.5199,-2.5119,-2.5106,-2.5161,-2.5217,-2.5315,-2.5286,-2.5199,-2.5168,-2.4954,-2.4702,-2.3674,-2.3141,-2.2904,-2.295,-2.3084,-2.3348,-2.3441,-2.358,-2.3739,-2.4212,-2.4735,-2.5226,-2.533,-2.5232,-2.5366,-2.5693,-2.5815,-2.5726,-2.5689,-2.5742,-2.5779,-2.5799,-2.5852,-2.5928,-2.609,-2.6298,-2.6268,-2.6253,-2.6556,-2.669,-2.6757,-2.664,-2.6691,-2.6774,-2.6971,-2.7396,-2.753,-2.7625,-2.7672,-2.7672,-2.7672,-2.7683,-2.7747,-2.7829,-2.7858,-2.7886,-2.7862,-2.7897,-2.7922,-2.8021,-2.8149,-2.8039,-2.7877,-2.7906,-2.8147,-2.8741,-2.942,-3.0105,-3.0933,-3.1856,-3.2469,-1.6438,-1.7008,-1.7311,-1.7643,-1.8162,-1.8874,-1.9249,-1.9595,-2.1038,-2.198,-2.2212,-2.2224,-2.2224,-2.2262,-2.2053,-2.198,-2.1856,-2.2053,-2.1765,-2.2444,-2.287,-2.3568,-2.3756,-2.4365,-2.4424,-2.4517,-2.4648,-2.4838,-2.4823,-2.468,-2.4598,-2.461,-2.4481,-2.4548,-2.5054,-2.4446,-2.4036,-2.3914,-2.3605,-2.3872,-2.4054,-2.3771,-2.356,-2.3531,-2.3577,-2.3754,-2.3813,-2.3884,-2.4249,-2.454,-2.4213,-2.3917,-2.3565,-2.3336,-2.2867,-2.239,-2.2128,-2.2221,-2.2314,-2.2483,-2.2642,-2.2805,-2.3053,-2.3496,-2.3954,-2.4493,-2.4712,-2.4587,-2.4673,-2.5003,-2.5192,-2.5075,-2.5036,-2.5114,-2.5208,-2.5246,-2.5285,-2.5411,-2.5501,-2.5464,-2.5425,-2.5648,-2.6005,-2.6193,-2.6264,-2.6333,-2.6402,-2.6488,-2.6454,-2.6707,-2.6774,-2.6871,-2.6987,-2.7019,-2.71,-2.7161,-2.7255,-2.7241,-2.7224,-2.721,-2.721,-2.7321,-2.743,-2.7618,-2.7718,-2.76,-2.7565,-2.7679,-2.7989,-2.853,-2.9278,-2.9992,-3.0843,-3.1771,-3.22,-1.4804,-1.5487,-1.5548,-1.5763,-1.6144,-1.682,-1.7205,-1.7512,-1.8503,-1.9236,-1.9771,-2.0451,-2.0869,-2.0869,-2.0655,-2.0504,-2.0504,-2.0515,-2.0782,-2.0935,-2.1207,-2.1924,-2.2369,-2.2712,-2.3189,-2.3345,-2.3441,-2.3588,-2.3526,-2.3419,-2.3385,-2.3441,-2.3441,-2.3565,-2.399,-2.348,-2.3149,-2.3103,-2.2088,-2.1958,-2.2392,-2.2226,-2.2181,-2.2195,-2.2199,-2.2384,-2.2628,-2.275,-2.2992,-2.3224,-2.2962,-2.2273,-2.1974,-2.1894,-2.1803,-2.1461,-2.1321,-2.1417,-2.1547,-2.171,-2.189,-2.2052,-2.2209,-2.2591,-2.2994,-2.3481,-2.3537,-2.3486,-2.3952,-2.4297,-2.4338,-2.4297,-2.4313,-2.4395,-2.4256,-2.4199,-2.457,-2.4948,-2.5005,-2.5003,-2.4984,-2.5054,-2.5351,-2.5497,-2.5556,-2.5668,-2.5815,-2.5852,-2.5888,-2.5892,-2.598,-2.612,-2.6243,-2.6657,-2.701,-2.6925,-2.679,-2.674,-2.6624,-2.6791,-2.6906,-2.6856,-2.694,-2.7177,-2.7261,-2.7158,-2.7141,-2.7482,-2.7703,-2.8116,-2.8973,-2.9886,-3.0751,-3.1498,-3.1689,-1.3361,-1.4378,-1.3981,-1.3793,-1.3838,-1.4259,-1.4668,-1.5037,-1.6084,-1.6729,-1.7189,-1.8772,-1.953,-1.989,-1.9879,-1.9933,-1.9803,-1.9552,-1.9738,-1.9804,-2.0323,-2.0429,-2.0793,-2.1417,-2.1795,-2.2092,-2.2178,-2.2253,-2.2178,-2.2188,-2.2188,-2.2178,-2.2125,-2.2232,-2.2253,-2.2037,-2.1754,-2.1523,-2.0946,-2.0497,-2.0673,-2.0975,-2.1057,-2.1035,-2.1008,-2.1262,-2.1565,-2.1705,-2.1796,-2.1699,-2.1617,-2.0787,-2.0345,-2.0267,-2.0372,-2.0182,-2.0118,-2.0232,-2.0497,-2.0733,-2.0997,-2.1282,-2.1431,-2.1712,-2.2103,-2.2201,-2.2259,-2.2515,-2.298,-2.3465,-2.3493,-2.3551,-2.3595,-2.3653,-2.345,-2.3348,-2.3902,-2.4441,-2.4502,-2.4498,-2.4405,-2.443,-2.4599,-2.4735,-2.4831,-2.4934,-2.4974,-2.5029,-2.5068,-2.5005,-2.5012,-2.5269,-2.5508,-2.6003,-2.6586,-2.6519,-2.621,-2.6193,-2.6156,-2.6401,-2.6521,-2.6367,-2.6415,-2.6772,-2.6824,-2.6887,-2.7224,-2.7612,-2.7799,-2.7967,-2.8895,-2.9836,-3.0432,-3.1031,-3.1104,-1.2158,-1.3425,-1.2984,-1.287,-1.3119,-1.3337,-1.3745,-1.4255,-1.479,-1.5282,-1.5668,-1.593,-1.6835,-1.8405,-1.824,-1.823,-1.821,-1.8114,-1.7738,-1.7546,-1.8363,-1.8508,-1.8796,-1.9553,-2.0207,-2.0508,-2.0653,-2.0672,-2.0566,-2.0817,-2.1135,-2.1115,-2.0787,-2.0974,-2.146,-2.0979,-2.0073,-1.9828,-1.9264,-1.8646,-1.8924,-1.94,-2.0205,-2.0302,-2.0302,-2.042,-2.0537,-2.059,-2.0734,-2.0626,-2.0211,-1.9424,-1.8964,-1.8839,-1.8988,-1.9023,-1.8992,-1.9254,-1.9503,-1.9745,-2.0053,-2.0487,-2.0636,-2.0705,-2.0963,-2.0972,-2.1033,-2.1046,-2.1622,-2.2438,-2.2634,-2.2725,-2.2785,-2.292,-2.286,-2.2995,-2.3334,-2.3762,-2.4085,-2.3771,-2.3387,-2.3518,-2.3779,-2.3879,-2.3921,-2.4006,-2.409,-2.4147,-2.423,-2.4131,-2.4074,-2.4426,-2.4773,-2.514,-2.5583,-2.5718,-2.5562,-2.5584,-2.5589,-2.5721,-2.5742,-2.5701,-2.5868,-2.6162,-2.6635,-2.6899,-2.7271,-2.7392,-2.8073,-2.8366,-2.9065,-2.9789,-3.0285,-3.0523,-3.0592]}]]